<?xml version="1.0" encoding="UTF-8" standalone="no" ?>
<gpx xmlns="http://www.topografix.com/GPX/1/1" xmlns:xsi="http://www.w3.org/2001/XMLSchema-instance" xsi:schemaLocation="http://www.topografix.com/GPX/1/1 http://www.topografix.com/GPX/1/1/gpx.xsd" version="1.1" creator="VisuGPX - https://www.visugpx.com">
  <metadata>
    <name>2021-03-26 12:40:07</name>
    <desc><![CDATA[très beau parcours avec plusieurs vues panoramiques sur le bocage vendéen, plusieurs étangs, petits bosquets, chemins creux et ombragés, etc.... ]]></desc>
  </metadata>
  <trk>
    <name><![CDATA[2021-03-26 12:40:07]]></name>
    <trkseg>
      <trkpt lat="46.69425" lon="-0.7026">
        <ele>230.85</ele>
        <time>2021-03-26T07:33:38Z</time>
      </trkpt>
      <trkpt lat="46.69424" lon="-0.7026">
        <ele>230.85</ele>
        <time>2021-03-26T07:33:55Z</time>
      </trkpt>
      <trkpt lat="46.69424" lon="-0.7026">
        <ele>230.85</ele>
        <time>2021-03-26T07:34:07Z</time>
      </trkpt>
      <trkpt lat="46.69424" lon="-0.70261">
        <ele>230.85</ele>
        <time>2021-03-26T07:34:21Z</time>
      </trkpt>
      <trkpt lat="46.69424" lon="-0.7026">
        <ele>230.85</ele>
        <time>2021-03-26T07:34:31Z</time>
      </trkpt>
      <trkpt lat="46.69419" lon="-0.70257">
        <ele>230.85</ele>
        <time>2021-03-26T07:34:40Z</time>
      </trkpt>
      <trkpt lat="46.6942" lon="-0.70257">
        <ele>230.85</ele>
        <time>2021-03-26T07:34:53Z</time>
      </trkpt>
      <trkpt lat="46.69418" lon="-0.70257">
        <ele>230.85</ele>
        <time>2021-03-26T07:35:01Z</time>
      </trkpt>
      <trkpt lat="46.69416" lon="-0.70256">
        <ele>230.85</ele>
        <time>2021-03-26T07:35:09Z</time>
      </trkpt>
      <trkpt lat="46.69417" lon="-0.70256">
        <ele>230.85</ele>
        <time>2021-03-26T07:35:16Z</time>
      </trkpt>
      <trkpt lat="46.69417" lon="-0.70256">
        <ele>230.85</ele>
        <time>2021-03-26T07:35:33Z</time>
      </trkpt>
      <trkpt lat="46.69416" lon="-0.70255">
        <ele>230.85</ele>
        <time>2021-03-26T07:35:40Z</time>
      </trkpt>
      <trkpt lat="46.69414" lon="-0.70255">
        <ele>230.85</ele>
        <time>2021-03-26T07:35:47Z</time>
      </trkpt>
      <trkpt lat="46.69411" lon="-0.70255">
        <ele>230.85</ele>
        <time>2021-03-26T07:35:54Z</time>
      </trkpt>
      <trkpt lat="46.69409" lon="-0.70256">
        <ele>230.37</ele>
        <time>2021-03-26T07:35:56Z</time>
      </trkpt>
      <trkpt lat="46.69403" lon="-0.70255">
        <ele>230.37</ele>
        <time>2021-03-26T07:36:05Z</time>
      </trkpt>
      <trkpt lat="46.69403" lon="-0.70256">
        <ele>230.37</ele>
        <time>2021-03-26T07:36:17Z</time>
      </trkpt>
      <trkpt lat="46.69402" lon="-0.70256">
        <ele>230.37</ele>
        <time>2021-03-26T07:36:24Z</time>
      </trkpt>
      <trkpt lat="46.69402" lon="-0.70257">
        <ele>230.37</ele>
        <time>2021-03-26T07:36:36Z</time>
      </trkpt>
      <trkpt lat="46.69401" lon="-0.70257">
        <ele>230.37</ele>
        <time>2021-03-26T07:36:47Z</time>
      </trkpt>
      <trkpt lat="46.69402" lon="-0.70257">
        <ele>230.37</ele>
        <time>2021-03-26T07:37:01Z</time>
      </trkpt>
      <trkpt lat="46.69403" lon="-0.70256">
        <ele>230.37</ele>
        <time>2021-03-26T07:37:17Z</time>
      </trkpt>
      <trkpt lat="46.694" lon="-0.70255">
        <ele>230.37</ele>
        <time>2021-03-26T07:37:24Z</time>
      </trkpt>
      <trkpt lat="46.69401" lon="-0.70255">
        <ele>230.37</ele>
        <time>2021-03-26T07:37:31Z</time>
      </trkpt>
      <trkpt lat="46.694" lon="-0.70253">
        <ele>230.37</ele>
        <time>2021-03-26T07:37:46Z</time>
      </trkpt>
      <trkpt lat="46.694" lon="-0.70252">
        <ele>230.37</ele>
        <time>2021-03-26T07:37:54Z</time>
      </trkpt>
      <trkpt lat="46.69398" lon="-0.70251">
        <ele>230.37</ele>
        <time>2021-03-26T07:38:01Z</time>
      </trkpt>
      <trkpt lat="46.69395" lon="-0.7025">
        <ele>230.37</ele>
        <time>2021-03-26T07:38:07Z</time>
      </trkpt>
      <trkpt lat="46.69395" lon="-0.70249">
        <ele>230.37</ele>
        <time>2021-03-26T07:38:14Z</time>
      </trkpt>
      <trkpt lat="46.69396" lon="-0.70249">
        <ele>230.37</ele>
        <time>2021-03-26T07:38:25Z</time>
      </trkpt>
      <trkpt lat="46.69396" lon="-0.70249">
        <ele>230.37</ele>
        <time>2021-03-26T07:38:40Z</time>
      </trkpt>
      <trkpt lat="46.69396" lon="-0.70248">
        <ele>230.37</ele>
        <time>2021-03-26T07:38:50Z</time>
      </trkpt>
      <trkpt lat="46.69396" lon="-0.70248">
        <ele>230.37</ele>
        <time>2021-03-26T07:38:59Z</time>
      </trkpt>
      <trkpt lat="46.69396" lon="-0.70247">
        <ele>230.37</ele>
        <time>2021-03-26T07:39:06Z</time>
      </trkpt>
      <trkpt lat="46.69394" lon="-0.70248">
        <ele>230.37</ele>
        <time>2021-03-26T07:39:13Z</time>
      </trkpt>
      <trkpt lat="46.69393" lon="-0.70247">
        <ele>230.37</ele>
        <time>2021-03-26T07:39:21Z</time>
      </trkpt>
      <trkpt lat="46.69388" lon="-0.70247">
        <ele>230.37</ele>
        <time>2021-03-26T07:39:26Z</time>
      </trkpt>
      <trkpt lat="46.69382" lon="-0.70248">
        <ele>229.89</ele>
        <time>2021-03-26T07:39:34Z</time>
      </trkpt>
      <trkpt lat="46.69381" lon="-0.70249">
        <ele>229.89</ele>
        <time>2021-03-26T07:39:36Z</time>
      </trkpt>
      <trkpt lat="46.69374" lon="-0.70258">
        <ele>229.89</ele>
        <time>2021-03-26T07:39:46Z</time>
      </trkpt>
      <trkpt lat="46.6937" lon="-0.70262">
        <ele>229.89</ele>
        <time>2021-03-26T07:39:50Z</time>
      </trkpt>
      <trkpt lat="46.69361" lon="-0.70266">
        <ele>229.89</ele>
        <time>2021-03-26T07:39:59Z</time>
      </trkpt>
      <trkpt lat="46.69352" lon="-0.70267">
        <ele>229.89</ele>
        <time>2021-03-26T07:40:08Z</time>
      </trkpt>
      <trkpt lat="46.69349" lon="-0.70268">
        <ele>229.89</ele>
        <time>2021-03-26T07:40:11Z</time>
      </trkpt>
      <trkpt lat="46.69346" lon="-0.70269">
        <ele>229.89</ele>
        <time>2021-03-26T07:40:14Z</time>
      </trkpt>
      <trkpt lat="46.69334" lon="-0.70272">
        <ele>229.89</ele>
        <time>2021-03-26T07:40:25Z</time>
      </trkpt>
      <trkpt lat="46.69323" lon="-0.70277">
        <ele>229.89</ele>
        <time>2021-03-26T07:40:35Z</time>
      </trkpt>
      <trkpt lat="46.69314" lon="-0.70282">
        <ele>229.41</ele>
        <time>2021-03-26T07:40:44Z</time>
      </trkpt>
      <trkpt lat="46.69303" lon="-0.70289">
        <ele>229.41</ele>
        <time>2021-03-26T07:40:54Z</time>
      </trkpt>
      <trkpt lat="46.69296" lon="-0.70294">
        <ele>229.41</ele>
        <time>2021-03-26T07:41:02Z</time>
      </trkpt>
      <trkpt lat="46.69286" lon="-0.70303">
        <ele>229.41</ele>
        <time>2021-03-26T07:41:12Z</time>
      </trkpt>
      <trkpt lat="46.69278" lon="-0.70308">
        <ele>228.93</ele>
        <time>2021-03-26T07:41:21Z</time>
      </trkpt>
      <trkpt lat="46.69269" lon="-0.70318">
        <ele>228.93</ele>
        <time>2021-03-26T07:41:29Z</time>
      </trkpt>
      <trkpt lat="46.69269" lon="-0.70319">
        <ele>228.93</ele>
        <time>2021-03-26T07:41:30Z</time>
      </trkpt>
      <trkpt lat="46.69258" lon="-0.70326">
        <ele>228.93</ele>
        <time>2021-03-26T07:41:40Z</time>
      </trkpt>
      <trkpt lat="46.6925" lon="-0.70332">
        <ele>228.93</ele>
        <time>2021-03-26T07:41:48Z</time>
      </trkpt>
      <trkpt lat="46.69239" lon="-0.7034">
        <ele>228.93</ele>
        <time>2021-03-26T07:41:57Z</time>
      </trkpt>
      <trkpt lat="46.69232" lon="-0.70345">
        <ele>228.93</ele>
        <time>2021-03-26T07:42:05Z</time>
      </trkpt>
      <trkpt lat="46.69221" lon="-0.70352">
        <ele>228.93</ele>
        <time>2021-03-26T07:42:13Z</time>
      </trkpt>
      <trkpt lat="46.69213" lon="-0.70356">
        <ele>228.93</ele>
        <time>2021-03-26T07:42:21Z</time>
      </trkpt>
      <trkpt lat="46.692" lon="-0.70361">
        <ele>228.93</ele>
        <time>2021-03-26T07:42:32Z</time>
      </trkpt>
      <trkpt lat="46.69193" lon="-0.7036">
        <ele>228.93</ele>
        <time>2021-03-26T07:42:39Z</time>
      </trkpt>
      <trkpt lat="46.6919" lon="-0.70358">
        <ele>228.93</ele>
        <time>2021-03-26T07:42:47Z</time>
      </trkpt>
      <trkpt lat="46.69189" lon="-0.70357">
        <ele>228.93</ele>
        <time>2021-03-26T07:42:56Z</time>
      </trkpt>
      <trkpt lat="46.69189" lon="-0.70355">
        <ele>228.93</ele>
        <time>2021-03-26T07:43:04Z</time>
      </trkpt>
      <trkpt lat="46.69189" lon="-0.70355">
        <ele>229.89</ele>
        <time>2021-03-26T07:43:09Z</time>
      </trkpt>
      <trkpt lat="46.69188" lon="-0.70355">
        <ele>229.89</ele>
        <time>2021-03-26T07:43:15Z</time>
      </trkpt>
      <trkpt lat="46.69188" lon="-0.70354">
        <ele>229.89</ele>
        <time>2021-03-26T07:43:21Z</time>
      </trkpt>
      <trkpt lat="46.69189" lon="-0.70355">
        <ele>229.89</ele>
        <time>2021-03-26T07:43:28Z</time>
      </trkpt>
      <trkpt lat="46.69188" lon="-0.70356">
        <ele>229.89</ele>
        <time>2021-03-26T07:43:37Z</time>
      </trkpt>
      <trkpt lat="46.69188" lon="-0.70356">
        <ele>229.89</ele>
        <time>2021-03-26T07:43:44Z</time>
      </trkpt>
      <trkpt lat="46.69189" lon="-0.70355">
        <ele>229.89</ele>
        <time>2021-03-26T07:43:50Z</time>
      </trkpt>
      <trkpt lat="46.69187" lon="-0.70351">
        <ele>229.89</ele>
        <time>2021-03-26T07:43:56Z</time>
      </trkpt>
      <trkpt lat="46.69185" lon="-0.70331">
        <ele>229.89</ele>
        <time>2021-03-26T07:44:07Z</time>
      </trkpt>
      <trkpt lat="46.69183" lon="-0.7031">
        <ele>228.93</ele>
        <time>2021-03-26T07:44:18Z</time>
      </trkpt>
      <trkpt lat="46.69181" lon="-0.70294">
        <ele>228.93</ele>
        <time>2021-03-26T07:44:28Z</time>
      </trkpt>
      <trkpt lat="46.69179" lon="-0.70274">
        <ele>228.93</ele>
        <time>2021-03-26T07:44:38Z</time>
      </trkpt>
      <trkpt lat="46.69179" lon="-0.70269">
        <ele>228.45</ele>
        <time>2021-03-26T07:44:45Z</time>
      </trkpt>
      <trkpt lat="46.69179" lon="-0.70269">
        <ele>228.45</ele>
        <time>2021-03-26T07:44:46Z</time>
      </trkpt>
      <trkpt lat="46.69179" lon="-0.70262">
        <ele>228.45</ele>
        <time>2021-03-26T07:44:50Z</time>
      </trkpt>
      <trkpt lat="46.69179" lon="-0.70251">
        <ele>228.45</ele>
        <time>2021-03-26T07:44:59Z</time>
      </trkpt>
      <trkpt lat="46.69178" lon="-0.70245">
        <ele>228.45</ele>
        <time>2021-03-26T07:45:07Z</time>
      </trkpt>
      <trkpt lat="46.69177" lon="-0.70225">
        <ele>227.49</ele>
        <time>2021-03-26T07:45:17Z</time>
      </trkpt>
      <trkpt lat="46.69175" lon="-0.70208">
        <ele>227.49</ele>
        <time>2021-03-26T07:45:26Z</time>
      </trkpt>
      <trkpt lat="46.69174" lon="-0.70185">
        <ele>227.01</ele>
        <time>2021-03-26T07:45:38Z</time>
      </trkpt>
      <trkpt lat="46.69172" lon="-0.70166">
        <ele>227.01</ele>
        <time>2021-03-26T07:45:47Z</time>
      </trkpt>
      <trkpt lat="46.69171" lon="-0.70154">
        <ele>227.01</ele>
        <time>2021-03-26T07:45:54Z</time>
      </trkpt>
      <trkpt lat="46.69169" lon="-0.70137">
        <ele>226.53</ele>
        <time>2021-03-26T07:46:03Z</time>
      </trkpt>
      <trkpt lat="46.69168" lon="-0.70126">
        <ele>226.53</ele>
        <time>2021-03-26T07:46:10Z</time>
      </trkpt>
      <trkpt lat="46.69167" lon="-0.7011">
        <ele>226.05</ele>
        <time>2021-03-26T07:46:18Z</time>
      </trkpt>
      <trkpt lat="46.69164" lon="-0.70096">
        <ele>226.05</ele>
        <time>2021-03-26T07:46:28Z</time>
      </trkpt>
      <trkpt lat="46.69162" lon="-0.70081">
        <ele>225.57</ele>
        <time>2021-03-26T07:46:36Z</time>
      </trkpt>
      <trkpt lat="46.69161" lon="-0.70075">
        <ele>225.57</ele>
        <time>2021-03-26T07:46:43Z</time>
      </trkpt>
      <trkpt lat="46.6916" lon="-0.70056">
        <ele>225.57</ele>
        <time>2021-03-26T07:46:52Z</time>
      </trkpt>
      <trkpt lat="46.69156" lon="-0.70041">
        <ele>225.57</ele>
        <time>2021-03-26T07:47:03Z</time>
      </trkpt>
      <trkpt lat="46.69154" lon="-0.70037">
        <ele>225.57</ele>
        <time>2021-03-26T07:47:10Z</time>
      </trkpt>
      <trkpt lat="46.6915" lon="-0.70028">
        <ele>225.09</ele>
        <time>2021-03-26T07:47:17Z</time>
      </trkpt>
      <trkpt lat="46.69148" lon="-0.70024">
        <ele>225.09</ele>
        <time>2021-03-26T07:47:22Z</time>
      </trkpt>
      <trkpt lat="46.69142" lon="-0.70012">
        <ele>225.09</ele>
        <time>2021-03-26T07:47:31Z</time>
      </trkpt>
      <trkpt lat="46.69136" lon="-0.70002">
        <ele>225.09</ele>
        <time>2021-03-26T07:47:39Z</time>
      </trkpt>
      <trkpt lat="46.69132" lon="-0.69989">
        <ele>224.61</ele>
        <time>2021-03-26T07:47:45Z</time>
      </trkpt>
      <trkpt lat="46.69132" lon="-0.69986">
        <ele>224.61</ele>
        <time>2021-03-26T07:47:52Z</time>
      </trkpt>
      <trkpt lat="46.69128" lon="-0.69979">
        <ele>224.61</ele>
        <time>2021-03-26T07:47:58Z</time>
      </trkpt>
      <trkpt lat="46.69126" lon="-0.69973">
        <ele>224.12</ele>
        <time>2021-03-26T07:48:04Z</time>
      </trkpt>
      <trkpt lat="46.6912" lon="-0.6996">
        <ele>224.12</ele>
        <time>2021-03-26T07:48:11Z</time>
      </trkpt>
      <trkpt lat="46.6912" lon="-0.69959">
        <ele>224.12</ele>
        <time>2021-03-26T07:48:22Z</time>
      </trkpt>
      <trkpt lat="46.69117" lon="-0.69953">
        <ele>223.64</ele>
        <time>2021-03-26T07:48:32Z</time>
      </trkpt>
      <trkpt lat="46.6911" lon="-0.6994">
        <ele>223.64</ele>
        <time>2021-03-26T07:48:41Z</time>
      </trkpt>
      <trkpt lat="46.69105" lon="-0.69926">
        <ele>223.64</ele>
        <time>2021-03-26T07:48:49Z</time>
      </trkpt>
      <trkpt lat="46.69104" lon="-0.69922">
        <ele>223.64</ele>
        <time>2021-03-26T07:48:52Z</time>
      </trkpt>
      <trkpt lat="46.69098" lon="-0.69905">
        <ele>222.68</ele>
        <time>2021-03-26T07:49:03Z</time>
      </trkpt>
      <trkpt lat="46.69093" lon="-0.69898">
        <ele>222.68</ele>
        <time>2021-03-26T07:49:09Z</time>
      </trkpt>
      <trkpt lat="46.69088" lon="-0.69893">
        <ele>222.68</ele>
        <time>2021-03-26T07:49:13Z</time>
      </trkpt>
      <trkpt lat="46.69072" lon="-0.6988">
        <ele>222.2</ele>
        <time>2021-03-26T07:49:24Z</time>
      </trkpt>
      <trkpt lat="46.69064" lon="-0.69874">
        <ele>222.2</ele>
        <time>2021-03-26T07:49:32Z</time>
      </trkpt>
      <trkpt lat="46.6905" lon="-0.69863">
        <ele>221.72</ele>
        <time>2021-03-26T07:49:43Z</time>
      </trkpt>
      <trkpt lat="46.69041" lon="-0.69855">
        <ele>221.72</ele>
        <time>2021-03-26T07:49:51Z</time>
      </trkpt>
      <trkpt lat="46.69032" lon="-0.69845">
        <ele>221.72</ele>
        <time>2021-03-26T07:50:01Z</time>
      </trkpt>
      <trkpt lat="46.6903" lon="-0.69843">
        <ele>221.72</ele>
        <time>2021-03-26T07:50:03Z</time>
      </trkpt>
      <trkpt lat="46.69021" lon="-0.69834">
        <ele>221.72</ele>
        <time>2021-03-26T07:50:12Z</time>
      </trkpt>
      <trkpt lat="46.69019" lon="-0.69833">
        <ele>221.72</ele>
        <time>2021-03-26T07:50:21Z</time>
      </trkpt>
      <trkpt lat="46.69018" lon="-0.69832">
        <ele>221.72</ele>
        <time>2021-03-26T07:50:35Z</time>
      </trkpt>
      <trkpt lat="46.69017" lon="-0.69831">
        <ele>221.72</ele>
        <time>2021-03-26T07:50:53Z</time>
      </trkpt>
      <trkpt lat="46.69015" lon="-0.69828">
        <ele>221.72</ele>
        <time>2021-03-26T07:51:02Z</time>
      </trkpt>
      <trkpt lat="46.69006" lon="-0.6982">
        <ele>221.24</ele>
        <time>2021-03-26T07:51:12Z</time>
      </trkpt>
      <trkpt lat="46.69" lon="-0.69808">
        <ele>221.24</ele>
        <time>2021-03-26T07:51:19Z</time>
      </trkpt>
      <trkpt lat="46.68994" lon="-0.69796">
        <ele>221.24</ele>
        <time>2021-03-26T07:51:28Z</time>
      </trkpt>
      <trkpt lat="46.68989" lon="-0.69783">
        <ele>221.24</ele>
        <time>2021-03-26T07:51:35Z</time>
      </trkpt>
      <trkpt lat="46.68983" lon="-0.69769">
        <ele>221.24</ele>
        <time>2021-03-26T07:51:45Z</time>
      </trkpt>
      <trkpt lat="46.68979" lon="-0.69759">
        <ele>220.76</ele>
        <time>2021-03-26T07:51:53Z</time>
      </trkpt>
      <trkpt lat="46.68975" lon="-0.69749">
        <ele>220.28</ele>
        <time>2021-03-26T07:52:00Z</time>
      </trkpt>
      <trkpt lat="46.68969" lon="-0.6974">
        <ele>220.28</ele>
        <time>2021-03-26T07:52:08Z</time>
      </trkpt>
      <trkpt lat="46.68962" lon="-0.69727">
        <ele>219.8</ele>
        <time>2021-03-26T07:52:17Z</time>
      </trkpt>
      <trkpt lat="46.6896" lon="-0.69722">
        <ele>219.32</ele>
        <time>2021-03-26T07:52:20Z</time>
      </trkpt>
      <trkpt lat="46.68953" lon="-0.69708">
        <ele>218.84</ele>
        <time>2021-03-26T07:52:29Z</time>
      </trkpt>
      <trkpt lat="46.68949" lon="-0.69693">
        <ele>219.32</ele>
        <time>2021-03-26T07:52:37Z</time>
      </trkpt>
      <trkpt lat="46.68945" lon="-0.69681">
        <ele>219.32</ele>
        <time>2021-03-26T07:52:44Z</time>
      </trkpt>
      <trkpt lat="46.68938" lon="-0.69666">
        <ele>218.84</ele>
        <time>2021-03-26T07:52:54Z</time>
      </trkpt>
      <trkpt lat="46.68934" lon="-0.69653">
        <ele>217.88</ele>
        <time>2021-03-26T07:53:02Z</time>
      </trkpt>
      <trkpt lat="46.6893" lon="-0.69644">
        <ele>217.88</ele>
        <time>2021-03-26T07:53:08Z</time>
      </trkpt>
      <trkpt lat="46.68923" lon="-0.69631">
        <ele>217.88</ele>
        <time>2021-03-26T07:53:18Z</time>
      </trkpt>
      <trkpt lat="46.68918" lon="-0.69618">
        <ele>218.36</ele>
        <time>2021-03-26T07:53:25Z</time>
      </trkpt>
      <trkpt lat="46.68909" lon="-0.69603">
        <ele>217.88</ele>
        <time>2021-03-26T07:53:35Z</time>
      </trkpt>
      <trkpt lat="46.68902" lon="-0.69589">
        <ele>217.4</ele>
        <time>2021-03-26T07:53:44Z</time>
      </trkpt>
      <trkpt lat="46.68895" lon="-0.69575">
        <ele>217.4</ele>
        <time>2021-03-26T07:53:54Z</time>
      </trkpt>
      <trkpt lat="46.68891" lon="-0.69564">
        <ele>217.4</ele>
        <time>2021-03-26T07:54:00Z</time>
      </trkpt>
      <trkpt lat="46.68888" lon="-0.69558">
        <ele>217.4</ele>
        <time>2021-03-26T07:54:05Z</time>
      </trkpt>
      <trkpt lat="46.68888" lon="-0.69557">
        <ele>217.4</ele>
        <time>2021-03-26T07:54:06Z</time>
      </trkpt>
      <trkpt lat="46.68879" lon="-0.69539">
        <ele>216.91</ele>
        <time>2021-03-26T07:54:15Z</time>
      </trkpt>
      <trkpt lat="46.68873" lon="-0.69523">
        <ele>216.91</ele>
        <time>2021-03-26T07:54:25Z</time>
      </trkpt>
      <trkpt lat="46.68868" lon="-0.69506">
        <ele>216.91</ele>
        <time>2021-03-26T07:54:34Z</time>
      </trkpt>
      <trkpt lat="46.68867" lon="-0.69491">
        <ele>216.91</ele>
        <time>2021-03-26T07:54:43Z</time>
      </trkpt>
      <trkpt lat="46.68863" lon="-0.69475">
        <ele>216.43</ele>
        <time>2021-03-26T07:54:51Z</time>
      </trkpt>
      <trkpt lat="46.68858" lon="-0.69461">
        <ele>216.43</ele>
        <time>2021-03-26T07:55:01Z</time>
      </trkpt>
      <trkpt lat="46.68853" lon="-0.69446">
        <ele>215.95</ele>
        <time>2021-03-26T07:55:10Z</time>
      </trkpt>
      <trkpt lat="46.68847" lon="-0.69434">
        <ele>214.99</ele>
        <time>2021-03-26T07:55:19Z</time>
      </trkpt>
      <trkpt lat="46.68839" lon="-0.6942">
        <ele>214.99</ele>
        <time>2021-03-26T07:55:28Z</time>
      </trkpt>
      <trkpt lat="46.68832" lon="-0.69408">
        <ele>214.99</ele>
        <time>2021-03-26T07:55:37Z</time>
      </trkpt>
      <trkpt lat="46.68822" lon="-0.69398">
        <ele>214.51</ele>
        <time>2021-03-26T07:55:48Z</time>
      </trkpt>
      <trkpt lat="46.68813" lon="-0.69387">
        <ele>214.51</ele>
        <time>2021-03-26T07:55:57Z</time>
      </trkpt>
      <trkpt lat="46.68806" lon="-0.69377">
        <ele>214.03</ele>
        <time>2021-03-26T07:56:04Z</time>
      </trkpt>
      <trkpt lat="46.68802" lon="-0.69372">
        <ele>214.03</ele>
        <time>2021-03-26T07:56:12Z</time>
      </trkpt>
      <trkpt lat="46.68797" lon="-0.69373">
        <ele>214.03</ele>
        <time>2021-03-26T07:56:18Z</time>
      </trkpt>
      <trkpt lat="46.68796" lon="-0.69373">
        <ele>214.03</ele>
        <time>2021-03-26T07:56:26Z</time>
      </trkpt>
      <trkpt lat="46.68796" lon="-0.69372">
        <ele>214.03</ele>
        <time>2021-03-26T07:56:36Z</time>
      </trkpt>
      <trkpt lat="46.68795" lon="-0.69372">
        <ele>214.03</ele>
        <time>2021-03-26T07:56:47Z</time>
      </trkpt>
      <trkpt lat="46.68793" lon="-0.6937">
        <ele>214.03</ele>
        <time>2021-03-26T07:56:53Z</time>
      </trkpt>
      <trkpt lat="46.68792" lon="-0.69372">
        <ele>214.03</ele>
        <time>2021-03-26T07:56:56Z</time>
      </trkpt>
      <trkpt lat="46.6879" lon="-0.69376">
        <ele>214.03</ele>
        <time>2021-03-26T07:57:01Z</time>
      </trkpt>
      <trkpt lat="46.6879" lon="-0.69377">
        <ele>214.03</ele>
        <time>2021-03-26T07:57:06Z</time>
      </trkpt>
      <trkpt lat="46.6879" lon="-0.69377">
        <ele>214.03</ele>
        <time>2021-03-26T07:57:13Z</time>
      </trkpt>
      <trkpt lat="46.68788" lon="-0.69378">
        <ele>214.03</ele>
        <time>2021-03-26T07:57:18Z</time>
      </trkpt>
      <trkpt lat="46.68788" lon="-0.69379">
        <ele>214.03</ele>
        <time>2021-03-26T07:57:26Z</time>
      </trkpt>
      <trkpt lat="46.68786" lon="-0.6938">
        <ele>213.55</ele>
        <time>2021-03-26T07:57:46Z</time>
      </trkpt>
      <trkpt lat="46.68786" lon="-0.6938">
        <ele>213.55</ele>
        <time>2021-03-26T07:57:55Z</time>
      </trkpt>
      <trkpt lat="46.68784" lon="-0.69383">
        <ele>213.55</ele>
        <time>2021-03-26T07:58:01Z</time>
      </trkpt>
      <trkpt lat="46.68783" lon="-0.69384">
        <ele>213.55</ele>
        <time>2021-03-26T07:58:02Z</time>
      </trkpt>
      <trkpt lat="46.68775" lon="-0.6939">
        <ele>213.55</ele>
        <time>2021-03-26T07:58:11Z</time>
      </trkpt>
      <trkpt lat="46.68774" lon="-0.69389">
        <ele>213.55</ele>
        <time>2021-03-26T07:58:18Z</time>
      </trkpt>
      <trkpt lat="46.6877" lon="-0.69392">
        <ele>213.55</ele>
        <time>2021-03-26T07:58:26Z</time>
      </trkpt>
      <trkpt lat="46.68768" lon="-0.69393">
        <ele>213.55</ele>
        <time>2021-03-26T07:58:30Z</time>
      </trkpt>
      <trkpt lat="46.68763" lon="-0.69396">
        <ele>215.47</ele>
        <time>2021-03-26T07:58:37Z</time>
      </trkpt>
      <trkpt lat="46.68758" lon="-0.69397">
        <ele>215.47</ele>
        <time>2021-03-26T07:58:42Z</time>
      </trkpt>
      <trkpt lat="46.68753" lon="-0.69397">
        <ele>215.47</ele>
        <time>2021-03-26T07:58:48Z</time>
      </trkpt>
      <trkpt lat="46.68751" lon="-0.69396">
        <ele>215.47</ele>
        <time>2021-03-26T07:58:50Z</time>
      </trkpt>
      <trkpt lat="46.68745" lon="-0.69394">
        <ele>215.47</ele>
        <time>2021-03-26T07:58:57Z</time>
      </trkpt>
      <trkpt lat="46.6874" lon="-0.69393">
        <ele>215.95</ele>
        <time>2021-03-26T07:59:04Z</time>
      </trkpt>
      <trkpt lat="46.68739" lon="-0.69391">
        <ele>215.95</ele>
        <time>2021-03-26T07:59:10Z</time>
      </trkpt>
      <trkpt lat="46.68738" lon="-0.69391">
        <ele>215.95</ele>
        <time>2021-03-26T07:59:16Z</time>
      </trkpt>
      <trkpt lat="46.68738" lon="-0.69391">
        <ele>216.43</ele>
        <time>2021-03-26T07:59:23Z</time>
      </trkpt>
      <trkpt lat="46.68732" lon="-0.69391">
        <ele>216.43</ele>
        <time>2021-03-26T07:59:29Z</time>
      </trkpt>
      <trkpt lat="46.68725" lon="-0.69392">
        <ele>217.4</ele>
        <time>2021-03-26T07:59:37Z</time>
      </trkpt>
      <trkpt lat="46.68714" lon="-0.6939">
        <ele>218.36</ele>
        <time>2021-03-26T07:59:47Z</time>
      </trkpt>
      <trkpt lat="46.68706" lon="-0.69391">
        <ele>219.32</ele>
        <time>2021-03-26T07:59:55Z</time>
      </trkpt>
      <trkpt lat="46.68695" lon="-0.6939">
        <ele>220.28</ele>
        <time>2021-03-26T08:00:05Z</time>
      </trkpt>
      <trkpt lat="46.68686" lon="-0.69396">
        <ele>220.76</ele>
        <time>2021-03-26T08:00:13Z</time>
      </trkpt>
      <trkpt lat="46.68678" lon="-0.69405">
        <ele>221.72</ele>
        <time>2021-03-26T08:00:22Z</time>
      </trkpt>
      <trkpt lat="46.68674" lon="-0.69411">
        <ele>221.72</ele>
        <time>2021-03-26T08:00:29Z</time>
      </trkpt>
      <trkpt lat="46.68674" lon="-0.69418">
        <ele>222.2</ele>
        <time>2021-03-26T08:00:35Z</time>
      </trkpt>
      <trkpt lat="46.68674" lon="-0.69429">
        <ele>223.16</ele>
        <time>2021-03-26T08:00:43Z</time>
      </trkpt>
      <trkpt lat="46.68677" lon="-0.69441">
        <ele>223.64</ele>
        <time>2021-03-26T08:00:51Z</time>
      </trkpt>
      <trkpt lat="46.68677" lon="-0.69447">
        <ele>224.12</ele>
        <time>2021-03-26T08:00:57Z</time>
      </trkpt>
      <trkpt lat="46.68681" lon="-0.69457">
        <ele>225.09</ele>
        <time>2021-03-26T08:01:06Z</time>
      </trkpt>
      <trkpt lat="46.68682" lon="-0.6946">
        <ele>225.57</ele>
        <time>2021-03-26T08:01:15Z</time>
      </trkpt>
      <trkpt lat="46.68681" lon="-0.69466">
        <ele>225.57</ele>
        <time>2021-03-26T08:01:25Z</time>
      </trkpt>
      <trkpt lat="46.68679" lon="-0.69472">
        <ele>226.53</ele>
        <time>2021-03-26T08:01:34Z</time>
      </trkpt>
      <trkpt lat="46.68679" lon="-0.69474">
        <ele>226.53</ele>
        <time>2021-03-26T08:01:36Z</time>
      </trkpt>
      <trkpt lat="46.68677" lon="-0.69489">
        <ele>227.01</ele>
        <time>2021-03-26T08:01:45Z</time>
      </trkpt>
      <trkpt lat="46.68676" lon="-0.69497">
        <ele>227.01</ele>
        <time>2021-03-26T08:01:53Z</time>
      </trkpt>
      <trkpt lat="46.68676" lon="-0.69497">
        <ele>227.01</ele>
        <time>2021-03-26T08:02:04Z</time>
      </trkpt>
      <trkpt lat="46.68676" lon="-0.69498">
        <ele>227.01</ele>
        <time>2021-03-26T08:02:06Z</time>
      </trkpt>
      <trkpt lat="46.68672" lon="-0.69504">
        <ele>225.57</ele>
        <time>2021-03-26T08:02:13Z</time>
      </trkpt>
      <trkpt lat="46.6867" lon="-0.69506">
        <ele>225.09</ele>
        <time>2021-03-26T08:02:16Z</time>
      </trkpt>
      <trkpt lat="46.68664" lon="-0.69518">
        <ele>224.12</ele>
        <time>2021-03-26T08:02:25Z</time>
      </trkpt>
      <trkpt lat="46.68657" lon="-0.69532">
        <ele>224.12</ele>
        <time>2021-03-26T08:02:34Z</time>
      </trkpt>
      <trkpt lat="46.68649" lon="-0.69542">
        <ele>222.68</ele>
        <time>2021-03-26T08:02:42Z</time>
      </trkpt>
      <trkpt lat="46.68644" lon="-0.69552">
        <ele>222.68</ele>
        <time>2021-03-26T08:02:49Z</time>
      </trkpt>
      <trkpt lat="46.6864" lon="-0.69556">
        <ele>221.72</ele>
        <time>2021-03-26T08:02:54Z</time>
      </trkpt>
      <trkpt lat="46.6864" lon="-0.69558">
        <ele>221.72</ele>
        <time>2021-03-26T08:02:56Z</time>
      </trkpt>
      <trkpt lat="46.68637" lon="-0.6956">
        <ele>221.24</ele>
        <time>2021-03-26T08:03:01Z</time>
      </trkpt>
      <trkpt lat="46.68635" lon="-0.69565">
        <ele>221.24</ele>
        <time>2021-03-26T08:03:04Z</time>
      </trkpt>
      <trkpt lat="46.68631" lon="-0.69573">
        <ele>221.24</ele>
        <time>2021-03-26T08:03:11Z</time>
      </trkpt>
      <trkpt lat="46.68625" lon="-0.69583">
        <ele>221.24</ele>
        <time>2021-03-26T08:03:18Z</time>
      </trkpt>
      <trkpt lat="46.68616" lon="-0.69594">
        <ele>220.76</ele>
        <time>2021-03-26T08:03:27Z</time>
      </trkpt>
      <trkpt lat="46.68612" lon="-0.69596">
        <ele>220.76</ele>
        <time>2021-03-26T08:03:30Z</time>
      </trkpt>
      <trkpt lat="46.6861" lon="-0.69598">
        <ele>220.76</ele>
        <time>2021-03-26T08:03:34Z</time>
      </trkpt>
      <trkpt lat="46.68609" lon="-0.69599">
        <ele>220.76</ele>
        <time>2021-03-26T08:03:35Z</time>
      </trkpt>
      <trkpt lat="46.68601" lon="-0.69606">
        <ele>220.76</ele>
        <time>2021-03-26T08:03:43Z</time>
      </trkpt>
      <trkpt lat="46.6859" lon="-0.69616">
        <ele>220.76</ele>
        <time>2021-03-26T08:03:53Z</time>
      </trkpt>
      <trkpt lat="46.6858" lon="-0.69623">
        <ele>220.76</ele>
        <time>2021-03-26T08:04:01Z</time>
      </trkpt>
      <trkpt lat="46.68579" lon="-0.69625">
        <ele>220.76</ele>
        <time>2021-03-26T08:04:04Z</time>
      </trkpt>
      <trkpt lat="46.68578" lon="-0.69626">
        <ele>220.76</ele>
        <time>2021-03-26T08:04:05Z</time>
      </trkpt>
      <trkpt lat="46.68576" lon="-0.69627">
        <ele>220.76</ele>
        <time>2021-03-26T08:04:06Z</time>
      </trkpt>
      <trkpt lat="46.68576" lon="-0.69628">
        <ele>220.76</ele>
        <time>2021-03-26T08:04:07Z</time>
      </trkpt>
      <trkpt lat="46.68571" lon="-0.69631">
        <ele>220.76</ele>
        <time>2021-03-26T08:04:12Z</time>
      </trkpt>
      <trkpt lat="46.68559" lon="-0.69639">
        <ele>220.76</ele>
        <time>2021-03-26T08:04:21Z</time>
      </trkpt>
      <trkpt lat="46.68551" lon="-0.69644">
        <ele>220.28</ele>
        <time>2021-03-26T08:04:28Z</time>
      </trkpt>
      <trkpt lat="46.68542" lon="-0.69649">
        <ele>219.32</ele>
        <time>2021-03-26T08:04:35Z</time>
      </trkpt>
      <trkpt lat="46.68536" lon="-0.69656">
        <ele>219.32</ele>
        <time>2021-03-26T08:04:43Z</time>
      </trkpt>
      <trkpt lat="46.68524" lon="-0.69666">
        <ele>218.36</ele>
        <time>2021-03-26T08:04:52Z</time>
      </trkpt>
      <trkpt lat="46.68519" lon="-0.69672">
        <ele>217.4</ele>
        <time>2021-03-26T08:05:00Z</time>
      </trkpt>
      <trkpt lat="46.68507" lon="-0.69681">
        <ele>216.91</ele>
        <time>2021-03-26T08:05:08Z</time>
      </trkpt>
      <trkpt lat="46.68499" lon="-0.69688">
        <ele>216.43</ele>
        <time>2021-03-26T08:05:17Z</time>
      </trkpt>
      <trkpt lat="46.68491" lon="-0.69695">
        <ele>215.95</ele>
        <time>2021-03-26T08:05:25Z</time>
      </trkpt>
      <trkpt lat="46.68479" lon="-0.69706">
        <ele>215.95</ele>
        <time>2021-03-26T08:05:33Z</time>
      </trkpt>
      <trkpt lat="46.68472" lon="-0.69713">
        <ele>215.47</ele>
        <time>2021-03-26T08:05:42Z</time>
      </trkpt>
      <trkpt lat="46.68462" lon="-0.69722">
        <ele>215.47</ele>
        <time>2021-03-26T08:05:50Z</time>
      </trkpt>
      <trkpt lat="46.68453" lon="-0.6973">
        <ele>214.99</ele>
        <time>2021-03-26T08:05:58Z</time>
      </trkpt>
      <trkpt lat="46.68444" lon="-0.69735">
        <ele>214.51</ele>
        <time>2021-03-26T08:06:06Z</time>
      </trkpt>
      <trkpt lat="46.68431" lon="-0.69745">
        <ele>214.51</ele>
        <time>2021-03-26T08:06:16Z</time>
      </trkpt>
      <trkpt lat="46.68422" lon="-0.6975">
        <ele>214.03</ele>
        <time>2021-03-26T08:06:25Z</time>
      </trkpt>
      <trkpt lat="46.68412" lon="-0.69756">
        <ele>214.03</ele>
        <time>2021-03-26T08:06:33Z</time>
      </trkpt>
      <trkpt lat="46.684" lon="-0.69762">
        <ele>214.03</ele>
        <time>2021-03-26T08:06:42Z</time>
      </trkpt>
      <trkpt lat="46.6839" lon="-0.69765">
        <ele>214.03</ele>
        <time>2021-03-26T08:06:51Z</time>
      </trkpt>
      <trkpt lat="46.68389" lon="-0.69765">
        <ele>214.03</ele>
        <time>2021-03-26T08:06:52Z</time>
      </trkpt>
      <trkpt lat="46.68388" lon="-0.69765">
        <ele>214.03</ele>
        <time>2021-03-26T08:06:53Z</time>
      </trkpt>
      <trkpt lat="46.68376" lon="-0.69767">
        <ele>215.47</ele>
        <time>2021-03-26T08:07:02Z</time>
      </trkpt>
      <trkpt lat="46.68365" lon="-0.69765">
        <ele>215.47</ele>
        <time>2021-03-26T08:07:11Z</time>
      </trkpt>
      <trkpt lat="46.68355" lon="-0.69766">
        <ele>215.47</ele>
        <time>2021-03-26T08:07:19Z</time>
      </trkpt>
      <trkpt lat="46.68348" lon="-0.69768">
        <ele>215.47</ele>
        <time>2021-03-26T08:07:25Z</time>
      </trkpt>
      <trkpt lat="46.6834" lon="-0.69769">
        <ele>215.47</ele>
        <time>2021-03-26T08:07:31Z</time>
      </trkpt>
      <trkpt lat="46.68337" lon="-0.6977">
        <ele>214.51</ele>
        <time>2021-03-26T08:07:35Z</time>
      </trkpt>
      <trkpt lat="46.68335" lon="-0.69771">
        <ele>214.51</ele>
        <time>2021-03-26T08:07:37Z</time>
      </trkpt>
      <trkpt lat="46.68333" lon="-0.69773">
        <ele>214.51</ele>
        <time>2021-03-26T08:07:38Z</time>
      </trkpt>
      <trkpt lat="46.68332" lon="-0.69774">
        <ele>214.51</ele>
        <time>2021-03-26T08:07:39Z</time>
      </trkpt>
      <trkpt lat="46.68323" lon="-0.6978">
        <ele>214.03</ele>
        <time>2021-03-26T08:07:47Z</time>
      </trkpt>
      <trkpt lat="46.68312" lon="-0.69787">
        <ele>214.03</ele>
        <time>2021-03-26T08:07:56Z</time>
      </trkpt>
      <trkpt lat="46.68305" lon="-0.69793">
        <ele>213.55</ele>
        <time>2021-03-26T08:08:03Z</time>
      </trkpt>
      <trkpt lat="46.68294" lon="-0.69802">
        <ele>212.59</ele>
        <time>2021-03-26T08:08:12Z</time>
      </trkpt>
      <trkpt lat="46.68289" lon="-0.69805">
        <ele>211.63</ele>
        <time>2021-03-26T08:08:19Z</time>
      </trkpt>
      <trkpt lat="46.68281" lon="-0.69813">
        <ele>211.15</ele>
        <time>2021-03-26T08:08:26Z</time>
      </trkpt>
      <trkpt lat="46.68279" lon="-0.69815">
        <ele>210.67</ele>
        <time>2021-03-26T08:08:32Z</time>
      </trkpt>
      <trkpt lat="46.68277" lon="-0.69818">
        <ele>210.67</ele>
        <time>2021-03-26T08:08:36Z</time>
      </trkpt>
      <trkpt lat="46.68276" lon="-0.69818">
        <ele>210.67</ele>
        <time>2021-03-26T08:08:37Z</time>
      </trkpt>
      <trkpt lat="46.68274" lon="-0.69821">
        <ele>210.19</ele>
        <time>2021-03-26T08:08:42Z</time>
      </trkpt>
      <trkpt lat="46.68273" lon="-0.69823">
        <ele>210.19</ele>
        <time>2021-03-26T08:08:51Z</time>
      </trkpt>
      <trkpt lat="46.68272" lon="-0.69823">
        <ele>210.19</ele>
        <time>2021-03-26T08:09:03Z</time>
      </trkpt>
      <trkpt lat="46.68271" lon="-0.69823">
        <ele>210.67</ele>
        <time>2021-03-26T08:09:14Z</time>
      </trkpt>
      <trkpt lat="46.68271" lon="-0.69824">
        <ele>210.19</ele>
        <time>2021-03-26T08:09:25Z</time>
      </trkpt>
      <trkpt lat="46.6827" lon="-0.69825">
        <ele>210.19</ele>
        <time>2021-03-26T08:09:40Z</time>
      </trkpt>
      <trkpt lat="46.6827" lon="-0.69826">
        <ele>210.19</ele>
        <time>2021-03-26T08:09:48Z</time>
      </trkpt>
      <trkpt lat="46.6827" lon="-0.69826">
        <ele>210.19</ele>
        <time>2021-03-26T08:09:58Z</time>
      </trkpt>
      <trkpt lat="46.6827" lon="-0.69826">
        <ele>210.19</ele>
        <time>2021-03-26T08:10:03Z</time>
      </trkpt>
      <trkpt lat="46.6827" lon="-0.69826">
        <ele>210.19</ele>
        <time>2021-03-26T08:10:08Z</time>
      </trkpt>
      <trkpt lat="46.6827" lon="-0.69826">
        <ele>210.19</ele>
        <time>2021-03-26T08:10:15Z</time>
      </trkpt>
      <trkpt lat="46.6827" lon="-0.69825">
        <ele>210.19</ele>
        <time>2021-03-26T08:10:22Z</time>
      </trkpt>
      <trkpt lat="46.6827" lon="-0.69825">
        <ele>210.19</ele>
        <time>2021-03-26T08:10:30Z</time>
      </trkpt>
      <trkpt lat="46.6827" lon="-0.69824">
        <ele>210.19</ele>
        <time>2021-03-26T08:10:36Z</time>
      </trkpt>
      <trkpt lat="46.68265" lon="-0.69826">
        <ele>209.7</ele>
        <time>2021-03-26T08:10:42Z</time>
      </trkpt>
      <trkpt lat="46.68265" lon="-0.69828">
        <ele>209.7</ele>
        <time>2021-03-26T08:10:50Z</time>
      </trkpt>
      <trkpt lat="46.68257" lon="-0.69834">
        <ele>209.22</ele>
        <time>2021-03-26T08:10:58Z</time>
      </trkpt>
      <trkpt lat="46.68253" lon="-0.69835">
        <ele>208.26</ele>
        <time>2021-03-26T08:11:07Z</time>
      </trkpt>
      <trkpt lat="46.68252" lon="-0.69836">
        <ele>208.26</ele>
        <time>2021-03-26T08:11:12Z</time>
      </trkpt>
      <trkpt lat="46.68245" lon="-0.69841">
        <ele>208.26</ele>
        <time>2021-03-26T08:11:17Z</time>
      </trkpt>
      <trkpt lat="46.68239" lon="-0.69847">
        <ele>206.34</ele>
        <time>2021-03-26T08:11:27Z</time>
      </trkpt>
      <trkpt lat="46.68229" lon="-0.69855">
        <ele>205.38</ele>
        <time>2021-03-26T08:11:34Z</time>
      </trkpt>
      <trkpt lat="46.68224" lon="-0.6986">
        <ele>204.42</ele>
        <time>2021-03-26T08:11:41Z</time>
      </trkpt>
      <trkpt lat="46.6822" lon="-0.69862">
        <ele>203.94</ele>
        <time>2021-03-26T08:11:48Z</time>
      </trkpt>
      <trkpt lat="46.68212" lon="-0.69869">
        <ele>202.98</ele>
        <time>2021-03-26T08:11:55Z</time>
      </trkpt>
      <trkpt lat="46.68206" lon="-0.69873">
        <ele>202.49</ele>
        <time>2021-03-26T08:12:02Z</time>
      </trkpt>
      <trkpt lat="46.68205" lon="-0.69877">
        <ele>201.53</ele>
        <time>2021-03-26T08:12:09Z</time>
      </trkpt>
      <trkpt lat="46.68204" lon="-0.69879">
        <ele>201.05</ele>
        <time>2021-03-26T08:12:11Z</time>
      </trkpt>
      <trkpt lat="46.68201" lon="-0.69888">
        <ele>200.09</ele>
        <time>2021-03-26T08:12:19Z</time>
      </trkpt>
      <trkpt lat="46.68198" lon="-0.69891">
        <ele>199.61</ele>
        <time>2021-03-26T08:12:29Z</time>
      </trkpt>
      <trkpt lat="46.68197" lon="-0.69894">
        <ele>199.61</ele>
        <time>2021-03-26T08:12:37Z</time>
      </trkpt>
      <trkpt lat="46.68195" lon="-0.69899">
        <ele>199.13</ele>
        <time>2021-03-26T08:12:43Z</time>
      </trkpt>
      <trkpt lat="46.68193" lon="-0.69905">
        <ele>198.17</ele>
        <time>2021-03-26T08:12:49Z</time>
      </trkpt>
      <trkpt lat="46.68192" lon="-0.6991">
        <ele>197.69</ele>
        <time>2021-03-26T08:12:57Z</time>
      </trkpt>
      <trkpt lat="46.68193" lon="-0.69915">
        <ele>197.69</ele>
        <time>2021-03-26T08:13:05Z</time>
      </trkpt>
      <trkpt lat="46.68193" lon="-0.69917">
        <ele>196.73</ele>
        <time>2021-03-26T08:13:10Z</time>
      </trkpt>
      <trkpt lat="46.68193" lon="-0.69921">
        <ele>196.73</ele>
        <time>2021-03-26T08:13:16Z</time>
      </trkpt>
      <trkpt lat="46.68194" lon="-0.69928">
        <ele>196.25</ele>
        <time>2021-03-26T08:13:24Z</time>
      </trkpt>
      <trkpt lat="46.68194" lon="-0.69935">
        <ele>195.77</ele>
        <time>2021-03-26T08:13:29Z</time>
      </trkpt>
      <trkpt lat="46.68195" lon="-0.69942">
        <ele>195.77</ele>
        <time>2021-03-26T08:13:37Z</time>
      </trkpt>
      <trkpt lat="46.68197" lon="-0.69952">
        <ele>195.28</ele>
        <time>2021-03-26T08:13:46Z</time>
      </trkpt>
      <trkpt lat="46.68198" lon="-0.69959">
        <ele>194.8</ele>
        <time>2021-03-26T08:13:52Z</time>
      </trkpt>
      <trkpt lat="46.682" lon="-0.69968">
        <ele>194.8</ele>
        <time>2021-03-26T08:13:59Z</time>
      </trkpt>
      <trkpt lat="46.68201" lon="-0.69974">
        <ele>194.32</ele>
        <time>2021-03-26T08:14:06Z</time>
      </trkpt>
      <trkpt lat="46.68202" lon="-0.69985">
        <ele>194.32</ele>
        <time>2021-03-26T08:14:13Z</time>
      </trkpt>
      <trkpt lat="46.68203" lon="-0.6999">
        <ele>193.84</ele>
        <time>2021-03-26T08:14:19Z</time>
      </trkpt>
      <trkpt lat="46.68203" lon="-0.69994">
        <ele>193.36</ele>
        <time>2021-03-26T08:14:24Z</time>
      </trkpt>
      <trkpt lat="46.68201" lon="-0.69998">
        <ele>193.36</ele>
        <time>2021-03-26T08:14:29Z</time>
      </trkpt>
      <trkpt lat="46.68202" lon="-0.7">
        <ele>193.36</ele>
        <time>2021-03-26T08:14:36Z</time>
      </trkpt>
      <trkpt lat="46.68199" lon="-0.70004">
        <ele>193.36</ele>
        <time>2021-03-26T08:14:44Z</time>
      </trkpt>
      <trkpt lat="46.68199" lon="-0.70006">
        <ele>193.36</ele>
        <time>2021-03-26T08:14:51Z</time>
      </trkpt>
      <trkpt lat="46.68197" lon="-0.70009">
        <ele>193.36</ele>
        <time>2021-03-26T08:15:01Z</time>
      </trkpt>
      <trkpt lat="46.68196" lon="-0.7001">
        <ele>193.36</ele>
        <time>2021-03-26T08:15:10Z</time>
      </trkpt>
      <trkpt lat="46.68196" lon="-0.70008">
        <ele>194.8</ele>
        <time>2021-03-26T08:15:17Z</time>
      </trkpt>
      <trkpt lat="46.68193" lon="-0.70008">
        <ele>194.8</ele>
        <time>2021-03-26T08:15:29Z</time>
      </trkpt>
      <trkpt lat="46.68192" lon="-0.70009">
        <ele>194.8</ele>
        <time>2021-03-26T08:15:36Z</time>
      </trkpt>
      <trkpt lat="46.68189" lon="-0.70008">
        <ele>194.8</ele>
        <time>2021-03-26T08:15:39Z</time>
      </trkpt>
      <trkpt lat="46.68184" lon="-0.70007">
        <ele>194.8</ele>
        <time>2021-03-26T08:15:48Z</time>
      </trkpt>
      <trkpt lat="46.68179" lon="-0.70005">
        <ele>194.8</ele>
        <time>2021-03-26T08:15:57Z</time>
      </trkpt>
      <trkpt lat="46.68173" lon="-0.70003">
        <ele>194.8</ele>
        <time>2021-03-26T08:16:03Z</time>
      </trkpt>
      <trkpt lat="46.6817" lon="-0.70003">
        <ele>194.8</ele>
        <time>2021-03-26T08:16:11Z</time>
      </trkpt>
      <trkpt lat="46.68168" lon="-0.70003">
        <ele>194.8</ele>
        <time>2021-03-26T08:16:20Z</time>
      </trkpt>
      <trkpt lat="46.68166" lon="-0.70008">
        <ele>195.77</ele>
        <time>2021-03-26T08:16:28Z</time>
      </trkpt>
      <trkpt lat="46.6816" lon="-0.70017">
        <ele>196.73</ele>
        <time>2021-03-26T08:16:38Z</time>
      </trkpt>
      <trkpt lat="46.68156" lon="-0.70025">
        <ele>197.69</ele>
        <time>2021-03-26T08:16:47Z</time>
      </trkpt>
      <trkpt lat="46.68156" lon="-0.70026">
        <ele>198.17</ele>
        <time>2021-03-26T08:16:48Z</time>
      </trkpt>
      <trkpt lat="46.68152" lon="-0.70034">
        <ele>199.61</ele>
        <time>2021-03-26T08:16:55Z</time>
      </trkpt>
      <trkpt lat="46.68148" lon="-0.70041">
        <ele>200.09</ele>
        <time>2021-03-26T08:17:00Z</time>
      </trkpt>
      <trkpt lat="46.68141" lon="-0.70051">
        <ele>201.05</ele>
        <time>2021-03-26T08:17:09Z</time>
      </trkpt>
      <trkpt lat="46.68134" lon="-0.70062">
        <ele>202.01</ele>
        <time>2021-03-26T08:17:18Z</time>
      </trkpt>
      <trkpt lat="46.68128" lon="-0.70071">
        <ele>202.98</ele>
        <time>2021-03-26T08:17:25Z</time>
      </trkpt>
      <trkpt lat="46.68123" lon="-0.70083">
        <ele>203.46</ele>
        <time>2021-03-26T08:17:33Z</time>
      </trkpt>
      <trkpt lat="46.68116" lon="-0.70093">
        <ele>203.94</ele>
        <time>2021-03-26T08:17:41Z</time>
      </trkpt>
      <trkpt lat="46.68108" lon="-0.70106">
        <ele>204.42</ele>
        <time>2021-03-26T08:17:51Z</time>
      </trkpt>
      <trkpt lat="46.68101" lon="-0.70117">
        <ele>204.9</ele>
        <time>2021-03-26T08:18:00Z</time>
      </trkpt>
      <trkpt lat="46.68094" lon="-0.70128">
        <ele>205.38</ele>
        <time>2021-03-26T08:18:09Z</time>
      </trkpt>
      <trkpt lat="46.68089" lon="-0.70138">
        <ele>205.38</ele>
        <time>2021-03-26T08:18:18Z</time>
      </trkpt>
      <trkpt lat="46.68082" lon="-0.70149">
        <ele>205.86</ele>
        <time>2021-03-26T08:18:27Z</time>
      </trkpt>
      <trkpt lat="46.68077" lon="-0.70156">
        <ele>205.86</ele>
        <time>2021-03-26T08:18:34Z</time>
      </trkpt>
      <trkpt lat="46.68068" lon="-0.70169">
        <ele>205.86</ele>
        <time>2021-03-26T08:18:44Z</time>
      </trkpt>
      <trkpt lat="46.68065" lon="-0.70173">
        <ele>205.86</ele>
        <time>2021-03-26T08:18:47Z</time>
      </trkpt>
      <trkpt lat="46.68058" lon="-0.70181">
        <ele>206.34</ele>
        <time>2021-03-26T08:18:56Z</time>
      </trkpt>
      <trkpt lat="46.68058" lon="-0.70183">
        <ele>206.34</ele>
        <time>2021-03-26T08:18:58Z</time>
      </trkpt>
      <trkpt lat="46.6806" lon="-0.70194">
        <ele>204.9</ele>
        <time>2021-03-26T08:19:07Z</time>
      </trkpt>
      <trkpt lat="46.68065" lon="-0.70208">
        <ele>204.42</ele>
        <time>2021-03-26T08:19:15Z</time>
      </trkpt>
      <trkpt lat="46.68068" lon="-0.70213">
        <ele>203.46</ele>
        <time>2021-03-26T08:19:22Z</time>
      </trkpt>
      <trkpt lat="46.68075" lon="-0.70224">
        <ele>202.49</ele>
        <time>2021-03-26T08:19:29Z</time>
      </trkpt>
      <trkpt lat="46.68082" lon="-0.70235">
        <ele>201.53</ele>
        <time>2021-03-26T08:19:39Z</time>
      </trkpt>
      <trkpt lat="46.68088" lon="-0.70245">
        <ele>201.53</ele>
        <time>2021-03-26T08:19:46Z</time>
      </trkpt>
      <trkpt lat="46.68091" lon="-0.70251">
        <ele>200.57</ele>
        <time>2021-03-26T08:19:53Z</time>
      </trkpt>
      <trkpt lat="46.68096" lon="-0.7026">
        <ele>200.09</ele>
        <time>2021-03-26T08:19:59Z</time>
      </trkpt>
      <trkpt lat="46.68098" lon="-0.70264">
        <ele>199.61</ele>
        <time>2021-03-26T08:20:08Z</time>
      </trkpt>
      <trkpt lat="46.68102" lon="-0.7027">
        <ele>199.61</ele>
        <time>2021-03-26T08:20:15Z</time>
      </trkpt>
      <trkpt lat="46.68103" lon="-0.70272">
        <ele>199.13</ele>
        <time>2021-03-26T08:20:23Z</time>
      </trkpt>
      <trkpt lat="46.68104" lon="-0.70273">
        <ele>199.13</ele>
        <time>2021-03-26T08:20:34Z</time>
      </trkpt>
      <trkpt lat="46.68103" lon="-0.70272">
        <ele>199.13</ele>
        <time>2021-03-26T08:20:41Z</time>
      </trkpt>
      <trkpt lat="46.68103" lon="-0.70272">
        <ele>199.13</ele>
        <time>2021-03-26T08:20:48Z</time>
      </trkpt>
      <trkpt lat="46.68103" lon="-0.70273">
        <ele>199.13</ele>
        <time>2021-03-26T08:20:55Z</time>
      </trkpt>
      <trkpt lat="46.68103" lon="-0.70273">
        <ele>199.13</ele>
        <time>2021-03-26T08:20:56Z</time>
      </trkpt>
      <trkpt lat="46.68101" lon="-0.70277">
        <ele>199.13</ele>
        <time>2021-03-26T08:21:01Z</time>
      </trkpt>
      <trkpt lat="46.68101" lon="-0.70276">
        <ele>199.13</ele>
        <time>2021-03-26T08:21:04Z</time>
      </trkpt>
      <trkpt lat="46.68103" lon="-0.70277">
        <ele>199.13</ele>
        <time>2021-03-26T08:21:08Z</time>
      </trkpt>
      <trkpt lat="46.68105" lon="-0.70277">
        <ele>199.13</ele>
        <time>2021-03-26T08:21:12Z</time>
      </trkpt>
      <trkpt lat="46.68101" lon="-0.70278">
        <ele>199.13</ele>
        <time>2021-03-26T08:21:19Z</time>
      </trkpt>
      <trkpt lat="46.681" lon="-0.70277">
        <ele>199.13</ele>
        <time>2021-03-26T08:21:28Z</time>
      </trkpt>
      <trkpt lat="46.68097" lon="-0.70279">
        <ele>199.13</ele>
        <time>2021-03-26T08:21:34Z</time>
      </trkpt>
      <trkpt lat="46.68091" lon="-0.70283">
        <ele>199.13</ele>
        <time>2021-03-26T08:21:42Z</time>
      </trkpt>
      <trkpt lat="46.68081" lon="-0.7029">
        <ele>199.13</ele>
        <time>2021-03-26T08:21:51Z</time>
      </trkpt>
      <trkpt lat="46.68072" lon="-0.70295">
        <ele>199.13</ele>
        <time>2021-03-26T08:22:00Z</time>
      </trkpt>
      <trkpt lat="46.68069" lon="-0.70296">
        <ele>199.13</ele>
        <time>2021-03-26T08:22:04Z</time>
      </trkpt>
      <trkpt lat="46.68068" lon="-0.70297">
        <ele>199.13</ele>
        <time>2021-03-26T08:22:05Z</time>
      </trkpt>
      <trkpt lat="46.68067" lon="-0.70298">
        <ele>199.13</ele>
        <time>2021-03-26T08:22:06Z</time>
      </trkpt>
      <trkpt lat="46.68061" lon="-0.70303">
        <ele>199.13</ele>
        <time>2021-03-26T08:22:14Z</time>
      </trkpt>
      <trkpt lat="46.68052" lon="-0.70311">
        <ele>199.13</ele>
        <time>2021-03-26T08:22:23Z</time>
      </trkpt>
      <trkpt lat="46.68049" lon="-0.70311">
        <ele>199.13</ele>
        <time>2021-03-26T08:22:32Z</time>
      </trkpt>
      <trkpt lat="46.68048" lon="-0.7031">
        <ele>199.13</ele>
        <time>2021-03-26T08:22:50Z</time>
      </trkpt>
      <trkpt lat="46.68048" lon="-0.7031">
        <ele>199.13</ele>
        <time>2021-03-26T08:23:02Z</time>
      </trkpt>
      <trkpt lat="46.68049" lon="-0.7031">
        <ele>199.13</ele>
        <time>2021-03-26T08:23:14Z</time>
      </trkpt>
      <trkpt lat="46.68048" lon="-0.7031">
        <ele>199.13</ele>
        <time>2021-03-26T08:23:30Z</time>
      </trkpt>
      <trkpt lat="46.68047" lon="-0.70311">
        <ele>199.13</ele>
        <time>2021-03-26T08:23:37Z</time>
      </trkpt>
      <trkpt lat="46.68046" lon="-0.70311">
        <ele>199.13</ele>
        <time>2021-03-26T08:23:45Z</time>
      </trkpt>
      <trkpt lat="46.68047" lon="-0.70311">
        <ele>200.09</ele>
        <time>2021-03-26T08:23:56Z</time>
      </trkpt>
      <trkpt lat="46.68046" lon="-0.70311">
        <ele>200.09</ele>
        <time>2021-03-26T08:24:08Z</time>
      </trkpt>
      <trkpt lat="46.68046" lon="-0.70312">
        <ele>200.09</ele>
        <time>2021-03-26T08:24:20Z</time>
      </trkpt>
      <trkpt lat="46.68046" lon="-0.70312">
        <ele>200.09</ele>
        <time>2021-03-26T08:24:37Z</time>
      </trkpt>
      <trkpt lat="46.68045" lon="-0.70313">
        <ele>200.09</ele>
        <time>2021-03-26T08:24:54Z</time>
      </trkpt>
      <trkpt lat="46.68046" lon="-0.70312">
        <ele>200.09</ele>
        <time>2021-03-26T08:25:01Z</time>
      </trkpt>
      <trkpt lat="46.68045" lon="-0.70312">
        <ele>200.09</ele>
        <time>2021-03-26T08:25:11Z</time>
      </trkpt>
      <trkpt lat="46.68045" lon="-0.70313">
        <ele>200.09</ele>
        <time>2021-03-26T08:25:18Z</time>
      </trkpt>
      <trkpt lat="46.68046" lon="-0.70312">
        <ele>200.09</ele>
        <time>2021-03-26T08:25:29Z</time>
      </trkpt>
      <trkpt lat="46.68046" lon="-0.70313">
        <ele>200.09</ele>
        <time>2021-03-26T08:25:40Z</time>
      </trkpt>
      <trkpt lat="46.68047" lon="-0.70313">
        <ele>200.09</ele>
        <time>2021-03-26T08:25:57Z</time>
      </trkpt>
      <trkpt lat="46.68046" lon="-0.70312">
        <ele>200.09</ele>
        <time>2021-03-26T08:26:09Z</time>
      </trkpt>
      <trkpt lat="46.68046" lon="-0.70311">
        <ele>200.09</ele>
        <time>2021-03-26T08:26:20Z</time>
      </trkpt>
      <trkpt lat="46.68046" lon="-0.70312">
        <ele>200.09</ele>
        <time>2021-03-26T08:26:33Z</time>
      </trkpt>
      <trkpt lat="46.68045" lon="-0.70312">
        <ele>200.09</ele>
        <time>2021-03-26T08:26:45Z</time>
      </trkpt>
      <trkpt lat="46.68045" lon="-0.70315">
        <ele>200.09</ele>
        <time>2021-03-26T08:26:55Z</time>
      </trkpt>
      <trkpt lat="46.6804" lon="-0.70319">
        <ele>200.09</ele>
        <time>2021-03-26T08:27:03Z</time>
      </trkpt>
      <trkpt lat="46.68029" lon="-0.70329">
        <ele>200.09</ele>
        <time>2021-03-26T08:27:14Z</time>
      </trkpt>
      <trkpt lat="46.68019" lon="-0.70341">
        <ele>200.57</ele>
        <time>2021-03-26T08:27:24Z</time>
      </trkpt>
      <trkpt lat="46.68007" lon="-0.70353">
        <ele>201.05</ele>
        <time>2021-03-26T08:27:35Z</time>
      </trkpt>
      <trkpt lat="46.67998" lon="-0.70363">
        <ele>201.53</ele>
        <time>2021-03-26T08:27:44Z</time>
      </trkpt>
      <trkpt lat="46.67988" lon="-0.70372">
        <ele>200.09</ele>
        <time>2021-03-26T08:27:54Z</time>
      </trkpt>
      <trkpt lat="46.67977" lon="-0.70382">
        <ele>200.09</ele>
        <time>2021-03-26T08:28:02Z</time>
      </trkpt>
      <trkpt lat="46.67969" lon="-0.70389">
        <ele>199.13</ele>
        <time>2021-03-26T08:28:09Z</time>
      </trkpt>
      <trkpt lat="46.6796" lon="-0.70397">
        <ele>199.13</ele>
        <time>2021-03-26T08:28:17Z</time>
      </trkpt>
      <trkpt lat="46.67952" lon="-0.70403">
        <ele>198.65</ele>
        <time>2021-03-26T08:28:27Z</time>
      </trkpt>
      <trkpt lat="46.67946" lon="-0.70407">
        <ele>197.21</ele>
        <time>2021-03-26T08:28:35Z</time>
      </trkpt>
      <trkpt lat="46.6794" lon="-0.7041">
        <ele>196.73</ele>
        <time>2021-03-26T08:28:42Z</time>
      </trkpt>
      <trkpt lat="46.67935" lon="-0.70411">
        <ele>196.25</ele>
        <time>2021-03-26T08:28:46Z</time>
      </trkpt>
      <trkpt lat="46.67934" lon="-0.70412">
        <ele>196.25</ele>
        <time>2021-03-26T08:28:47Z</time>
      </trkpt>
      <trkpt lat="46.67917" lon="-0.70419">
        <ele>195.77</ele>
        <time>2021-03-26T08:28:56Z</time>
      </trkpt>
      <trkpt lat="46.67914" lon="-0.70418">
        <ele>195.28</ele>
        <time>2021-03-26T08:29:02Z</time>
      </trkpt>
      <trkpt lat="46.67904" lon="-0.70422">
        <ele>194.8</ele>
        <time>2021-03-26T08:29:10Z</time>
      </trkpt>
      <trkpt lat="46.67901" lon="-0.70422">
        <ele>193.84</ele>
        <time>2021-03-26T08:29:13Z</time>
      </trkpt>
      <trkpt lat="46.6789" lon="-0.70423">
        <ele>193.36</ele>
        <time>2021-03-26T08:29:23Z</time>
      </trkpt>
      <trkpt lat="46.67875" lon="-0.70425">
        <ele>192.4</ele>
        <time>2021-03-26T08:29:33Z</time>
      </trkpt>
      <trkpt lat="46.67857" lon="-0.70427">
        <ele>190.96</ele>
        <time>2021-03-26T08:29:44Z</time>
      </trkpt>
      <trkpt lat="46.6784" lon="-0.70428">
        <ele>190</ele>
        <time>2021-03-26T08:29:55Z</time>
      </trkpt>
      <trkpt lat="46.6783" lon="-0.70428">
        <ele>189.04</ele>
        <time>2021-03-26T08:30:03Z</time>
      </trkpt>
      <trkpt lat="46.67821" lon="-0.70428">
        <ele>188.56</ele>
        <time>2021-03-26T08:30:13Z</time>
      </trkpt>
      <trkpt lat="46.67812" lon="-0.70428">
        <ele>187.11</ele>
        <time>2021-03-26T08:30:20Z</time>
      </trkpt>
      <trkpt lat="46.67802" lon="-0.70429">
        <ele>186.63</ele>
        <time>2021-03-26T08:30:26Z</time>
      </trkpt>
      <trkpt lat="46.67786" lon="-0.70427">
        <ele>186.15</ele>
        <time>2021-03-26T08:30:35Z</time>
      </trkpt>
      <trkpt lat="46.67773" lon="-0.70421">
        <ele>185.19</ele>
        <time>2021-03-26T08:30:46Z</time>
      </trkpt>
      <trkpt lat="46.67773" lon="-0.7042">
        <ele>185.19</ele>
        <time>2021-03-26T08:30:47Z</time>
      </trkpt>
      <trkpt lat="46.67772" lon="-0.7042">
        <ele>185.19</ele>
        <time>2021-03-26T08:30:48Z</time>
      </trkpt>
      <trkpt lat="46.67766" lon="-0.70417">
        <ele>184.71</ele>
        <time>2021-03-26T08:30:56Z</time>
      </trkpt>
      <trkpt lat="46.67763" lon="-0.7042">
        <ele>184.23</ele>
        <time>2021-03-26T08:31:11Z</time>
      </trkpt>
      <trkpt lat="46.6776" lon="-0.70423">
        <ele>184.23</ele>
        <time>2021-03-26T08:31:18Z</time>
      </trkpt>
      <trkpt lat="46.67756" lon="-0.70434">
        <ele>182.31</ele>
        <time>2021-03-26T08:31:29Z</time>
      </trkpt>
      <trkpt lat="46.67753" lon="-0.70445">
        <ele>180.87</ele>
        <time>2021-03-26T08:31:36Z</time>
      </trkpt>
      <trkpt lat="46.6775" lon="-0.7046">
        <ele>179.9</ele>
        <time>2021-03-26T08:31:43Z</time>
      </trkpt>
      <trkpt lat="46.67744" lon="-0.70474">
        <ele>178.94</ele>
        <time>2021-03-26T08:31:50Z</time>
      </trkpt>
      <trkpt lat="46.67742" lon="-0.70483">
        <ele>177.98</ele>
        <time>2021-03-26T08:31:57Z</time>
      </trkpt>
      <trkpt lat="46.67743" lon="-0.70485">
        <ele>177.5</ele>
        <time>2021-03-26T08:32:11Z</time>
      </trkpt>
      <trkpt lat="46.67743" lon="-0.70487">
        <ele>177.5</ele>
        <time>2021-03-26T08:32:12Z</time>
      </trkpt>
      <trkpt lat="46.67744" lon="-0.70488">
        <ele>177.5</ele>
        <time>2021-03-26T08:32:13Z</time>
      </trkpt>
      <trkpt lat="46.67744" lon="-0.7049">
        <ele>177.5</ele>
        <time>2021-03-26T08:32:14Z</time>
      </trkpt>
      <trkpt lat="46.67745" lon="-0.70492">
        <ele>177.5</ele>
        <time>2021-03-26T08:32:15Z</time>
      </trkpt>
      <trkpt lat="46.67746" lon="-0.70494">
        <ele>177.02</ele>
        <time>2021-03-26T08:32:16Z</time>
      </trkpt>
      <trkpt lat="46.67746" lon="-0.70495">
        <ele>177.02</ele>
        <time>2021-03-26T08:32:19Z</time>
      </trkpt>
      <trkpt lat="46.67747" lon="-0.70497">
        <ele>177.02</ele>
        <time>2021-03-26T08:32:20Z</time>
      </trkpt>
      <trkpt lat="46.67748" lon="-0.70498">
        <ele>176.54</ele>
        <time>2021-03-26T08:32:26Z</time>
      </trkpt>
      <trkpt lat="46.67748" lon="-0.70498">
        <ele>176.54</ele>
        <time>2021-03-26T08:32:38Z</time>
      </trkpt>
      <trkpt lat="46.6775" lon="-0.70498">
        <ele>176.54</ele>
        <time>2021-03-26T08:32:47Z</time>
      </trkpt>
      <trkpt lat="46.67753" lon="-0.70502">
        <ele>176.54</ele>
        <time>2021-03-26T08:32:52Z</time>
      </trkpt>
      <trkpt lat="46.67754" lon="-0.70502">
        <ele>176.54</ele>
        <time>2021-03-26T08:32:53Z</time>
      </trkpt>
      <trkpt lat="46.67755" lon="-0.70503">
        <ele>176.54</ele>
        <time>2021-03-26T08:32:54Z</time>
      </trkpt>
      <trkpt lat="46.67756" lon="-0.70504">
        <ele>176.54</ele>
        <time>2021-03-26T08:32:55Z</time>
      </trkpt>
      <trkpt lat="46.67758" lon="-0.70504">
        <ele>176.54</ele>
        <time>2021-03-26T08:32:56Z</time>
      </trkpt>
      <trkpt lat="46.67763" lon="-0.70509">
        <ele>176.54</ele>
        <time>2021-03-26T08:33:03Z</time>
      </trkpt>
      <trkpt lat="46.67774" lon="-0.70515">
        <ele>176.54</ele>
        <time>2021-03-26T08:33:11Z</time>
      </trkpt>
      <trkpt lat="46.67783" lon="-0.70523">
        <ele>176.06</ele>
        <time>2021-03-26T08:33:21Z</time>
      </trkpt>
      <trkpt lat="46.67794" lon="-0.70532">
        <ele>176.06</ele>
        <time>2021-03-26T08:33:31Z</time>
      </trkpt>
      <trkpt lat="46.67797" lon="-0.70537">
        <ele>176.54</ele>
        <time>2021-03-26T08:33:35Z</time>
      </trkpt>
      <trkpt lat="46.67798" lon="-0.70539">
        <ele>176.54</ele>
        <time>2021-03-26T08:33:36Z</time>
      </trkpt>
      <trkpt lat="46.67799" lon="-0.70541">
        <ele>176.54</ele>
        <time>2021-03-26T08:33:37Z</time>
      </trkpt>
      <trkpt lat="46.67808" lon="-0.70555">
        <ele>176.54</ele>
        <time>2021-03-26T08:33:46Z</time>
      </trkpt>
      <trkpt lat="46.67814" lon="-0.70567">
        <ele>176.54</ele>
        <time>2021-03-26T08:33:54Z</time>
      </trkpt>
      <trkpt lat="46.67818" lon="-0.70578">
        <ele>176.54</ele>
        <time>2021-03-26T08:34:01Z</time>
      </trkpt>
      <trkpt lat="46.67818" lon="-0.70579">
        <ele>176.54</ele>
        <time>2021-03-26T08:34:02Z</time>
      </trkpt>
      <trkpt lat="46.67821" lon="-0.70595">
        <ele>176.54</ele>
        <time>2021-03-26T08:34:11Z</time>
      </trkpt>
      <trkpt lat="46.67824" lon="-0.70609">
        <ele>176.54</ele>
        <time>2021-03-26T08:34:18Z</time>
      </trkpt>
      <trkpt lat="46.67827" lon="-0.70621">
        <ele>176.54</ele>
        <time>2021-03-26T08:34:27Z</time>
      </trkpt>
      <trkpt lat="46.67828" lon="-0.70628">
        <ele>176.54</ele>
        <time>2021-03-26T08:34:30Z</time>
      </trkpt>
      <trkpt lat="46.67829" lon="-0.70631">
        <ele>177.98</ele>
        <time>2021-03-26T08:34:31Z</time>
      </trkpt>
      <trkpt lat="46.67829" lon="-0.70633">
        <ele>177.98</ele>
        <time>2021-03-26T08:34:32Z</time>
      </trkpt>
      <trkpt lat="46.67829" lon="-0.70636">
        <ele>177.98</ele>
        <time>2021-03-26T08:34:33Z</time>
      </trkpt>
      <trkpt lat="46.6783" lon="-0.70638">
        <ele>177.98</ele>
        <time>2021-03-26T08:34:34Z</time>
      </trkpt>
      <trkpt lat="46.67833" lon="-0.70653">
        <ele>177.98</ele>
        <time>2021-03-26T08:34:43Z</time>
      </trkpt>
      <trkpt lat="46.67836" lon="-0.70673">
        <ele>177.98</ele>
        <time>2021-03-26T08:34:52Z</time>
      </trkpt>
      <trkpt lat="46.67839" lon="-0.70685">
        <ele>177.98</ele>
        <time>2021-03-26T08:35:00Z</time>
      </trkpt>
      <trkpt lat="46.67841" lon="-0.70705">
        <ele>178.46</ele>
        <time>2021-03-26T08:35:09Z</time>
      </trkpt>
      <trkpt lat="46.67844" lon="-0.7072">
        <ele>178.94</ele>
        <time>2021-03-26T08:35:18Z</time>
      </trkpt>
      <trkpt lat="46.67847" lon="-0.70736">
        <ele>178.94</ele>
        <time>2021-03-26T08:35:27Z</time>
      </trkpt>
      <trkpt lat="46.67851" lon="-0.70759">
        <ele>179.9</ele>
        <time>2021-03-26T08:35:38Z</time>
      </trkpt>
      <trkpt lat="46.67854" lon="-0.70777">
        <ele>180.38</ele>
        <time>2021-03-26T08:35:48Z</time>
      </trkpt>
      <trkpt lat="46.67857" lon="-0.70799">
        <ele>180.38</ele>
        <time>2021-03-26T08:35:59Z</time>
      </trkpt>
      <trkpt lat="46.6786" lon="-0.70814">
        <ele>181.35</ele>
        <time>2021-03-26T08:36:08Z</time>
      </trkpt>
      <trkpt lat="46.67863" lon="-0.7083">
        <ele>181.35</ele>
        <time>2021-03-26T08:36:16Z</time>
      </trkpt>
      <trkpt lat="46.67866" lon="-0.70841">
        <ele>182.31</ele>
        <time>2021-03-26T08:36:24Z</time>
      </trkpt>
      <trkpt lat="46.67867" lon="-0.70844">
        <ele>182.79</ele>
        <time>2021-03-26T08:36:30Z</time>
      </trkpt>
      <trkpt lat="46.67865" lon="-0.70845">
        <ele>183.27</ele>
        <time>2021-03-26T08:36:39Z</time>
      </trkpt>
      <trkpt lat="46.67864" lon="-0.70845">
        <ele>183.27</ele>
        <time>2021-03-26T08:36:54Z</time>
      </trkpt>
      <trkpt lat="46.67866" lon="-0.70845">
        <ele>183.27</ele>
        <time>2021-03-26T08:37:01Z</time>
      </trkpt>
      <trkpt lat="46.67869" lon="-0.70844">
        <ele>183.27</ele>
        <time>2021-03-26T08:37:09Z</time>
      </trkpt>
      <trkpt lat="46.67871" lon="-0.70845">
        <ele>183.27</ele>
        <time>2021-03-26T08:37:15Z</time>
      </trkpt>
      <trkpt lat="46.67874" lon="-0.70847">
        <ele>183.27</ele>
        <time>2021-03-26T08:37:19Z</time>
      </trkpt>
      <trkpt lat="46.67875" lon="-0.70847">
        <ele>183.27</ele>
        <time>2021-03-26T08:37:20Z</time>
      </trkpt>
      <trkpt lat="46.67876" lon="-0.70847">
        <ele>183.27</ele>
        <time>2021-03-26T08:37:21Z</time>
      </trkpt>
      <trkpt lat="46.67879" lon="-0.70848">
        <ele>184.23</ele>
        <time>2021-03-26T08:37:25Z</time>
      </trkpt>
      <trkpt lat="46.67881" lon="-0.70848">
        <ele>184.23</ele>
        <time>2021-03-26T08:37:26Z</time>
      </trkpt>
      <trkpt lat="46.67882" lon="-0.70848">
        <ele>184.23</ele>
        <time>2021-03-26T08:37:27Z</time>
      </trkpt>
      <trkpt lat="46.67892" lon="-0.70845">
        <ele>184.71</ele>
        <time>2021-03-26T08:37:36Z</time>
      </trkpt>
      <trkpt lat="46.67903" lon="-0.70843">
        <ele>185.19</ele>
        <time>2021-03-26T08:37:46Z</time>
      </trkpt>
      <trkpt lat="46.67915" lon="-0.70839">
        <ele>186.15</ele>
        <time>2021-03-26T08:37:54Z</time>
      </trkpt>
      <trkpt lat="46.67926" lon="-0.70835">
        <ele>186.15</ele>
        <time>2021-03-26T08:38:04Z</time>
      </trkpt>
      <trkpt lat="46.67938" lon="-0.70831">
        <ele>186.63</ele>
        <time>2021-03-26T08:38:13Z</time>
      </trkpt>
      <trkpt lat="46.67952" lon="-0.70828">
        <ele>187.59</ele>
        <time>2021-03-26T08:38:24Z</time>
      </trkpt>
      <trkpt lat="46.67963" lon="-0.70826">
        <ele>188.56</ele>
        <time>2021-03-26T08:38:33Z</time>
      </trkpt>
      <trkpt lat="46.67975" lon="-0.70823">
        <ele>189.52</ele>
        <time>2021-03-26T08:38:42Z</time>
      </trkpt>
      <trkpt lat="46.67985" lon="-0.7082">
        <ele>190.48</ele>
        <time>2021-03-26T08:38:50Z</time>
      </trkpt>
      <trkpt lat="46.67993" lon="-0.70818">
        <ele>190.48</ele>
        <time>2021-03-26T08:38:58Z</time>
      </trkpt>
      <trkpt lat="46.68007" lon="-0.70815">
        <ele>190.48</ele>
        <time>2021-03-26T08:39:07Z</time>
      </trkpt>
      <trkpt lat="46.68019" lon="-0.7081">
        <ele>190.48</ele>
        <time>2021-03-26T08:39:17Z</time>
      </trkpt>
      <trkpt lat="46.68032" lon="-0.70808">
        <ele>190.48</ele>
        <time>2021-03-26T08:39:28Z</time>
      </trkpt>
      <trkpt lat="46.6805" lon="-0.70802">
        <ele>190.48</ele>
        <time>2021-03-26T08:39:37Z</time>
      </trkpt>
      <trkpt lat="46.68056" lon="-0.708">
        <ele>190.48</ele>
        <time>2021-03-26T08:39:44Z</time>
      </trkpt>
      <trkpt lat="46.68062" lon="-0.70798">
        <ele>190.48</ele>
        <time>2021-03-26T08:39:49Z</time>
      </trkpt>
      <trkpt lat="46.68076" lon="-0.70793">
        <ele>190.48</ele>
        <time>2021-03-26T08:39:58Z</time>
      </trkpt>
      <trkpt lat="46.68083" lon="-0.7079">
        <ele>190.48</ele>
        <time>2021-03-26T08:40:07Z</time>
      </trkpt>
      <trkpt lat="46.68096" lon="-0.70785">
        <ele>190.48</ele>
        <time>2021-03-26T08:40:15Z</time>
      </trkpt>
      <trkpt lat="46.6811" lon="-0.70782">
        <ele>190.48</ele>
        <time>2021-03-26T08:40:26Z</time>
      </trkpt>
      <trkpt lat="46.68123" lon="-0.7078">
        <ele>190.48</ele>
        <time>2021-03-26T08:40:37Z</time>
      </trkpt>
      <trkpt lat="46.68143" lon="-0.70779">
        <ele>190.48</ele>
        <time>2021-03-26T08:40:48Z</time>
      </trkpt>
      <trkpt lat="46.68156" lon="-0.7078">
        <ele>190.48</ele>
        <time>2021-03-26T08:40:59Z</time>
      </trkpt>
      <trkpt lat="46.68168" lon="-0.70785">
        <ele>190.48</ele>
        <time>2021-03-26T08:41:10Z</time>
      </trkpt>
      <trkpt lat="46.68181" lon="-0.7079">
        <ele>190.48</ele>
        <time>2021-03-26T08:41:18Z</time>
      </trkpt>
      <trkpt lat="46.68191" lon="-0.70794">
        <ele>190.48</ele>
        <time>2021-03-26T08:41:27Z</time>
      </trkpt>
      <trkpt lat="46.68202" lon="-0.70798">
        <ele>190.48</ele>
        <time>2021-03-26T08:41:35Z</time>
      </trkpt>
      <trkpt lat="46.68212" lon="-0.708">
        <ele>190.48</ele>
        <time>2021-03-26T08:41:43Z</time>
      </trkpt>
      <trkpt lat="46.68222" lon="-0.70803">
        <ele>190.96</ele>
        <time>2021-03-26T08:41:51Z</time>
      </trkpt>
      <trkpt lat="46.68232" lon="-0.70807">
        <ele>190.96</ele>
        <time>2021-03-26T08:41:59Z</time>
      </trkpt>
      <trkpt lat="46.68232" lon="-0.70807">
        <ele>191.44</ele>
        <time>2021-03-26T08:42:05Z</time>
      </trkpt>
      <trkpt lat="46.68231" lon="-0.70807">
        <ele>191.44</ele>
        <time>2021-03-26T08:42:15Z</time>
      </trkpt>
      <trkpt lat="46.68231" lon="-0.70808">
        <ele>191.44</ele>
        <time>2021-03-26T08:42:25Z</time>
      </trkpt>
      <trkpt lat="46.68231" lon="-0.70807">
        <ele>191.92</ele>
        <time>2021-03-26T08:42:32Z</time>
      </trkpt>
      <trkpt lat="46.6823" lon="-0.70808">
        <ele>191.92</ele>
        <time>2021-03-26T08:42:42Z</time>
      </trkpt>
      <trkpt lat="46.6823" lon="-0.70807">
        <ele>191.92</ele>
        <time>2021-03-26T08:42:52Z</time>
      </trkpt>
      <trkpt lat="46.6823" lon="-0.70807">
        <ele>191.92</ele>
        <time>2021-03-26T08:42:58Z</time>
      </trkpt>
      <trkpt lat="46.68231" lon="-0.70806">
        <ele>191.92</ele>
        <time>2021-03-26T08:43:04Z</time>
      </trkpt>
      <trkpt lat="46.68231" lon="-0.70807">
        <ele>191.92</ele>
        <time>2021-03-26T08:43:10Z</time>
      </trkpt>
      <trkpt lat="46.68235" lon="-0.70808">
        <ele>191.92</ele>
        <time>2021-03-26T08:43:15Z</time>
      </trkpt>
      <trkpt lat="46.68237" lon="-0.70809">
        <ele>192.4</ele>
        <time>2021-03-26T08:43:21Z</time>
      </trkpt>
      <trkpt lat="46.68237" lon="-0.70809">
        <ele>192.4</ele>
        <time>2021-03-26T08:43:25Z</time>
      </trkpt>
      <trkpt lat="46.68236" lon="-0.70809">
        <ele>192.4</ele>
        <time>2021-03-26T08:43:26Z</time>
      </trkpt>
      <trkpt lat="46.68234" lon="-0.70807">
        <ele>192.4</ele>
        <time>2021-03-26T08:43:32Z</time>
      </trkpt>
      <trkpt lat="46.68233" lon="-0.70806">
        <ele>192.4</ele>
        <time>2021-03-26T08:43:33Z</time>
      </trkpt>
      <trkpt lat="46.68233" lon="-0.70804">
        <ele>190.96</ele>
        <time>2021-03-26T08:43:37Z</time>
      </trkpt>
      <trkpt lat="46.68233" lon="-0.70807">
        <ele>190.96</ele>
        <time>2021-03-26T08:43:43Z</time>
      </trkpt>
      <trkpt lat="46.68233" lon="-0.70808">
        <ele>190.96</ele>
        <time>2021-03-26T08:43:44Z</time>
      </trkpt>
      <trkpt lat="46.68235" lon="-0.70809">
        <ele>190.96</ele>
        <time>2021-03-26T08:43:50Z</time>
      </trkpt>
      <trkpt lat="46.68235" lon="-0.70808">
        <ele>190.96</ele>
        <time>2021-03-26T08:43:56Z</time>
      </trkpt>
      <trkpt lat="46.68238" lon="-0.70809">
        <ele>190.96</ele>
        <time>2021-03-26T08:44:02Z</time>
      </trkpt>
      <trkpt lat="46.68239" lon="-0.70809">
        <ele>190.96</ele>
        <time>2021-03-26T08:44:03Z</time>
      </trkpt>
      <trkpt lat="46.6824" lon="-0.70809">
        <ele>190.96</ele>
        <time>2021-03-26T08:44:04Z</time>
      </trkpt>
      <trkpt lat="46.68246" lon="-0.70811">
        <ele>190.96</ele>
        <time>2021-03-26T08:44:10Z</time>
      </trkpt>
      <trkpt lat="46.68256" lon="-0.70815">
        <ele>190.96</ele>
        <time>2021-03-26T08:44:19Z</time>
      </trkpt>
      <trkpt lat="46.68267" lon="-0.70818">
        <ele>191.44</ele>
        <time>2021-03-26T08:44:27Z</time>
      </trkpt>
      <trkpt lat="46.68274" lon="-0.70821">
        <ele>192.4</ele>
        <time>2021-03-26T08:44:34Z</time>
      </trkpt>
      <trkpt lat="46.68282" lon="-0.70824">
        <ele>192.88</ele>
        <time>2021-03-26T08:44:41Z</time>
      </trkpt>
      <trkpt lat="46.68283" lon="-0.70825">
        <ele>193.36</ele>
        <time>2021-03-26T08:44:56Z</time>
      </trkpt>
      <trkpt lat="46.68288" lon="-0.70825">
        <ele>193.36</ele>
        <time>2021-03-26T08:45:04Z</time>
      </trkpt>
      <trkpt lat="46.68295" lon="-0.70828">
        <ele>193.36</ele>
        <time>2021-03-26T08:45:12Z</time>
      </trkpt>
      <trkpt lat="46.68305" lon="-0.70832">
        <ele>193.36</ele>
        <time>2021-03-26T08:45:22Z</time>
      </trkpt>
      <trkpt lat="46.6832" lon="-0.70839">
        <ele>193.84</ele>
        <time>2021-03-26T08:45:31Z</time>
      </trkpt>
      <trkpt lat="46.68332" lon="-0.70845">
        <ele>194.32</ele>
        <time>2021-03-26T08:45:42Z</time>
      </trkpt>
      <trkpt lat="46.68343" lon="-0.70852">
        <ele>195.28</ele>
        <time>2021-03-26T08:45:52Z</time>
      </trkpt>
      <trkpt lat="46.68353" lon="-0.70857">
        <ele>195.28</ele>
        <time>2021-03-26T08:46:00Z</time>
      </trkpt>
      <trkpt lat="46.68361" lon="-0.70865">
        <ele>195.77</ele>
        <time>2021-03-26T08:46:08Z</time>
      </trkpt>
      <trkpt lat="46.68363" lon="-0.70866">
        <ele>195.77</ele>
        <time>2021-03-26T08:46:09Z</time>
      </trkpt>
      <trkpt lat="46.68365" lon="-0.70868">
        <ele>195.77</ele>
        <time>2021-03-26T08:46:10Z</time>
      </trkpt>
      <trkpt lat="46.68367" lon="-0.70869">
        <ele>195.77</ele>
        <time>2021-03-26T08:46:11Z</time>
      </trkpt>
      <trkpt lat="46.68369" lon="-0.70871">
        <ele>195.77</ele>
        <time>2021-03-26T08:46:12Z</time>
      </trkpt>
      <trkpt lat="46.68371" lon="-0.70873">
        <ele>195.77</ele>
        <time>2021-03-26T08:46:13Z</time>
      </trkpt>
      <trkpt lat="46.68381" lon="-0.70878">
        <ele>196.25</ele>
        <time>2021-03-26T08:46:22Z</time>
      </trkpt>
      <trkpt lat="46.68392" lon="-0.70885">
        <ele>196.25</ele>
        <time>2021-03-26T08:46:31Z</time>
      </trkpt>
      <trkpt lat="46.68403" lon="-0.7089">
        <ele>196.73</ele>
        <time>2021-03-26T08:46:40Z</time>
      </trkpt>
      <trkpt lat="46.68414" lon="-0.70896">
        <ele>197.21</ele>
        <time>2021-03-26T08:46:49Z</time>
      </trkpt>
      <trkpt lat="46.68427" lon="-0.709">
        <ele>197.69</ele>
        <time>2021-03-26T08:46:59Z</time>
      </trkpt>
      <trkpt lat="46.6844" lon="-0.70905">
        <ele>197.69</ele>
        <time>2021-03-26T08:47:08Z</time>
      </trkpt>
      <trkpt lat="46.68451" lon="-0.70906">
        <ele>198.17</ele>
        <time>2021-03-26T08:47:17Z</time>
      </trkpt>
      <trkpt lat="46.68465" lon="-0.70907">
        <ele>198.65</ele>
        <time>2021-03-26T08:47:27Z</time>
      </trkpt>
      <trkpt lat="46.68477" lon="-0.70909">
        <ele>198.65</ele>
        <time>2021-03-26T08:47:37Z</time>
      </trkpt>
      <trkpt lat="46.68489" lon="-0.70909">
        <ele>198.65</ele>
        <time>2021-03-26T08:47:46Z</time>
      </trkpt>
      <trkpt lat="46.68497" lon="-0.70908">
        <ele>199.61</ele>
        <time>2021-03-26T08:47:54Z</time>
      </trkpt>
      <trkpt lat="46.68508" lon="-0.70905">
        <ele>200.09</ele>
        <time>2021-03-26T08:48:03Z</time>
      </trkpt>
      <trkpt lat="46.68518" lon="-0.70902">
        <ele>200.57</ele>
        <time>2021-03-26T08:48:11Z</time>
      </trkpt>
      <trkpt lat="46.68527" lon="-0.70902">
        <ele>201.05</ele>
        <time>2021-03-26T08:48:19Z</time>
      </trkpt>
      <trkpt lat="46.6853" lon="-0.70902">
        <ele>201.05</ele>
        <time>2021-03-26T08:48:26Z</time>
      </trkpt>
      <trkpt lat="46.6853" lon="-0.70903">
        <ele>201.05</ele>
        <time>2021-03-26T08:48:32Z</time>
      </trkpt>
      <trkpt lat="46.68531" lon="-0.70904">
        <ele>201.05</ele>
        <time>2021-03-26T08:48:43Z</time>
      </trkpt>
      <trkpt lat="46.68531" lon="-0.70903">
        <ele>201.05</ele>
        <time>2021-03-26T08:48:52Z</time>
      </trkpt>
      <trkpt lat="46.6853" lon="-0.70903">
        <ele>201.53</ele>
        <time>2021-03-26T08:49:05Z</time>
      </trkpt>
      <trkpt lat="46.68533" lon="-0.70902">
        <ele>201.53</ele>
        <time>2021-03-26T08:49:23Z</time>
      </trkpt>
      <trkpt lat="46.68534" lon="-0.70903">
        <ele>201.53</ele>
        <time>2021-03-26T08:49:34Z</time>
      </trkpt>
      <trkpt lat="46.68534" lon="-0.70907">
        <ele>201.53</ele>
        <time>2021-03-26T08:49:45Z</time>
      </trkpt>
      <trkpt lat="46.68534" lon="-0.70909">
        <ele>201.53</ele>
        <time>2021-03-26T08:49:46Z</time>
      </trkpt>
      <trkpt lat="46.68535" lon="-0.7091">
        <ele>201.53</ele>
        <time>2021-03-26T08:49:47Z</time>
      </trkpt>
      <trkpt lat="46.68535" lon="-0.70912">
        <ele>201.53</ele>
        <time>2021-03-26T08:49:53Z</time>
      </trkpt>
      <trkpt lat="46.68535" lon="-0.70911">
        <ele>201.53</ele>
        <time>2021-03-26T08:49:59Z</time>
      </trkpt>
      <trkpt lat="46.68535" lon="-0.70912">
        <ele>201.53</ele>
        <time>2021-03-26T08:50:06Z</time>
      </trkpt>
      <trkpt lat="46.68534" lon="-0.70912">
        <ele>201.53</ele>
        <time>2021-03-26T08:50:15Z</time>
      </trkpt>
      <trkpt lat="46.68534" lon="-0.70913">
        <ele>201.53</ele>
        <time>2021-03-26T08:50:24Z</time>
      </trkpt>
      <trkpt lat="46.68533" lon="-0.70913">
        <ele>201.53</ele>
        <time>2021-03-26T08:50:32Z</time>
      </trkpt>
      <trkpt lat="46.68534" lon="-0.70915">
        <ele>201.53</ele>
        <time>2021-03-26T08:50:38Z</time>
      </trkpt>
      <trkpt lat="46.68534" lon="-0.70918">
        <ele>201.53</ele>
        <time>2021-03-26T08:50:41Z</time>
      </trkpt>
      <trkpt lat="46.68535" lon="-0.70919">
        <ele>201.53</ele>
        <time>2021-03-26T08:50:42Z</time>
      </trkpt>
      <trkpt lat="46.68538" lon="-0.7093">
        <ele>202.01</ele>
        <time>2021-03-26T08:50:49Z</time>
      </trkpt>
      <trkpt lat="46.68539" lon="-0.70935">
        <ele>202.01</ele>
        <time>2021-03-26T08:50:53Z</time>
      </trkpt>
      <trkpt lat="46.68539" lon="-0.70936">
        <ele>202.01</ele>
        <time>2021-03-26T08:50:54Z</time>
      </trkpt>
      <trkpt lat="46.68542" lon="-0.70947">
        <ele>203.46</ele>
        <time>2021-03-26T08:51:02Z</time>
      </trkpt>
      <trkpt lat="46.68543" lon="-0.70952">
        <ele>203.46</ele>
        <time>2021-03-26T08:51:09Z</time>
      </trkpt>
      <trkpt lat="46.68545" lon="-0.70958">
        <ele>203.46</ele>
        <time>2021-03-26T08:51:14Z</time>
      </trkpt>
      <trkpt lat="46.68547" lon="-0.70963">
        <ele>203.94</ele>
        <time>2021-03-26T08:51:18Z</time>
      </trkpt>
      <trkpt lat="46.68551" lon="-0.70979">
        <ele>204.9</ele>
        <time>2021-03-26T08:51:28Z</time>
      </trkpt>
      <trkpt lat="46.68553" lon="-0.70989">
        <ele>205.38</ele>
        <time>2021-03-26T08:51:34Z</time>
      </trkpt>
      <trkpt lat="46.68553" lon="-0.70991">
        <ele>206.82</ele>
        <time>2021-03-26T08:51:35Z</time>
      </trkpt>
      <trkpt lat="46.68554" lon="-0.70992">
        <ele>206.82</ele>
        <time>2021-03-26T08:51:36Z</time>
      </trkpt>
      <trkpt lat="46.68555" lon="-0.71001">
        <ele>207.3</ele>
        <time>2021-03-26T08:51:43Z</time>
      </trkpt>
      <trkpt lat="46.68554" lon="-0.71001">
        <ele>207.3</ele>
        <time>2021-03-26T08:51:52Z</time>
      </trkpt>
      <trkpt lat="46.68554" lon="-0.71002">
        <ele>206.82</ele>
        <time>2021-03-26T08:52:06Z</time>
      </trkpt>
      <trkpt lat="46.68554" lon="-0.71004">
        <ele>206.82</ele>
        <time>2021-03-26T08:52:13Z</time>
      </trkpt>
      <trkpt lat="46.68555" lon="-0.71005">
        <ele>206.82</ele>
        <time>2021-03-26T08:52:24Z</time>
      </trkpt>
      <trkpt lat="46.68556" lon="-0.71004">
        <ele>206.82</ele>
        <time>2021-03-26T08:52:31Z</time>
      </trkpt>
      <trkpt lat="46.68556" lon="-0.71004">
        <ele>206.82</ele>
        <time>2021-03-26T08:52:41Z</time>
      </trkpt>
      <trkpt lat="46.68556" lon="-0.71003">
        <ele>206.82</ele>
        <time>2021-03-26T08:52:51Z</time>
      </trkpt>
      <trkpt lat="46.68556" lon="-0.71005">
        <ele>206.82</ele>
        <time>2021-03-26T08:52:55Z</time>
      </trkpt>
      <trkpt lat="46.68556" lon="-0.71007">
        <ele>207.3</ele>
        <time>2021-03-26T08:52:56Z</time>
      </trkpt>
      <trkpt lat="46.68558" lon="-0.71016">
        <ele>207.3</ele>
        <time>2021-03-26T08:53:03Z</time>
      </trkpt>
      <trkpt lat="46.68557" lon="-0.71018">
        <ele>207.3</ele>
        <time>2021-03-26T08:53:10Z</time>
      </trkpt>
      <trkpt lat="46.68557" lon="-0.7102">
        <ele>207.3</ele>
        <time>2021-03-26T08:53:16Z</time>
      </trkpt>
      <trkpt lat="46.68556" lon="-0.7102">
        <ele>207.3</ele>
        <time>2021-03-26T08:53:21Z</time>
      </trkpt>
      <trkpt lat="46.68557" lon="-0.71021">
        <ele>207.3</ele>
        <time>2021-03-26T08:53:29Z</time>
      </trkpt>
      <trkpt lat="46.68557" lon="-0.7102">
        <ele>207.3</ele>
        <time>2021-03-26T08:53:40Z</time>
      </trkpt>
      <trkpt lat="46.68556" lon="-0.7102">
        <ele>207.3</ele>
        <time>2021-03-26T08:53:54Z</time>
      </trkpt>
      <trkpt lat="46.68556" lon="-0.71021">
        <ele>207.3</ele>
        <time>2021-03-26T08:53:59Z</time>
      </trkpt>
      <trkpt lat="46.68559" lon="-0.71027">
        <ele>207.3</ele>
        <time>2021-03-26T08:54:07Z</time>
      </trkpt>
      <trkpt lat="46.68561" lon="-0.71035">
        <ele>206.34</ele>
        <time>2021-03-26T08:54:13Z</time>
      </trkpt>
      <trkpt lat="46.68562" lon="-0.71037">
        <ele>205.86</ele>
        <time>2021-03-26T08:54:14Z</time>
      </trkpt>
      <trkpt lat="46.68565" lon="-0.71047">
        <ele>205.86</ele>
        <time>2021-03-26T08:54:22Z</time>
      </trkpt>
      <trkpt lat="46.68569" lon="-0.7106">
        <ele>205.86</ele>
        <time>2021-03-26T08:54:30Z</time>
      </trkpt>
      <trkpt lat="46.68574" lon="-0.71073">
        <ele>205.86</ele>
        <time>2021-03-26T08:54:40Z</time>
      </trkpt>
      <trkpt lat="46.68577" lon="-0.71081">
        <ele>205.86</ele>
        <time>2021-03-26T08:54:47Z</time>
      </trkpt>
      <trkpt lat="46.68581" lon="-0.7109">
        <ele>205.86</ele>
        <time>2021-03-26T08:54:54Z</time>
      </trkpt>
      <trkpt lat="46.68588" lon="-0.71104">
        <ele>205.86</ele>
        <time>2021-03-26T08:55:03Z</time>
      </trkpt>
      <trkpt lat="46.68591" lon="-0.71112">
        <ele>206.82</ele>
        <time>2021-03-26T08:55:08Z</time>
      </trkpt>
      <trkpt lat="46.68597" lon="-0.71122">
        <ele>206.82</ele>
        <time>2021-03-26T08:55:17Z</time>
      </trkpt>
      <trkpt lat="46.68605" lon="-0.71137">
        <ele>207.3</ele>
        <time>2021-03-26T08:55:26Z</time>
      </trkpt>
      <trkpt lat="46.68611" lon="-0.71148">
        <ele>207.78</ele>
        <time>2021-03-26T08:55:33Z</time>
      </trkpt>
      <trkpt lat="46.68618" lon="-0.71162">
        <ele>208.26</ele>
        <time>2021-03-26T08:55:43Z</time>
      </trkpt>
      <trkpt lat="46.68625" lon="-0.71173">
        <ele>208.74</ele>
        <time>2021-03-26T08:55:50Z</time>
      </trkpt>
      <trkpt lat="46.68634" lon="-0.71186">
        <ele>209.7</ele>
        <time>2021-03-26T08:55:58Z</time>
      </trkpt>
      <trkpt lat="46.6864" lon="-0.712">
        <ele>210.67</ele>
        <time>2021-03-26T08:56:07Z</time>
      </trkpt>
      <trkpt lat="46.68648" lon="-0.71216">
        <ele>211.15</ele>
        <time>2021-03-26T08:56:17Z</time>
      </trkpt>
      <trkpt lat="46.68651" lon="-0.71221">
        <ele>211.15</ele>
        <time>2021-03-26T08:56:24Z</time>
      </trkpt>
      <trkpt lat="46.68652" lon="-0.71227">
        <ele>211.63</ele>
        <time>2021-03-26T08:56:32Z</time>
      </trkpt>
      <trkpt lat="46.68654" lon="-0.7123">
        <ele>212.11</ele>
        <time>2021-03-26T08:56:43Z</time>
      </trkpt>
      <trkpt lat="46.68653" lon="-0.71232">
        <ele>212.11</ele>
        <time>2021-03-26T08:57:00Z</time>
      </trkpt>
      <trkpt lat="46.68654" lon="-0.71231">
        <ele>212.11</ele>
        <time>2021-03-26T08:57:11Z</time>
      </trkpt>
      <trkpt lat="46.68654" lon="-0.71231">
        <ele>212.11</ele>
        <time>2021-03-26T08:57:27Z</time>
      </trkpt>
      <trkpt lat="46.68655" lon="-0.71232">
        <ele>212.11</ele>
        <time>2021-03-26T08:57:41Z</time>
      </trkpt>
      <trkpt lat="46.68656" lon="-0.71233">
        <ele>212.11</ele>
        <time>2021-03-26T08:57:55Z</time>
      </trkpt>
      <trkpt lat="46.68656" lon="-0.71234">
        <ele>212.11</ele>
        <time>2021-03-26T08:58:02Z</time>
      </trkpt>
      <trkpt lat="46.68657" lon="-0.71236">
        <ele>212.11</ele>
        <time>2021-03-26T08:58:16Z</time>
      </trkpt>
      <trkpt lat="46.68657" lon="-0.71235">
        <ele>212.11</ele>
        <time>2021-03-26T08:58:32Z</time>
      </trkpt>
      <trkpt lat="46.68656" lon="-0.71235">
        <ele>212.11</ele>
        <time>2021-03-26T08:58:40Z</time>
      </trkpt>
      <trkpt lat="46.68656" lon="-0.71236">
        <ele>212.11</ele>
        <time>2021-03-26T08:58:48Z</time>
      </trkpt>
      <trkpt lat="46.68656" lon="-0.71237">
        <ele>212.11</ele>
        <time>2021-03-26T08:58:58Z</time>
      </trkpt>
      <trkpt lat="46.68658" lon="-0.71238">
        <ele>212.11</ele>
        <time>2021-03-26T08:59:07Z</time>
      </trkpt>
      <trkpt lat="46.68659" lon="-0.71238">
        <ele>212.11</ele>
        <time>2021-03-26T08:59:16Z</time>
      </trkpt>
      <trkpt lat="46.68658" lon="-0.71239">
        <ele>212.11</ele>
        <time>2021-03-26T08:59:24Z</time>
      </trkpt>
      <trkpt lat="46.68658" lon="-0.7124">
        <ele>212.11</ele>
        <time>2021-03-26T08:59:31Z</time>
      </trkpt>
      <trkpt lat="46.6866" lon="-0.71244">
        <ele>212.11</ele>
        <time>2021-03-26T08:59:41Z</time>
      </trkpt>
      <trkpt lat="46.68665" lon="-0.71253">
        <ele>212.11</ele>
        <time>2021-03-26T08:59:47Z</time>
      </trkpt>
      <trkpt lat="46.68669" lon="-0.71257">
        <ele>212.11</ele>
        <time>2021-03-26T08:59:54Z</time>
      </trkpt>
      <trkpt lat="46.68669" lon="-0.71258">
        <ele>211.63</ele>
        <time>2021-03-26T09:00:05Z</time>
      </trkpt>
      <trkpt lat="46.68671" lon="-0.71262">
        <ele>211.63</ele>
        <time>2021-03-26T09:00:11Z</time>
      </trkpt>
      <trkpt lat="46.68674" lon="-0.7127">
        <ele>210.67</ele>
        <time>2021-03-26T09:00:18Z</time>
      </trkpt>
      <trkpt lat="46.68676" lon="-0.71277">
        <ele>210.67</ele>
        <time>2021-03-26T09:00:24Z</time>
      </trkpt>
      <trkpt lat="46.68678" lon="-0.71284">
        <ele>210.19</ele>
        <time>2021-03-26T09:00:29Z</time>
      </trkpt>
      <trkpt lat="46.68681" lon="-0.71298">
        <ele>209.7</ele>
        <time>2021-03-26T09:00:36Z</time>
      </trkpt>
      <trkpt lat="46.68685" lon="-0.71312">
        <ele>209.22</ele>
        <time>2021-03-26T09:00:44Z</time>
      </trkpt>
      <trkpt lat="46.68687" lon="-0.71326">
        <ele>208.26</ele>
        <time>2021-03-26T09:00:53Z</time>
      </trkpt>
      <trkpt lat="46.68688" lon="-0.7134">
        <ele>207.3</ele>
        <time>2021-03-26T09:01:04Z</time>
      </trkpt>
      <trkpt lat="46.68688" lon="-0.71343">
        <ele>207.3</ele>
        <time>2021-03-26T09:01:06Z</time>
      </trkpt>
      <trkpt lat="46.68688" lon="-0.71351">
        <ele>207.3</ele>
        <time>2021-03-26T09:01:10Z</time>
      </trkpt>
      <trkpt lat="46.68691" lon="-0.71371">
        <ele>206.82</ele>
        <time>2021-03-26T09:01:21Z</time>
      </trkpt>
      <trkpt lat="46.68692" lon="-0.71388">
        <ele>206.34</ele>
        <time>2021-03-26T09:01:28Z</time>
      </trkpt>
      <trkpt lat="46.68693" lon="-0.71405">
        <ele>206.34</ele>
        <time>2021-03-26T09:01:37Z</time>
      </trkpt>
      <trkpt lat="46.68694" lon="-0.71431">
        <ele>205.86</ele>
        <time>2021-03-26T09:01:47Z</time>
      </trkpt>
      <trkpt lat="46.68692" lon="-0.71442">
        <ele>205.86</ele>
        <time>2021-03-26T09:01:56Z</time>
      </trkpt>
      <trkpt lat="46.68686" lon="-0.71462">
        <ele>206.34</ele>
        <time>2021-03-26T09:02:05Z</time>
      </trkpt>
      <trkpt lat="46.68684" lon="-0.71482">
        <ele>205.86</ele>
        <time>2021-03-26T09:02:13Z</time>
      </trkpt>
      <trkpt lat="46.68682" lon="-0.71494">
        <ele>205.86</ele>
        <time>2021-03-26T09:02:22Z</time>
      </trkpt>
      <trkpt lat="46.68679" lon="-0.71508">
        <ele>205.38</ele>
        <time>2021-03-26T09:02:30Z</time>
      </trkpt>
      <trkpt lat="46.68677" lon="-0.71527">
        <ele>205.38</ele>
        <time>2021-03-26T09:02:39Z</time>
      </trkpt>
      <trkpt lat="46.68675" lon="-0.71547">
        <ele>205.38</ele>
        <time>2021-03-26T09:02:48Z</time>
      </trkpt>
      <trkpt lat="46.68673" lon="-0.71564">
        <ele>204.9</ele>
        <time>2021-03-26T09:02:58Z</time>
      </trkpt>
      <trkpt lat="46.68672" lon="-0.71583">
        <ele>204.9</ele>
        <time>2021-03-26T09:03:07Z</time>
      </trkpt>
      <trkpt lat="46.68671" lon="-0.71591">
        <ele>204.42</ele>
        <time>2021-03-26T09:03:15Z</time>
      </trkpt>
      <trkpt lat="46.68672" lon="-0.71607">
        <ele>204.42</ele>
        <time>2021-03-26T09:03:24Z</time>
      </trkpt>
      <trkpt lat="46.68672" lon="-0.71612">
        <ele>204.42</ele>
        <time>2021-03-26T09:03:27Z</time>
      </trkpt>
      <trkpt lat="46.68673" lon="-0.71619">
        <ele>204.42</ele>
        <time>2021-03-26T09:03:32Z</time>
      </trkpt>
      <trkpt lat="46.68672" lon="-0.71638">
        <ele>204.42</ele>
        <time>2021-03-26T09:03:42Z</time>
      </trkpt>
      <trkpt lat="46.6867" lon="-0.71651">
        <ele>204.42</ele>
        <time>2021-03-26T09:03:49Z</time>
      </trkpt>
      <trkpt lat="46.6867" lon="-0.71664">
        <ele>204.42</ele>
        <time>2021-03-26T09:03:57Z</time>
      </trkpt>
      <trkpt lat="46.68669" lon="-0.71681">
        <ele>204.9</ele>
        <time>2021-03-26T09:04:05Z</time>
      </trkpt>
      <trkpt lat="46.68669" lon="-0.71692">
        <ele>204.9</ele>
        <time>2021-03-26T09:04:13Z</time>
      </trkpt>
      <trkpt lat="46.68666" lon="-0.71699">
        <ele>204.9</ele>
        <time>2021-03-26T09:04:18Z</time>
      </trkpt>
      <trkpt lat="46.68663" lon="-0.71713">
        <ele>204.9</ele>
        <time>2021-03-26T09:04:26Z</time>
      </trkpt>
      <trkpt lat="46.68659" lon="-0.71728">
        <ele>204.9</ele>
        <time>2021-03-26T09:04:34Z</time>
      </trkpt>
      <trkpt lat="46.68653" lon="-0.71744">
        <ele>205.86</ele>
        <time>2021-03-26T09:04:42Z</time>
      </trkpt>
      <trkpt lat="46.68644" lon="-0.71755">
        <ele>206.34</ele>
        <time>2021-03-26T09:04:51Z</time>
      </trkpt>
      <trkpt lat="46.68637" lon="-0.7176">
        <ele>207.3</ele>
        <time>2021-03-26T09:05:00Z</time>
      </trkpt>
      <trkpt lat="46.68632" lon="-0.71764">
        <ele>207.3</ele>
        <time>2021-03-26T09:05:07Z</time>
      </trkpt>
      <trkpt lat="46.68632" lon="-0.71765">
        <ele>207.3</ele>
        <time>2021-03-26T09:05:14Z</time>
      </trkpt>
      <trkpt lat="46.68631" lon="-0.71766">
        <ele>207.3</ele>
        <time>2021-03-26T09:05:18Z</time>
      </trkpt>
      <trkpt lat="46.68623" lon="-0.71771">
        <ele>207.3</ele>
        <time>2021-03-26T09:05:25Z</time>
      </trkpt>
      <trkpt lat="46.68616" lon="-0.71779">
        <ele>207.3</ele>
        <time>2021-03-26T09:05:33Z</time>
      </trkpt>
      <trkpt lat="46.68613" lon="-0.71784">
        <ele>207.3</ele>
        <time>2021-03-26T09:05:37Z</time>
      </trkpt>
      <trkpt lat="46.68612" lon="-0.71787">
        <ele>207.3</ele>
        <time>2021-03-26T09:05:40Z</time>
      </trkpt>
      <trkpt lat="46.6861" lon="-0.71794">
        <ele>207.3</ele>
        <time>2021-03-26T09:05:46Z</time>
      </trkpt>
      <trkpt lat="46.68609" lon="-0.71803">
        <ele>207.3</ele>
        <time>2021-03-26T09:05:52Z</time>
      </trkpt>
      <trkpt lat="46.6861" lon="-0.71808">
        <ele>207.78</ele>
        <time>2021-03-26T09:05:55Z</time>
      </trkpt>
      <trkpt lat="46.68611" lon="-0.71822">
        <ele>208.74</ele>
        <time>2021-03-26T09:06:05Z</time>
      </trkpt>
      <trkpt lat="46.68611" lon="-0.71824">
        <ele>208.74</ele>
        <time>2021-03-26T09:06:06Z</time>
      </trkpt>
      <trkpt lat="46.6861" lon="-0.71832">
        <ele>208.74</ele>
        <time>2021-03-26T09:06:10Z</time>
      </trkpt>
      <trkpt lat="46.68607" lon="-0.71841">
        <ele>209.22</ele>
        <time>2021-03-26T09:06:17Z</time>
      </trkpt>
      <trkpt lat="46.68601" lon="-0.71852">
        <ele>210.19</ele>
        <time>2021-03-26T09:06:26Z</time>
      </trkpt>
      <trkpt lat="46.68597" lon="-0.71862">
        <ele>210.67</ele>
        <time>2021-03-26T09:06:33Z</time>
      </trkpt>
      <trkpt lat="46.68595" lon="-0.71872">
        <ele>211.63</ele>
        <time>2021-03-26T09:06:39Z</time>
      </trkpt>
      <trkpt lat="46.68594" lon="-0.71876">
        <ele>212.11</ele>
        <time>2021-03-26T09:06:42Z</time>
      </trkpt>
      <trkpt lat="46.68592" lon="-0.71892">
        <ele>213.07</ele>
        <time>2021-03-26T09:06:51Z</time>
      </trkpt>
      <trkpt lat="46.6859" lon="-0.71904">
        <ele>214.03</ele>
        <time>2021-03-26T09:06:58Z</time>
      </trkpt>
      <trkpt lat="46.68588" lon="-0.71921">
        <ele>214.51</ele>
        <time>2021-03-26T09:07:06Z</time>
      </trkpt>
      <trkpt lat="46.68587" lon="-0.71936">
        <ele>215.47</ele>
        <time>2021-03-26T09:07:14Z</time>
      </trkpt>
      <trkpt lat="46.68586" lon="-0.7194">
        <ele>215.47</ele>
        <time>2021-03-26T09:07:18Z</time>
      </trkpt>
      <trkpt lat="46.68583" lon="-0.71944">
        <ele>216.43</ele>
        <time>2021-03-26T09:07:22Z</time>
      </trkpt>
      <trkpt lat="46.68572" lon="-0.71951">
        <ele>216.43</ele>
        <time>2021-03-26T09:07:30Z</time>
      </trkpt>
      <trkpt lat="46.68561" lon="-0.71958">
        <ele>217.4</ele>
        <time>2021-03-26T09:07:40Z</time>
      </trkpt>
      <trkpt lat="46.68548" lon="-0.71965">
        <ele>218.36</ele>
        <time>2021-03-26T09:07:50Z</time>
      </trkpt>
      <trkpt lat="46.68538" lon="-0.71971">
        <ele>218.84</ele>
        <time>2021-03-26T09:07:58Z</time>
      </trkpt>
      <trkpt lat="46.6853" lon="-0.71979">
        <ele>220.28</ele>
        <time>2021-03-26T09:08:07Z</time>
      </trkpt>
      <trkpt lat="46.68527" lon="-0.71984">
        <ele>220.28</ele>
        <time>2021-03-26T09:08:11Z</time>
      </trkpt>
      <trkpt lat="46.68526" lon="-0.72004">
        <ele>221.24</ele>
        <time>2021-03-26T09:08:20Z</time>
      </trkpt>
      <trkpt lat="46.68525" lon="-0.72008">
        <ele>220.76</ele>
        <time>2021-03-26T09:08:26Z</time>
      </trkpt>
      <trkpt lat="46.68525" lon="-0.72009">
        <ele>220.76</ele>
        <time>2021-03-26T09:08:27Z</time>
      </trkpt>
      <trkpt lat="46.68524" lon="-0.72016">
        <ele>220.76</ele>
        <time>2021-03-26T09:08:34Z</time>
      </trkpt>
      <trkpt lat="46.68522" lon="-0.72017">
        <ele>220.76</ele>
        <time>2021-03-26T09:08:42Z</time>
      </trkpt>
      <trkpt lat="46.68521" lon="-0.72019">
        <ele>220.76</ele>
        <time>2021-03-26T09:08:50Z</time>
      </trkpt>
      <trkpt lat="46.68519" lon="-0.7202">
        <ele>220.76</ele>
        <time>2021-03-26T09:09:03Z</time>
      </trkpt>
      <trkpt lat="46.68516" lon="-0.72031">
        <ele>221.24</ele>
        <time>2021-03-26T09:09:10Z</time>
      </trkpt>
      <trkpt lat="46.68516" lon="-0.72032">
        <ele>221.24</ele>
        <time>2021-03-26T09:09:23Z</time>
      </trkpt>
      <trkpt lat="46.68516" lon="-0.72034">
        <ele>221.24</ele>
        <time>2021-03-26T09:09:29Z</time>
      </trkpt>
      <trkpt lat="46.68516" lon="-0.72032">
        <ele>222.2</ele>
        <time>2021-03-26T09:09:35Z</time>
      </trkpt>
      <trkpt lat="46.68515" lon="-0.72033">
        <ele>222.2</ele>
        <time>2021-03-26T09:09:42Z</time>
      </trkpt>
      <trkpt lat="46.68516" lon="-0.72034">
        <ele>220.76</ele>
        <time>2021-03-26T09:09:47Z</time>
      </trkpt>
      <trkpt lat="46.68516" lon="-0.72034">
        <ele>220.76</ele>
        <time>2021-03-26T09:09:55Z</time>
      </trkpt>
      <trkpt lat="46.68518" lon="-0.72038">
        <ele>220.76</ele>
        <time>2021-03-26T09:09:59Z</time>
      </trkpt>
      <trkpt lat="46.68523" lon="-0.72047">
        <ele>220.76</ele>
        <time>2021-03-26T09:10:07Z</time>
      </trkpt>
      <trkpt lat="46.68525" lon="-0.72053">
        <ele>220.76</ele>
        <time>2021-03-26T09:10:13Z</time>
      </trkpt>
      <trkpt lat="46.68525" lon="-0.72054">
        <ele>220.28</ele>
        <time>2021-03-26T09:10:16Z</time>
      </trkpt>
      <trkpt lat="46.68524" lon="-0.72052">
        <ele>220.28</ele>
        <time>2021-03-26T09:10:19Z</time>
      </trkpt>
      <trkpt lat="46.68522" lon="-0.72048">
        <ele>220.28</ele>
        <time>2021-03-26T09:10:28Z</time>
      </trkpt>
      <trkpt lat="46.68523" lon="-0.72047">
        <ele>220.28</ele>
        <time>2021-03-26T09:10:41Z</time>
      </trkpt>
      <trkpt lat="46.68523" lon="-0.72049">
        <ele>220.28</ele>
        <time>2021-03-26T09:10:49Z</time>
      </trkpt>
      <trkpt lat="46.68523" lon="-0.72049">
        <ele>220.28</ele>
        <time>2021-03-26T09:10:50Z</time>
      </trkpt>
      <trkpt lat="46.68524" lon="-0.72052">
        <ele>220.28</ele>
        <time>2021-03-26T09:10:56Z</time>
      </trkpt>
      <trkpt lat="46.68528" lon="-0.7206">
        <ele>220.28</ele>
        <time>2021-03-26T09:11:01Z</time>
      </trkpt>
      <trkpt lat="46.68532" lon="-0.72065">
        <ele>220.28</ele>
        <time>2021-03-26T09:11:07Z</time>
      </trkpt>
      <trkpt lat="46.68542" lon="-0.72079">
        <ele>219.8</ele>
        <time>2021-03-26T09:11:16Z</time>
      </trkpt>
      <trkpt lat="46.68545" lon="-0.72087">
        <ele>219.8</ele>
        <time>2021-03-26T09:11:24Z</time>
      </trkpt>
      <trkpt lat="46.68554" lon="-0.721">
        <ele>219.32</ele>
        <time>2021-03-26T09:11:31Z</time>
      </trkpt>
      <trkpt lat="46.68561" lon="-0.72113">
        <ele>217.88</ele>
        <time>2021-03-26T09:11:39Z</time>
      </trkpt>
      <trkpt lat="46.68564" lon="-0.72119">
        <ele>217.88</ele>
        <time>2021-03-26T09:11:46Z</time>
      </trkpt>
      <trkpt lat="46.68565" lon="-0.72121">
        <ele>218.36</ele>
        <time>2021-03-26T09:11:47Z</time>
      </trkpt>
      <trkpt lat="46.68566" lon="-0.72123">
        <ele>218.36</ele>
        <time>2021-03-26T09:11:48Z</time>
      </trkpt>
      <trkpt lat="46.68568" lon="-0.72132">
        <ele>217.4</ele>
        <time>2021-03-26T09:11:54Z</time>
      </trkpt>
      <trkpt lat="46.68569" lon="-0.72138">
        <ele>217.4</ele>
        <time>2021-03-26T09:12:02Z</time>
      </trkpt>
      <trkpt lat="46.6857" lon="-0.72147">
        <ele>217.4</ele>
        <time>2021-03-26T09:12:08Z</time>
      </trkpt>
      <trkpt lat="46.6857" lon="-0.72154">
        <ele>217.4</ele>
        <time>2021-03-26T09:12:14Z</time>
      </trkpt>
      <trkpt lat="46.68571" lon="-0.72152">
        <ele>217.4</ele>
        <time>2021-03-26T09:12:22Z</time>
      </trkpt>
      <trkpt lat="46.68571" lon="-0.72153">
        <ele>217.4</ele>
        <time>2021-03-26T09:12:29Z</time>
      </trkpt>
      <trkpt lat="46.68569" lon="-0.72159">
        <ele>217.4</ele>
        <time>2021-03-26T09:12:37Z</time>
      </trkpt>
      <trkpt lat="46.68569" lon="-0.7216">
        <ele>217.4</ele>
        <time>2021-03-26T09:12:38Z</time>
      </trkpt>
      <trkpt lat="46.68569" lon="-0.72177">
        <ele>217.4</ele>
        <time>2021-03-26T09:12:48Z</time>
      </trkpt>
      <trkpt lat="46.68567" lon="-0.72191">
        <ele>217.4</ele>
        <time>2021-03-26T09:12:57Z</time>
      </trkpt>
      <trkpt lat="46.68564" lon="-0.72209">
        <ele>217.4</ele>
        <time>2021-03-26T09:13:05Z</time>
      </trkpt>
      <trkpt lat="46.68563" lon="-0.72215">
        <ele>219.32</ele>
        <time>2021-03-26T09:13:08Z</time>
      </trkpt>
      <trkpt lat="46.68562" lon="-0.72218">
        <ele>217.88</ele>
        <time>2021-03-26T09:13:10Z</time>
      </trkpt>
      <trkpt lat="46.6856" lon="-0.72231">
        <ele>217.88</ele>
        <time>2021-03-26T09:13:18Z</time>
      </trkpt>
      <trkpt lat="46.68558" lon="-0.72235">
        <ele>217.88</ele>
        <time>2021-03-26T09:13:23Z</time>
      </trkpt>
      <trkpt lat="46.68557" lon="-0.72234">
        <ele>217.88</ele>
        <time>2021-03-26T09:13:34Z</time>
      </trkpt>
      <trkpt lat="46.68557" lon="-0.72236">
        <ele>217.88</ele>
        <time>2021-03-26T09:13:43Z</time>
      </trkpt>
      <trkpt lat="46.68556" lon="-0.72237">
        <ele>217.88</ele>
        <time>2021-03-26T09:13:52Z</time>
      </trkpt>
      <trkpt lat="46.68556" lon="-0.72238">
        <ele>217.88</ele>
        <time>2021-03-26T09:14:04Z</time>
      </trkpt>
      <trkpt lat="46.68556" lon="-0.72238">
        <ele>217.88</ele>
        <time>2021-03-26T09:14:15Z</time>
      </trkpt>
      <trkpt lat="46.68556" lon="-0.72239">
        <ele>217.4</ele>
        <time>2021-03-26T09:14:31Z</time>
      </trkpt>
      <trkpt lat="46.68556" lon="-0.72239">
        <ele>217.4</ele>
        <time>2021-03-26T09:14:44Z</time>
      </trkpt>
      <trkpt lat="46.68556" lon="-0.72238">
        <ele>217.4</ele>
        <time>2021-03-26T09:14:57Z</time>
      </trkpt>
      <trkpt lat="46.68556" lon="-0.7224">
        <ele>217.4</ele>
        <time>2021-03-26T09:15:14Z</time>
      </trkpt>
      <trkpt lat="46.68556" lon="-0.7224">
        <ele>217.4</ele>
        <time>2021-03-26T09:15:32Z</time>
      </trkpt>
      <trkpt lat="46.68556" lon="-0.72238">
        <ele>217.4</ele>
        <time>2021-03-26T09:15:46Z</time>
      </trkpt>
      <trkpt lat="46.68556" lon="-0.72238">
        <ele>217.4</ele>
        <time>2021-03-26T09:16:01Z</time>
      </trkpt>
      <trkpt lat="46.68555" lon="-0.72238">
        <ele>217.4</ele>
        <time>2021-03-26T09:16:15Z</time>
      </trkpt>
      <trkpt lat="46.68556" lon="-0.72238">
        <ele>217.4</ele>
        <time>2021-03-26T09:16:28Z</time>
      </trkpt>
      <trkpt lat="46.68556" lon="-0.72238">
        <ele>217.4</ele>
        <time>2021-03-26T09:16:32Z</time>
      </trkpt>
      <trkpt lat="46.68556" lon="-0.72251">
        <ele>217.4</ele>
        <time>2021-03-26T09:16:42Z</time>
      </trkpt>
      <trkpt lat="46.68556" lon="-0.72261">
        <ele>217.4</ele>
        <time>2021-03-26T09:16:49Z</time>
      </trkpt>
      <trkpt lat="46.68556" lon="-0.72272">
        <ele>216.91</ele>
        <time>2021-03-26T09:16:56Z</time>
      </trkpt>
      <trkpt lat="46.68556" lon="-0.72292">
        <ele>216.43</ele>
        <time>2021-03-26T09:17:04Z</time>
      </trkpt>
      <trkpt lat="46.68556" lon="-0.72307">
        <ele>215.95</ele>
        <time>2021-03-26T09:17:13Z</time>
      </trkpt>
      <trkpt lat="46.68556" lon="-0.72318">
        <ele>214.99</ele>
        <time>2021-03-26T09:17:22Z</time>
      </trkpt>
      <trkpt lat="46.68557" lon="-0.72335">
        <ele>214.99</ele>
        <time>2021-03-26T09:17:29Z</time>
      </trkpt>
      <trkpt lat="46.68557" lon="-0.72349">
        <ele>213.55</ele>
        <time>2021-03-26T09:17:38Z</time>
      </trkpt>
      <trkpt lat="46.68557" lon="-0.72363">
        <ele>213.07</ele>
        <time>2021-03-26T09:17:44Z</time>
      </trkpt>
      <trkpt lat="46.6856" lon="-0.72388">
        <ele>212.59</ele>
        <time>2021-03-26T09:17:53Z</time>
      </trkpt>
      <trkpt lat="46.68564" lon="-0.72409">
        <ele>211.15</ele>
        <time>2021-03-26T09:18:03Z</time>
      </trkpt>
      <trkpt lat="46.68566" lon="-0.72421">
        <ele>210.19</ele>
        <time>2021-03-26T09:18:12Z</time>
      </trkpt>
      <trkpt lat="46.6857" lon="-0.7244">
        <ele>209.7</ele>
        <time>2021-03-26T09:18:24Z</time>
      </trkpt>
      <trkpt lat="46.68574" lon="-0.72451">
        <ele>209.22</ele>
        <time>2021-03-26T09:18:30Z</time>
      </trkpt>
      <trkpt lat="46.68579" lon="-0.7247">
        <ele>208.74</ele>
        <time>2021-03-26T09:18:39Z</time>
      </trkpt>
      <trkpt lat="46.68586" lon="-0.72488">
        <ele>207.78</ele>
        <time>2021-03-26T09:18:46Z</time>
      </trkpt>
      <trkpt lat="46.68594" lon="-0.72502">
        <ele>207.78</ele>
        <time>2021-03-26T09:18:54Z</time>
      </trkpt>
      <trkpt lat="46.68596" lon="-0.72505">
        <ele>207.78</ele>
        <time>2021-03-26T09:19:00Z</time>
      </trkpt>
      <trkpt lat="46.68601" lon="-0.72519">
        <ele>207.3</ele>
        <time>2021-03-26T09:19:11Z</time>
      </trkpt>
      <trkpt lat="46.68606" lon="-0.72537">
        <ele>206.82</ele>
        <time>2021-03-26T09:19:19Z</time>
      </trkpt>
      <trkpt lat="46.68613" lon="-0.72557">
        <ele>206.82</ele>
        <time>2021-03-26T09:19:28Z</time>
      </trkpt>
      <trkpt lat="46.68616" lon="-0.72567">
        <ele>206.34</ele>
        <time>2021-03-26T09:19:37Z</time>
      </trkpt>
      <trkpt lat="46.68622" lon="-0.72584">
        <ele>206.34</ele>
        <time>2021-03-26T09:19:45Z</time>
      </trkpt>
      <trkpt lat="46.68628" lon="-0.72598">
        <ele>206.34</ele>
        <time>2021-03-26T09:19:54Z</time>
      </trkpt>
      <trkpt lat="46.68632" lon="-0.72611">
        <ele>206.34</ele>
        <time>2021-03-26T09:20:03Z</time>
      </trkpt>
      <trkpt lat="46.68638" lon="-0.72629">
        <ele>206.34</ele>
        <time>2021-03-26T09:20:11Z</time>
      </trkpt>
      <trkpt lat="46.6864" lon="-0.72637">
        <ele>206.34</ele>
        <time>2021-03-26T09:20:17Z</time>
      </trkpt>
      <trkpt lat="46.6864" lon="-0.72637">
        <ele>206.34</ele>
        <time>2021-03-26T09:20:28Z</time>
      </trkpt>
      <trkpt lat="46.6864" lon="-0.7264">
        <ele>206.34</ele>
        <time>2021-03-26T09:20:37Z</time>
      </trkpt>
      <trkpt lat="46.68645" lon="-0.7265">
        <ele>206.34</ele>
        <time>2021-03-26T09:20:45Z</time>
      </trkpt>
      <trkpt lat="46.6865" lon="-0.72661">
        <ele>206.34</ele>
        <time>2021-03-26T09:20:53Z</time>
      </trkpt>
      <trkpt lat="46.68656" lon="-0.72676">
        <ele>207.78</ele>
        <time>2021-03-26T09:21:03Z</time>
      </trkpt>
      <trkpt lat="46.68659" lon="-0.72686">
        <ele>207.78</ele>
        <time>2021-03-26T09:21:09Z</time>
      </trkpt>
      <trkpt lat="46.68665" lon="-0.727">
        <ele>207.78</ele>
        <time>2021-03-26T09:21:16Z</time>
      </trkpt>
      <trkpt lat="46.6867" lon="-0.72712">
        <ele>207.78</ele>
        <time>2021-03-26T09:21:24Z</time>
      </trkpt>
      <trkpt lat="46.68673" lon="-0.72724">
        <ele>207.78</ele>
        <time>2021-03-26T09:21:32Z</time>
      </trkpt>
      <trkpt lat="46.68676" lon="-0.72734">
        <ele>207.78</ele>
        <time>2021-03-26T09:21:39Z</time>
      </trkpt>
      <trkpt lat="46.68681" lon="-0.7275">
        <ele>207.78</ele>
        <time>2021-03-26T09:21:47Z</time>
      </trkpt>
      <trkpt lat="46.68684" lon="-0.72761">
        <ele>205.86</ele>
        <time>2021-03-26T09:21:55Z</time>
      </trkpt>
      <trkpt lat="46.68685" lon="-0.72772">
        <ele>205.38</ele>
        <time>2021-03-26T09:22:03Z</time>
      </trkpt>
      <trkpt lat="46.68685" lon="-0.72789">
        <ele>205.38</ele>
        <time>2021-03-26T09:22:13Z</time>
      </trkpt>
      <trkpt lat="46.68685" lon="-0.72807">
        <ele>204.9</ele>
        <time>2021-03-26T09:22:21Z</time>
      </trkpt>
      <trkpt lat="46.68685" lon="-0.72816">
        <ele>204.9</ele>
        <time>2021-03-26T09:22:29Z</time>
      </trkpt>
      <trkpt lat="46.68687" lon="-0.72834">
        <ele>204.9</ele>
        <time>2021-03-26T09:22:37Z</time>
      </trkpt>
      <trkpt lat="46.68686" lon="-0.72846">
        <ele>203.94</ele>
        <time>2021-03-26T09:22:44Z</time>
      </trkpt>
      <trkpt lat="46.68687" lon="-0.72854">
        <ele>203.94</ele>
        <time>2021-03-26T09:22:48Z</time>
      </trkpt>
      <trkpt lat="46.68686" lon="-0.72868">
        <ele>203.94</ele>
        <time>2021-03-26T09:22:57Z</time>
      </trkpt>
      <trkpt lat="46.68686" lon="-0.72884">
        <ele>203.46</ele>
        <time>2021-03-26T09:23:06Z</time>
      </trkpt>
      <trkpt lat="46.68685" lon="-0.729">
        <ele>203.46</ele>
        <time>2021-03-26T09:23:15Z</time>
      </trkpt>
      <trkpt lat="46.68685" lon="-0.72915">
        <ele>203.46</ele>
        <time>2021-03-26T09:23:23Z</time>
      </trkpt>
      <trkpt lat="46.68683" lon="-0.72932">
        <ele>202.98</ele>
        <time>2021-03-26T09:23:31Z</time>
      </trkpt>
      <trkpt lat="46.68683" lon="-0.72937">
        <ele>202.98</ele>
        <time>2021-03-26T09:23:33Z</time>
      </trkpt>
      <trkpt lat="46.6868" lon="-0.72953">
        <ele>202.98</ele>
        <time>2021-03-26T09:23:41Z</time>
      </trkpt>
      <trkpt lat="46.68679" lon="-0.72961">
        <ele>200.57</ele>
        <time>2021-03-26T09:23:44Z</time>
      </trkpt>
      <trkpt lat="46.68679" lon="-0.72963">
        <ele>203.94</ele>
        <time>2021-03-26T09:23:45Z</time>
      </trkpt>
      <trkpt lat="46.68678" lon="-0.72966">
        <ele>202.49</ele>
        <time>2021-03-26T09:23:47Z</time>
      </trkpt>
      <trkpt lat="46.68677" lon="-0.72976">
        <ele>202.49</ele>
        <time>2021-03-26T09:23:56Z</time>
      </trkpt>
      <trkpt lat="46.68675" lon="-0.72993">
        <ele>202.01</ele>
        <time>2021-03-26T09:24:04Z</time>
      </trkpt>
      <trkpt lat="46.68676" lon="-0.73014">
        <ele>202.01</ele>
        <time>2021-03-26T09:24:14Z</time>
      </trkpt>
      <trkpt lat="46.68675" lon="-0.73022">
        <ele>202.01</ele>
        <time>2021-03-26T09:24:20Z</time>
      </trkpt>
      <trkpt lat="46.68671" lon="-0.7304">
        <ele>202.01</ele>
        <time>2021-03-26T09:24:29Z</time>
      </trkpt>
      <trkpt lat="46.68669" lon="-0.73054">
        <ele>201.53</ele>
        <time>2021-03-26T09:24:37Z</time>
      </trkpt>
      <trkpt lat="46.68665" lon="-0.73072">
        <ele>201.53</ele>
        <time>2021-03-26T09:24:44Z</time>
      </trkpt>
      <trkpt lat="46.68665" lon="-0.73083">
        <ele>201.53</ele>
        <time>2021-03-26T09:24:51Z</time>
      </trkpt>
      <trkpt lat="46.68668" lon="-0.73099">
        <ele>201.05</ele>
        <time>2021-03-26T09:25:00Z</time>
      </trkpt>
      <trkpt lat="46.68669" lon="-0.73114">
        <ele>201.05</ele>
        <time>2021-03-26T09:25:09Z</time>
      </trkpt>
      <trkpt lat="46.68669" lon="-0.73119">
        <ele>200.57</ele>
        <time>2021-03-26T09:25:15Z</time>
      </trkpt>
      <trkpt lat="46.68668" lon="-0.73121">
        <ele>200.57</ele>
        <time>2021-03-26T09:25:21Z</time>
      </trkpt>
      <trkpt lat="46.68668" lon="-0.73122">
        <ele>200.57</ele>
        <time>2021-03-26T09:25:30Z</time>
      </trkpt>
      <trkpt lat="46.68668" lon="-0.73122">
        <ele>200.57</ele>
        <time>2021-03-26T09:25:38Z</time>
      </trkpt>
      <trkpt lat="46.68668" lon="-0.73123">
        <ele>200.57</ele>
        <time>2021-03-26T09:25:48Z</time>
      </trkpt>
      <trkpt lat="46.68669" lon="-0.73123">
        <ele>200.57</ele>
        <time>2021-03-26T09:26:00Z</time>
      </trkpt>
      <trkpt lat="46.68672" lon="-0.73124">
        <ele>200.57</ele>
        <time>2021-03-26T09:26:08Z</time>
      </trkpt>
      <trkpt lat="46.68673" lon="-0.73125">
        <ele>200.57</ele>
        <time>2021-03-26T09:26:10Z</time>
      </trkpt>
      <trkpt lat="46.68684" lon="-0.73127">
        <ele>202.01</ele>
        <time>2021-03-26T09:26:19Z</time>
      </trkpt>
      <trkpt lat="46.68686" lon="-0.73127">
        <ele>202.01</ele>
        <time>2021-03-26T09:26:20Z</time>
      </trkpt>
      <trkpt lat="46.68697" lon="-0.73129">
        <ele>202.98</ele>
        <time>2021-03-26T09:26:29Z</time>
      </trkpt>
      <trkpt lat="46.68713" lon="-0.73131">
        <ele>203.46</ele>
        <time>2021-03-26T09:26:39Z</time>
      </trkpt>
      <trkpt lat="46.68723" lon="-0.73131">
        <ele>203.46</ele>
        <time>2021-03-26T09:26:48Z</time>
      </trkpt>
      <trkpt lat="46.68734" lon="-0.73131">
        <ele>203.94</ele>
        <time>2021-03-26T09:26:55Z</time>
      </trkpt>
      <trkpt lat="46.68744" lon="-0.73131">
        <ele>203.94</ele>
        <time>2021-03-26T09:27:03Z</time>
      </trkpt>
      <trkpt lat="46.68751" lon="-0.7313">
        <ele>203.94</ele>
        <time>2021-03-26T09:27:10Z</time>
      </trkpt>
      <trkpt lat="46.68758" lon="-0.73129">
        <ele>203.94</ele>
        <time>2021-03-26T09:27:17Z</time>
      </trkpt>
      <trkpt lat="46.68761" lon="-0.73129">
        <ele>203.94</ele>
        <time>2021-03-26T09:27:25Z</time>
      </trkpt>
      <trkpt lat="46.68766" lon="-0.7313">
        <ele>204.42</ele>
        <time>2021-03-26T09:27:32Z</time>
      </trkpt>
      <trkpt lat="46.68771" lon="-0.73129">
        <ele>204.42</ele>
        <time>2021-03-26T09:27:41Z</time>
      </trkpt>
      <trkpt lat="46.68775" lon="-0.73127">
        <ele>204.42</ele>
        <time>2021-03-26T09:27:47Z</time>
      </trkpt>
      <trkpt lat="46.68784" lon="-0.73124">
        <ele>204.42</ele>
        <time>2021-03-26T09:27:55Z</time>
      </trkpt>
      <trkpt lat="46.68787" lon="-0.73125">
        <ele>204.42</ele>
        <time>2021-03-26T09:28:02Z</time>
      </trkpt>
      <trkpt lat="46.68786" lon="-0.73125">
        <ele>204.42</ele>
        <time>2021-03-26T09:28:03Z</time>
      </trkpt>
      <trkpt lat="46.68784" lon="-0.73126">
        <ele>204.42</ele>
        <time>2021-03-26T09:28:10Z</time>
      </trkpt>
      <trkpt lat="46.68788" lon="-0.73123">
        <ele>204.42</ele>
        <time>2021-03-26T09:28:19Z</time>
      </trkpt>
      <trkpt lat="46.68802" lon="-0.73121">
        <ele>204.42</ele>
        <time>2021-03-26T09:28:27Z</time>
      </trkpt>
      <trkpt lat="46.68809" lon="-0.73119">
        <ele>204.42</ele>
        <time>2021-03-26T09:28:35Z</time>
      </trkpt>
      <trkpt lat="46.68821" lon="-0.73114">
        <ele>202.98</ele>
        <time>2021-03-26T09:28:43Z</time>
      </trkpt>
      <trkpt lat="46.6883" lon="-0.73111">
        <ele>202.49</ele>
        <time>2021-03-26T09:28:51Z</time>
      </trkpt>
      <trkpt lat="46.68833" lon="-0.73109">
        <ele>202.49</ele>
        <time>2021-03-26T09:28:56Z</time>
      </trkpt>
      <trkpt lat="46.68836" lon="-0.73107">
        <ele>202.49</ele>
        <time>2021-03-26T09:28:59Z</time>
      </trkpt>
      <trkpt lat="46.68837" lon="-0.73107">
        <ele>202.49</ele>
        <time>2021-03-26T09:29:00Z</time>
      </trkpt>
      <trkpt lat="46.68838" lon="-0.73106">
        <ele>202.49</ele>
        <time>2021-03-26T09:29:01Z</time>
      </trkpt>
      <trkpt lat="46.6884" lon="-0.73106">
        <ele>202.01</ele>
        <time>2021-03-26T09:29:02Z</time>
      </trkpt>
      <trkpt lat="46.68841" lon="-0.73105">
        <ele>202.01</ele>
        <time>2021-03-26T09:29:03Z</time>
      </trkpt>
      <trkpt lat="46.68848" lon="-0.73102">
        <ele>201.53</ele>
        <time>2021-03-26T09:29:08Z</time>
      </trkpt>
      <trkpt lat="46.68855" lon="-0.73098">
        <ele>201.05</ele>
        <time>2021-03-26T09:29:15Z</time>
      </trkpt>
      <trkpt lat="46.68864" lon="-0.73092">
        <ele>200.57</ele>
        <time>2021-03-26T09:29:21Z</time>
      </trkpt>
      <trkpt lat="46.68872" lon="-0.73086">
        <ele>199.61</ele>
        <time>2021-03-26T09:29:29Z</time>
      </trkpt>
      <trkpt lat="46.68878" lon="-0.73079">
        <ele>198.17</ele>
        <time>2021-03-26T09:29:39Z</time>
      </trkpt>
      <trkpt lat="46.68893" lon="-0.7307">
        <ele>197.21</ele>
        <time>2021-03-26T09:29:46Z</time>
      </trkpt>
      <trkpt lat="46.68901" lon="-0.73065">
        <ele>196.25</ele>
        <time>2021-03-26T09:29:54Z</time>
      </trkpt>
      <trkpt lat="46.68911" lon="-0.73059">
        <ele>195.28</ele>
        <time>2021-03-26T09:30:03Z</time>
      </trkpt>
      <trkpt lat="46.68924" lon="-0.7305">
        <ele>194.32</ele>
        <time>2021-03-26T09:30:10Z</time>
      </trkpt>
      <trkpt lat="46.68928" lon="-0.73046">
        <ele>193.36</ele>
        <time>2021-03-26T09:30:17Z</time>
      </trkpt>
      <trkpt lat="46.68931" lon="-0.73045">
        <ele>192.88</ele>
        <time>2021-03-26T09:30:21Z</time>
      </trkpt>
      <trkpt lat="46.68932" lon="-0.73044">
        <ele>192.4</ele>
        <time>2021-03-26T09:30:22Z</time>
      </trkpt>
      <trkpt lat="46.68937" lon="-0.73041">
        <ele>191.92</ele>
        <time>2021-03-26T09:30:27Z</time>
      </trkpt>
      <trkpt lat="46.68948" lon="-0.73034">
        <ele>191.44</ele>
        <time>2021-03-26T09:30:33Z</time>
      </trkpt>
      <trkpt lat="46.68961" lon="-0.73026">
        <ele>190.48</ele>
        <time>2021-03-26T09:30:40Z</time>
      </trkpt>
      <trkpt lat="46.68965" lon="-0.73022">
        <ele>189.52</ele>
        <time>2021-03-26T09:30:47Z</time>
      </trkpt>
      <trkpt lat="46.68973" lon="-0.73015">
        <ele>188.56</ele>
        <time>2021-03-26T09:30:55Z</time>
      </trkpt>
      <trkpt lat="46.68989" lon="-0.73005">
        <ele>186.63</ele>
        <time>2021-03-26T09:31:05Z</time>
      </trkpt>
      <trkpt lat="46.68993" lon="-0.73002">
        <ele>186.15</ele>
        <time>2021-03-26T09:31:12Z</time>
      </trkpt>
      <trkpt lat="46.68995" lon="-0.73">
        <ele>185.67</ele>
        <time>2021-03-26T09:31:15Z</time>
      </trkpt>
      <trkpt lat="46.68997" lon="-0.72999">
        <ele>185.67</ele>
        <time>2021-03-26T09:31:16Z</time>
      </trkpt>
      <trkpt lat="46.68999" lon="-0.72997">
        <ele>185.67</ele>
        <time>2021-03-26T09:31:17Z</time>
      </trkpt>
      <trkpt lat="46.69014" lon="-0.72987">
        <ele>184.23</ele>
        <time>2021-03-26T09:31:26Z</time>
      </trkpt>
      <trkpt lat="46.6902" lon="-0.72983">
        <ele>183.27</ele>
        <time>2021-03-26T09:31:34Z</time>
      </trkpt>
      <trkpt lat="46.69031" lon="-0.72974">
        <ele>182.79</ele>
        <time>2021-03-26T09:31:41Z</time>
      </trkpt>
      <trkpt lat="46.69039" lon="-0.72969">
        <ele>181.83</ele>
        <time>2021-03-26T09:31:48Z</time>
      </trkpt>
      <trkpt lat="46.69041" lon="-0.72966">
        <ele>181.35</ele>
        <time>2021-03-26T09:31:52Z</time>
      </trkpt>
      <trkpt lat="46.69042" lon="-0.72965">
        <ele>181.35</ele>
        <time>2021-03-26T09:31:53Z</time>
      </trkpt>
      <trkpt lat="46.69043" lon="-0.72963">
        <ele>181.35</ele>
        <time>2021-03-26T09:31:54Z</time>
      </trkpt>
      <trkpt lat="46.69045" lon="-0.72963">
        <ele>181.35</ele>
        <time>2021-03-26T09:31:55Z</time>
      </trkpt>
      <trkpt lat="46.69046" lon="-0.72962">
        <ele>181.35</ele>
        <time>2021-03-26T09:31:56Z</time>
      </trkpt>
      <trkpt lat="46.69048" lon="-0.72961">
        <ele>181.35</ele>
        <time>2021-03-26T09:31:57Z</time>
      </trkpt>
      <trkpt lat="46.6905" lon="-0.72959">
        <ele>181.35</ele>
        <time>2021-03-26T09:32:02Z</time>
      </trkpt>
      <trkpt lat="46.69053" lon="-0.72958">
        <ele>180.87</ele>
        <time>2021-03-26T09:32:08Z</time>
      </trkpt>
      <trkpt lat="46.69055" lon="-0.72956">
        <ele>180.87</ele>
        <time>2021-03-26T09:32:12Z</time>
      </trkpt>
      <trkpt lat="46.69056" lon="-0.72954">
        <ele>180.87</ele>
        <time>2021-03-26T09:32:13Z</time>
      </trkpt>
      <trkpt lat="46.69057" lon="-0.72953">
        <ele>180.38</ele>
        <time>2021-03-26T09:32:14Z</time>
      </trkpt>
      <trkpt lat="46.69059" lon="-0.72952">
        <ele>180.38</ele>
        <time>2021-03-26T09:32:17Z</time>
      </trkpt>
      <trkpt lat="46.6906" lon="-0.72952">
        <ele>180.38</ele>
        <time>2021-03-26T09:32:18Z</time>
      </trkpt>
      <trkpt lat="46.69061" lon="-0.72951">
        <ele>180.38</ele>
        <time>2021-03-26T09:32:23Z</time>
      </trkpt>
      <trkpt lat="46.69063" lon="-0.72948">
        <ele>180.38</ele>
        <time>2021-03-26T09:32:31Z</time>
      </trkpt>
      <trkpt lat="46.69074" lon="-0.72941">
        <ele>178.94</ele>
        <time>2021-03-26T09:32:40Z</time>
      </trkpt>
      <trkpt lat="46.69074" lon="-0.72941">
        <ele>178.94</ele>
        <time>2021-03-26T09:32:43Z</time>
      </trkpt>
      <trkpt lat="46.69076" lon="-0.72938">
        <ele>178.94</ele>
        <time>2021-03-26T09:32:46Z</time>
      </trkpt>
      <trkpt lat="46.69077" lon="-0.72938">
        <ele>178.94</ele>
        <time>2021-03-26T09:32:47Z</time>
      </trkpt>
      <trkpt lat="46.69091" lon="-0.72929">
        <ele>177.98</ele>
        <time>2021-03-26T09:32:57Z</time>
      </trkpt>
      <trkpt lat="46.69093" lon="-0.72927">
        <ele>177.98</ele>
        <time>2021-03-26T09:33:04Z</time>
      </trkpt>
      <trkpt lat="46.69093" lon="-0.72927">
        <ele>177.98</ele>
        <time>2021-03-26T09:33:15Z</time>
      </trkpt>
      <trkpt lat="46.69096" lon="-0.72927">
        <ele>177.98</ele>
        <time>2021-03-26T09:33:27Z</time>
      </trkpt>
      <trkpt lat="46.691" lon="-0.72926">
        <ele>177.5</ele>
        <time>2021-03-26T09:33:35Z</time>
      </trkpt>
      <trkpt lat="46.69111" lon="-0.72919">
        <ele>177.98</ele>
        <time>2021-03-26T09:33:43Z</time>
      </trkpt>
      <trkpt lat="46.69119" lon="-0.72916">
        <ele>177.5</ele>
        <time>2021-03-26T09:33:52Z</time>
      </trkpt>
      <trkpt lat="46.6912" lon="-0.72917">
        <ele>177.5</ele>
        <time>2021-03-26T09:33:53Z</time>
      </trkpt>
      <trkpt lat="46.69132" lon="-0.72922">
        <ele>177.5</ele>
        <time>2021-03-26T09:34:01Z</time>
      </trkpt>
      <trkpt lat="46.69138" lon="-0.72927">
        <ele>177.5</ele>
        <time>2021-03-26T09:34:09Z</time>
      </trkpt>
      <trkpt lat="46.69146" lon="-0.72936">
        <ele>177.5</ele>
        <time>2021-03-26T09:34:17Z</time>
      </trkpt>
      <trkpt lat="46.69161" lon="-0.72946">
        <ele>177.5</ele>
        <time>2021-03-26T09:34:25Z</time>
      </trkpt>
      <trkpt lat="46.69168" lon="-0.7295">
        <ele>177.5</ele>
        <time>2021-03-26T09:34:33Z</time>
      </trkpt>
      <trkpt lat="46.6917" lon="-0.72953">
        <ele>177.5</ele>
        <time>2021-03-26T09:34:36Z</time>
      </trkpt>
      <trkpt lat="46.69171" lon="-0.72955">
        <ele>177.5</ele>
        <time>2021-03-26T09:34:37Z</time>
      </trkpt>
      <trkpt lat="46.69173" lon="-0.72956">
        <ele>177.5</ele>
        <time>2021-03-26T09:34:38Z</time>
      </trkpt>
      <trkpt lat="46.69174" lon="-0.72958">
        <ele>177.5</ele>
        <time>2021-03-26T09:34:39Z</time>
      </trkpt>
      <trkpt lat="46.69176" lon="-0.72959">
        <ele>177.5</ele>
        <time>2021-03-26T09:34:40Z</time>
      </trkpt>
      <trkpt lat="46.69181" lon="-0.72965">
        <ele>177.5</ele>
        <time>2021-03-26T09:34:46Z</time>
      </trkpt>
      <trkpt lat="46.69185" lon="-0.72966">
        <ele>179.42</ele>
        <time>2021-03-26T09:34:54Z</time>
      </trkpt>
      <trkpt lat="46.69188" lon="-0.72967">
        <ele>179.42</ele>
        <time>2021-03-26T09:35:01Z</time>
      </trkpt>
      <trkpt lat="46.69193" lon="-0.72965">
        <ele>179.9</ele>
        <time>2021-03-26T09:35:09Z</time>
      </trkpt>
      <trkpt lat="46.69194" lon="-0.72965">
        <ele>179.9</ele>
        <time>2021-03-26T09:35:10Z</time>
      </trkpt>
      <trkpt lat="46.69195" lon="-0.72962">
        <ele>180.38</ele>
        <time>2021-03-26T09:35:16Z</time>
      </trkpt>
      <trkpt lat="46.69198" lon="-0.7296">
        <ele>180.38</ele>
        <time>2021-03-26T09:35:29Z</time>
      </trkpt>
      <trkpt lat="46.692" lon="-0.7296">
        <ele>180.38</ele>
        <time>2021-03-26T09:35:30Z</time>
      </trkpt>
      <trkpt lat="46.69207" lon="-0.7296">
        <ele>181.35</ele>
        <time>2021-03-26T09:35:36Z</time>
      </trkpt>
      <trkpt lat="46.69216" lon="-0.72957">
        <ele>182.31</ele>
        <time>2021-03-26T09:35:44Z</time>
      </trkpt>
      <trkpt lat="46.69222" lon="-0.72959">
        <ele>183.27</ele>
        <time>2021-03-26T09:35:50Z</time>
      </trkpt>
      <trkpt lat="46.69232" lon="-0.72966">
        <ele>184.71</ele>
        <time>2021-03-26T09:35:58Z</time>
      </trkpt>
      <trkpt lat="46.69237" lon="-0.72974">
        <ele>184.71</ele>
        <time>2021-03-26T09:36:05Z</time>
      </trkpt>
      <trkpt lat="46.69246" lon="-0.72988">
        <ele>185.19</ele>
        <time>2021-03-26T09:36:13Z</time>
      </trkpt>
      <trkpt lat="46.69252" lon="-0.72999">
        <ele>185.19</ele>
        <time>2021-03-26T09:36:23Z</time>
      </trkpt>
      <trkpt lat="46.69263" lon="-0.73018">
        <ele>185.19</ele>
        <time>2021-03-26T09:36:32Z</time>
      </trkpt>
      <trkpt lat="46.69271" lon="-0.7303">
        <ele>183.27</ele>
        <time>2021-03-26T09:36:41Z</time>
      </trkpt>
      <trkpt lat="46.69275" lon="-0.73034">
        <ele>182.31</ele>
        <time>2021-03-26T09:36:49Z</time>
      </trkpt>
      <trkpt lat="46.69286" lon="-0.73043">
        <ele>181.83</ele>
        <time>2021-03-26T09:36:56Z</time>
      </trkpt>
      <trkpt lat="46.69296" lon="-0.73053">
        <ele>181.35</ele>
        <time>2021-03-26T09:37:05Z</time>
      </trkpt>
      <trkpt lat="46.69306" lon="-0.73062">
        <ele>180.38</ele>
        <time>2021-03-26T09:37:14Z</time>
      </trkpt>
      <trkpt lat="46.69317" lon="-0.7307">
        <ele>179.42</ele>
        <time>2021-03-26T09:37:23Z</time>
      </trkpt>
      <trkpt lat="46.69326" lon="-0.73079">
        <ele>178.46</ele>
        <time>2021-03-26T09:37:33Z</time>
      </trkpt>
      <trkpt lat="46.69343" lon="-0.73092">
        <ele>177.02</ele>
        <time>2021-03-26T09:37:43Z</time>
      </trkpt>
      <trkpt lat="46.69349" lon="-0.73097">
        <ele>176.06</ele>
        <time>2021-03-26T09:37:51Z</time>
      </trkpt>
      <trkpt lat="46.69354" lon="-0.73102">
        <ele>176.06</ele>
        <time>2021-03-26T09:37:57Z</time>
      </trkpt>
      <trkpt lat="46.69356" lon="-0.73104">
        <ele>176.06</ele>
        <time>2021-03-26T09:37:59Z</time>
      </trkpt>
      <trkpt lat="46.69358" lon="-0.73105">
        <ele>176.06</ele>
        <time>2021-03-26T09:38:00Z</time>
      </trkpt>
      <trkpt lat="46.69372" lon="-0.73118">
        <ele>176.06</ele>
        <time>2021-03-26T09:38:09Z</time>
      </trkpt>
      <trkpt lat="46.69379" lon="-0.73123">
        <ele>176.06</ele>
        <time>2021-03-26T09:38:18Z</time>
      </trkpt>
      <trkpt lat="46.69391" lon="-0.73133">
        <ele>176.06</ele>
        <time>2021-03-26T09:38:28Z</time>
      </trkpt>
      <trkpt lat="46.69405" lon="-0.73143">
        <ele>176.06</ele>
        <time>2021-03-26T09:38:38Z</time>
      </trkpt>
      <trkpt lat="46.69415" lon="-0.7315">
        <ele>177.98</ele>
        <time>2021-03-26T09:38:46Z</time>
      </trkpt>
      <trkpt lat="46.69423" lon="-0.73156">
        <ele>179.42</ele>
        <time>2021-03-26T09:38:55Z</time>
      </trkpt>
      <trkpt lat="46.69433" lon="-0.73163">
        <ele>179.9</ele>
        <time>2021-03-26T09:39:03Z</time>
      </trkpt>
      <trkpt lat="46.69442" lon="-0.73169">
        <ele>180.87</ele>
        <time>2021-03-26T09:39:12Z</time>
      </trkpt>
      <trkpt lat="46.69452" lon="-0.73174">
        <ele>182.31</ele>
        <time>2021-03-26T09:39:21Z</time>
      </trkpt>
      <trkpt lat="46.69459" lon="-0.73177">
        <ele>183.27</ele>
        <time>2021-03-26T09:39:28Z</time>
      </trkpt>
      <trkpt lat="46.69469" lon="-0.7318">
        <ele>183.75</ele>
        <time>2021-03-26T09:39:36Z</time>
      </trkpt>
      <trkpt lat="46.69471" lon="-0.73182">
        <ele>183.75</ele>
        <time>2021-03-26T09:39:39Z</time>
      </trkpt>
      <trkpt lat="46.69472" lon="-0.73184">
        <ele>183.75</ele>
        <time>2021-03-26T09:39:40Z</time>
      </trkpt>
      <trkpt lat="46.69473" lon="-0.73186">
        <ele>184.23</ele>
        <time>2021-03-26T09:39:41Z</time>
      </trkpt>
      <trkpt lat="46.69474" lon="-0.73188">
        <ele>184.23</ele>
        <time>2021-03-26T09:39:42Z</time>
      </trkpt>
      <trkpt lat="46.69475" lon="-0.73191">
        <ele>184.23</ele>
        <time>2021-03-26T09:39:43Z</time>
      </trkpt>
      <trkpt lat="46.69476" lon="-0.73193">
        <ele>184.23</ele>
        <time>2021-03-26T09:39:44Z</time>
      </trkpt>
      <trkpt lat="46.69476" lon="-0.73203">
        <ele>185.67</ele>
        <time>2021-03-26T09:39:51Z</time>
      </trkpt>
      <trkpt lat="46.69477" lon="-0.73216">
        <ele>185.67</ele>
        <time>2021-03-26T09:39:58Z</time>
      </trkpt>
      <trkpt lat="46.69477" lon="-0.73219">
        <ele>185.19</ele>
        <time>2021-03-26T09:40:06Z</time>
      </trkpt>
      <trkpt lat="46.69479" lon="-0.73229">
        <ele>185.67</ele>
        <time>2021-03-26T09:40:15Z</time>
      </trkpt>
      <trkpt lat="46.6948" lon="-0.73234">
        <ele>185.19</ele>
        <time>2021-03-26T09:40:21Z</time>
      </trkpt>
      <trkpt lat="46.69483" lon="-0.73238">
        <ele>186.15</ele>
        <time>2021-03-26T09:40:27Z</time>
      </trkpt>
      <trkpt lat="46.69489" lon="-0.73244">
        <ele>186.15</ele>
        <time>2021-03-26T09:40:34Z</time>
      </trkpt>
      <trkpt lat="46.6949" lon="-0.73246">
        <ele>186.15</ele>
        <time>2021-03-26T09:40:35Z</time>
      </trkpt>
      <trkpt lat="46.69494" lon="-0.73249">
        <ele>186.63</ele>
        <time>2021-03-26T09:40:40Z</time>
      </trkpt>
      <trkpt lat="46.69494" lon="-0.7325">
        <ele>187.11</ele>
        <time>2021-03-26T09:40:41Z</time>
      </trkpt>
      <trkpt lat="46.69495" lon="-0.73252">
        <ele>187.11</ele>
        <time>2021-03-26T09:40:42Z</time>
      </trkpt>
      <trkpt lat="46.69496" lon="-0.73254">
        <ele>187.11</ele>
        <time>2021-03-26T09:40:43Z</time>
      </trkpt>
      <trkpt lat="46.69497" lon="-0.73256">
        <ele>187.11</ele>
        <time>2021-03-26T09:40:44Z</time>
      </trkpt>
      <trkpt lat="46.69498" lon="-0.73258">
        <ele>187.11</ele>
        <time>2021-03-26T09:40:45Z</time>
      </trkpt>
      <trkpt lat="46.69499" lon="-0.73259">
        <ele>187.59</ele>
        <time>2021-03-26T09:40:46Z</time>
      </trkpt>
      <trkpt lat="46.69503" lon="-0.7327">
        <ele>188.08</ele>
        <time>2021-03-26T09:40:54Z</time>
      </trkpt>
      <trkpt lat="46.69508" lon="-0.73278">
        <ele>188.08</ele>
        <time>2021-03-26T09:41:01Z</time>
      </trkpt>
      <trkpt lat="46.69515" lon="-0.73284">
        <ele>189.52</ele>
        <time>2021-03-26T09:41:09Z</time>
      </trkpt>
      <trkpt lat="46.69521" lon="-0.73286">
        <ele>190</ele>
        <time>2021-03-26T09:41:16Z</time>
      </trkpt>
      <trkpt lat="46.69523" lon="-0.73286">
        <ele>190.48</ele>
        <time>2021-03-26T09:41:27Z</time>
      </trkpt>
      <trkpt lat="46.69525" lon="-0.73289">
        <ele>190.48</ele>
        <time>2021-03-26T09:41:34Z</time>
      </trkpt>
      <trkpt lat="46.69526" lon="-0.7329">
        <ele>190.48</ele>
        <time>2021-03-26T09:41:35Z</time>
      </trkpt>
      <trkpt lat="46.69526" lon="-0.73291">
        <ele>190.48</ele>
        <time>2021-03-26T09:41:36Z</time>
      </trkpt>
      <trkpt lat="46.69527" lon="-0.73293">
        <ele>190.96</ele>
        <time>2021-03-26T09:41:37Z</time>
      </trkpt>
      <trkpt lat="46.69527" lon="-0.73294">
        <ele>190.96</ele>
        <time>2021-03-26T09:41:38Z</time>
      </trkpt>
      <trkpt lat="46.69527" lon="-0.73296">
        <ele>190.96</ele>
        <time>2021-03-26T09:41:39Z</time>
      </trkpt>
      <trkpt lat="46.69527" lon="-0.73297">
        <ele>190.96</ele>
        <time>2021-03-26T09:41:40Z</time>
      </trkpt>
      <trkpt lat="46.69525" lon="-0.73306">
        <ele>190.96</ele>
        <time>2021-03-26T09:41:51Z</time>
      </trkpt>
      <trkpt lat="46.69528" lon="-0.73305">
        <ele>190.96</ele>
        <time>2021-03-26T09:42:01Z</time>
      </trkpt>
      <trkpt lat="46.69526" lon="-0.73306">
        <ele>190.96</ele>
        <time>2021-03-26T09:42:13Z</time>
      </trkpt>
      <trkpt lat="46.69525" lon="-0.7331">
        <ele>190.96</ele>
        <time>2021-03-26T09:42:22Z</time>
      </trkpt>
      <trkpt lat="46.69523" lon="-0.7332">
        <ele>189.52</ele>
        <time>2021-03-26T09:42:31Z</time>
      </trkpt>
      <trkpt lat="46.69523" lon="-0.73321">
        <ele>189.52</ele>
        <time>2021-03-26T09:42:41Z</time>
      </trkpt>
      <trkpt lat="46.69521" lon="-0.73331">
        <ele>189.52</ele>
        <time>2021-03-26T09:42:49Z</time>
      </trkpt>
      <trkpt lat="46.6952" lon="-0.73335">
        <ele>189.04</ele>
        <time>2021-03-26T09:43:06Z</time>
      </trkpt>
      <trkpt lat="46.69516" lon="-0.73353">
        <ele>188.08</ele>
        <time>2021-03-26T09:43:16Z</time>
      </trkpt>
      <trkpt lat="46.69512" lon="-0.73365">
        <ele>188.08</ele>
        <time>2021-03-26T09:43:24Z</time>
      </trkpt>
      <trkpt lat="46.69502" lon="-0.73383">
        <ele>187.59</ele>
        <time>2021-03-26T09:43:37Z</time>
      </trkpt>
      <trkpt lat="46.69495" lon="-0.73397">
        <ele>187.11</ele>
        <time>2021-03-26T09:43:46Z</time>
      </trkpt>
      <trkpt lat="46.69491" lon="-0.73414">
        <ele>186.15</ele>
        <time>2021-03-26T09:43:53Z</time>
      </trkpt>
      <trkpt lat="46.6949" lon="-0.73414">
        <ele>187.11</ele>
        <time>2021-03-26T09:44:00Z</time>
      </trkpt>
      <trkpt lat="46.69491" lon="-0.73418">
        <ele>187.11</ele>
        <time>2021-03-26T09:44:08Z</time>
      </trkpt>
      <trkpt lat="46.69494" lon="-0.73422">
        <ele>187.11</ele>
        <time>2021-03-26T09:44:12Z</time>
      </trkpt>
      <trkpt lat="46.69496" lon="-0.73425">
        <ele>187.11</ele>
        <time>2021-03-26T09:44:17Z</time>
      </trkpt>
      <trkpt lat="46.69502" lon="-0.73432">
        <ele>188.08</ele>
        <time>2021-03-26T09:44:24Z</time>
      </trkpt>
      <trkpt lat="46.69515" lon="-0.73442">
        <ele>189.04</ele>
        <time>2021-03-26T09:44:35Z</time>
      </trkpt>
      <trkpt lat="46.69527" lon="-0.73448">
        <ele>189.52</ele>
        <time>2021-03-26T09:44:44Z</time>
      </trkpt>
      <trkpt lat="46.69533" lon="-0.73455">
        <ele>190</ele>
        <time>2021-03-26T09:44:51Z</time>
      </trkpt>
      <trkpt lat="46.69534" lon="-0.73456">
        <ele>190</ele>
        <time>2021-03-26T09:44:52Z</time>
      </trkpt>
      <trkpt lat="46.69535" lon="-0.73457">
        <ele>190.48</ele>
        <time>2021-03-26T09:44:53Z</time>
      </trkpt>
      <trkpt lat="46.69536" lon="-0.73458">
        <ele>190.48</ele>
        <time>2021-03-26T09:44:54Z</time>
      </trkpt>
      <trkpt lat="46.69538" lon="-0.73459">
        <ele>190.48</ele>
        <time>2021-03-26T09:44:59Z</time>
      </trkpt>
      <trkpt lat="46.6954" lon="-0.73462">
        <ele>190.96</ele>
        <time>2021-03-26T09:45:08Z</time>
      </trkpt>
      <trkpt lat="46.69542" lon="-0.73466">
        <ele>190.96</ele>
        <time>2021-03-26T09:45:12Z</time>
      </trkpt>
      <trkpt lat="46.69543" lon="-0.73467">
        <ele>190.96</ele>
        <time>2021-03-26T09:45:13Z</time>
      </trkpt>
      <trkpt lat="46.69544" lon="-0.73471">
        <ele>190.96</ele>
        <time>2021-03-26T09:45:17Z</time>
      </trkpt>
      <trkpt lat="46.69544" lon="-0.73473">
        <ele>190.96</ele>
        <time>2021-03-26T09:45:18Z</time>
      </trkpt>
      <trkpt lat="46.69549" lon="-0.73484">
        <ele>190.96</ele>
        <time>2021-03-26T09:45:25Z</time>
      </trkpt>
      <trkpt lat="46.69553" lon="-0.73498">
        <ele>190.96</ele>
        <time>2021-03-26T09:45:34Z</time>
      </trkpt>
      <trkpt lat="46.69556" lon="-0.73513">
        <ele>190.96</ele>
        <time>2021-03-26T09:45:42Z</time>
      </trkpt>
      <trkpt lat="46.6956" lon="-0.73528">
        <ele>190</ele>
        <time>2021-03-26T09:45:52Z</time>
      </trkpt>
      <trkpt lat="46.69566" lon="-0.73545">
        <ele>189.52</ele>
        <time>2021-03-26T09:46:00Z</time>
      </trkpt>
      <trkpt lat="46.6957" lon="-0.73555">
        <ele>189.52</ele>
        <time>2021-03-26T09:46:08Z</time>
      </trkpt>
      <trkpt lat="46.69581" lon="-0.73568">
        <ele>189.52</ele>
        <time>2021-03-26T09:46:17Z</time>
      </trkpt>
      <trkpt lat="46.69583" lon="-0.73574">
        <ele>189.52</ele>
        <time>2021-03-26T09:46:25Z</time>
      </trkpt>
      <trkpt lat="46.69583" lon="-0.73574">
        <ele>189.52</ele>
        <time>2021-03-26T09:46:30Z</time>
      </trkpt>
      <trkpt lat="46.69583" lon="-0.73573">
        <ele>189.52</ele>
        <time>2021-03-26T09:46:41Z</time>
      </trkpt>
      <trkpt lat="46.69585" lon="-0.73576">
        <ele>189.52</ele>
        <time>2021-03-26T09:46:45Z</time>
      </trkpt>
      <trkpt lat="46.69586" lon="-0.73578">
        <ele>189.52</ele>
        <time>2021-03-26T09:46:46Z</time>
      </trkpt>
      <trkpt lat="46.6959" lon="-0.73585">
        <ele>189.52</ele>
        <time>2021-03-26T09:46:53Z</time>
      </trkpt>
      <trkpt lat="46.69597" lon="-0.73595">
        <ele>189.52</ele>
        <time>2021-03-26T09:47:00Z</time>
      </trkpt>
      <trkpt lat="46.69603" lon="-0.73606">
        <ele>189.04</ele>
        <time>2021-03-26T09:47:07Z</time>
      </trkpt>
      <trkpt lat="46.69614" lon="-0.73622">
        <ele>188.56</ele>
        <time>2021-03-26T09:47:18Z</time>
      </trkpt>
      <trkpt lat="46.69616" lon="-0.73627">
        <ele>188.56</ele>
        <time>2021-03-26T09:47:24Z</time>
      </trkpt>
      <trkpt lat="46.69623" lon="-0.73637">
        <ele>188.08</ele>
        <time>2021-03-26T09:47:34Z</time>
      </trkpt>
      <trkpt lat="46.69624" lon="-0.7364">
        <ele>188.08</ele>
        <time>2021-03-26T09:47:41Z</time>
      </trkpt>
      <trkpt lat="46.69628" lon="-0.73645">
        <ele>187.59</ele>
        <time>2021-03-26T09:47:47Z</time>
      </trkpt>
      <trkpt lat="46.69633" lon="-0.73653">
        <ele>187.11</ele>
        <time>2021-03-26T09:47:54Z</time>
      </trkpt>
      <trkpt lat="46.69634" lon="-0.73655">
        <ele>187.11</ele>
        <time>2021-03-26T09:47:58Z</time>
      </trkpt>
      <trkpt lat="46.69635" lon="-0.73656">
        <ele>187.11</ele>
        <time>2021-03-26T09:47:59Z</time>
      </trkpt>
      <trkpt lat="46.69636" lon="-0.73657">
        <ele>187.11</ele>
        <time>2021-03-26T09:48:00Z</time>
      </trkpt>
      <trkpt lat="46.6964" lon="-0.73666">
        <ele>186.15</ele>
        <time>2021-03-26T09:48:08Z</time>
      </trkpt>
      <trkpt lat="46.69641" lon="-0.73667">
        <ele>186.15</ele>
        <time>2021-03-26T09:48:09Z</time>
      </trkpt>
      <trkpt lat="46.69642" lon="-0.73669">
        <ele>186.15</ele>
        <time>2021-03-26T09:48:10Z</time>
      </trkpt>
      <trkpt lat="46.6965" lon="-0.73683">
        <ele>184.71</ele>
        <time>2021-03-26T09:48:18Z</time>
      </trkpt>
      <trkpt lat="46.69651" lon="-0.73685">
        <ele>184.71</ele>
        <time>2021-03-26T09:48:21Z</time>
      </trkpt>
      <trkpt lat="46.69652" lon="-0.73686">
        <ele>184.71</ele>
        <time>2021-03-26T09:48:22Z</time>
      </trkpt>
      <trkpt lat="46.69657" lon="-0.73694">
        <ele>183.75</ele>
        <time>2021-03-26T09:48:29Z</time>
      </trkpt>
      <trkpt lat="46.69659" lon="-0.73697">
        <ele>183.27</ele>
        <time>2021-03-26T09:48:34Z</time>
      </trkpt>
      <trkpt lat="46.69661" lon="-0.73699">
        <ele>182.79</ele>
        <time>2021-03-26T09:48:36Z</time>
      </trkpt>
      <trkpt lat="46.69677" lon="-0.73716">
        <ele>181.35</ele>
        <time>2021-03-26T09:48:45Z</time>
      </trkpt>
      <trkpt lat="46.69681" lon="-0.73719">
        <ele>180.87</ele>
        <time>2021-03-26T09:48:50Z</time>
      </trkpt>
      <trkpt lat="46.69682" lon="-0.73718">
        <ele>180.87</ele>
        <time>2021-03-26T09:48:52Z</time>
      </trkpt>
      <trkpt lat="46.69683" lon="-0.73718">
        <ele>180.38</ele>
        <time>2021-03-26T09:48:53Z</time>
      </trkpt>
      <trkpt lat="46.69684" lon="-0.73718">
        <ele>180.38</ele>
        <time>2021-03-26T09:48:54Z</time>
      </trkpt>
      <trkpt lat="46.6969" lon="-0.73717">
        <ele>180.38</ele>
        <time>2021-03-26T09:49:00Z</time>
      </trkpt>
      <trkpt lat="46.69691" lon="-0.73716">
        <ele>179.9</ele>
        <time>2021-03-26T09:49:04Z</time>
      </trkpt>
      <trkpt lat="46.69694" lon="-0.73715">
        <ele>179.9</ele>
        <time>2021-03-26T09:49:09Z</time>
      </trkpt>
      <trkpt lat="46.69699" lon="-0.73714">
        <ele>179.9</ele>
        <time>2021-03-26T09:49:14Z</time>
      </trkpt>
      <trkpt lat="46.69706" lon="-0.73712">
        <ele>179.42</ele>
        <time>2021-03-26T09:49:21Z</time>
      </trkpt>
      <trkpt lat="46.69711" lon="-0.73711">
        <ele>179.42</ele>
        <time>2021-03-26T09:49:28Z</time>
      </trkpt>
      <trkpt lat="46.69722" lon="-0.73712">
        <ele>178.94</ele>
        <time>2021-03-26T09:49:35Z</time>
      </trkpt>
      <trkpt lat="46.69723" lon="-0.7371">
        <ele>178.94</ele>
        <time>2021-03-26T09:49:41Z</time>
      </trkpt>
      <trkpt lat="46.6973" lon="-0.73711">
        <ele>178.46</ele>
        <time>2021-03-26T09:49:49Z</time>
      </trkpt>
      <trkpt lat="46.69738" lon="-0.7371">
        <ele>178.46</ele>
        <time>2021-03-26T09:49:57Z</time>
      </trkpt>
      <trkpt lat="46.69739" lon="-0.7371">
        <ele>178.46</ele>
        <time>2021-03-26T09:49:58Z</time>
      </trkpt>
      <trkpt lat="46.69743" lon="-0.73711">
        <ele>178.46</ele>
        <time>2021-03-26T09:50:04Z</time>
      </trkpt>
      <trkpt lat="46.69744" lon="-0.73712">
        <ele>178.46</ele>
        <time>2021-03-26T09:50:13Z</time>
      </trkpt>
      <trkpt lat="46.69745" lon="-0.73712">
        <ele>178.46</ele>
        <time>2021-03-26T09:50:23Z</time>
      </trkpt>
      <trkpt lat="46.69745" lon="-0.73711">
        <ele>177.98</ele>
        <time>2021-03-26T09:50:30Z</time>
      </trkpt>
      <trkpt lat="46.69749" lon="-0.73714">
        <ele>178.46</ele>
        <time>2021-03-26T09:50:45Z</time>
      </trkpt>
      <trkpt lat="46.69749" lon="-0.73715">
        <ele>178.46</ele>
        <time>2021-03-26T09:50:56Z</time>
      </trkpt>
      <trkpt lat="46.69747" lon="-0.73718">
        <ele>178.46</ele>
        <time>2021-03-26T09:51:16Z</time>
      </trkpt>
      <trkpt lat="46.69749" lon="-0.73719">
        <ele>178.46</ele>
        <time>2021-03-26T09:51:26Z</time>
      </trkpt>
      <trkpt lat="46.6975" lon="-0.7372">
        <ele>178.46</ele>
        <time>2021-03-26T09:51:36Z</time>
      </trkpt>
      <trkpt lat="46.69752" lon="-0.73719">
        <ele>178.46</ele>
        <time>2021-03-26T09:51:53Z</time>
      </trkpt>
      <trkpt lat="46.69752" lon="-0.73713">
        <ele>178.46</ele>
        <time>2021-03-26T09:52:04Z</time>
      </trkpt>
      <trkpt lat="46.69754" lon="-0.73712">
        <ele>178.46</ele>
        <time>2021-03-26T09:52:16Z</time>
      </trkpt>
      <trkpt lat="46.69754" lon="-0.73714">
        <ele>178.46</ele>
        <time>2021-03-26T09:52:31Z</time>
      </trkpt>
      <trkpt lat="46.69754" lon="-0.73718">
        <ele>178.46</ele>
        <time>2021-03-26T09:52:38Z</time>
      </trkpt>
      <trkpt lat="46.69754" lon="-0.73721">
        <ele>177.5</ele>
        <time>2021-03-26T09:52:42Z</time>
      </trkpt>
      <trkpt lat="46.69752" lon="-0.73727">
        <ele>177.5</ele>
        <time>2021-03-26T09:52:48Z</time>
      </trkpt>
      <trkpt lat="46.69749" lon="-0.73736">
        <ele>177.02</ele>
        <time>2021-03-26T09:52:55Z</time>
      </trkpt>
      <trkpt lat="46.69747" lon="-0.73744">
        <ele>177.02</ele>
        <time>2021-03-26T09:53:02Z</time>
      </trkpt>
      <trkpt lat="46.69747" lon="-0.73746">
        <ele>177.02</ele>
        <time>2021-03-26T09:53:03Z</time>
      </trkpt>
      <trkpt lat="46.69747" lon="-0.73748">
        <ele>177.02</ele>
        <time>2021-03-26T09:53:04Z</time>
      </trkpt>
      <trkpt lat="46.69747" lon="-0.73751">
        <ele>177.02</ele>
        <time>2021-03-26T09:53:05Z</time>
      </trkpt>
      <trkpt lat="46.69746" lon="-0.73758">
        <ele>177.02</ele>
        <time>2021-03-26T09:53:10Z</time>
      </trkpt>
      <trkpt lat="46.69744" lon="-0.73774">
        <ele>178.46</ele>
        <time>2021-03-26T09:53:19Z</time>
      </trkpt>
      <trkpt lat="46.6974" lon="-0.73793">
        <ele>179.42</ele>
        <time>2021-03-26T09:53:29Z</time>
      </trkpt>
      <trkpt lat="46.69738" lon="-0.7381">
        <ele>179.42</ele>
        <time>2021-03-26T09:53:39Z</time>
      </trkpt>
      <trkpt lat="46.69738" lon="-0.7381">
        <ele>179.42</ele>
        <time>2021-03-26T09:53:51Z</time>
      </trkpt>
      <trkpt lat="46.69738" lon="-0.73812">
        <ele>179.42</ele>
        <time>2021-03-26T09:54:03Z</time>
      </trkpt>
      <trkpt lat="46.69739" lon="-0.73812">
        <ele>179.42</ele>
        <time>2021-03-26T09:54:15Z</time>
      </trkpt>
      <trkpt lat="46.69739" lon="-0.73811">
        <ele>179.42</ele>
        <time>2021-03-26T09:54:22Z</time>
      </trkpt>
      <trkpt lat="46.6974" lon="-0.73814">
        <ele>179.42</ele>
        <time>2021-03-26T09:54:29Z</time>
      </trkpt>
      <trkpt lat="46.6974" lon="-0.73815">
        <ele>179.42</ele>
        <time>2021-03-26T09:54:36Z</time>
      </trkpt>
      <trkpt lat="46.69741" lon="-0.73816">
        <ele>179.42</ele>
        <time>2021-03-26T09:54:45Z</time>
      </trkpt>
      <trkpt lat="46.69741" lon="-0.73821">
        <ele>179.42</ele>
        <time>2021-03-26T09:54:49Z</time>
      </trkpt>
      <trkpt lat="46.69742" lon="-0.73827">
        <ele>179.42</ele>
        <time>2021-03-26T09:54:52Z</time>
      </trkpt>
      <trkpt lat="46.69742" lon="-0.73829">
        <ele>179.42</ele>
        <time>2021-03-26T09:54:53Z</time>
      </trkpt>
      <trkpt lat="46.69742" lon="-0.73831">
        <ele>179.42</ele>
        <time>2021-03-26T09:54:54Z</time>
      </trkpt>
      <trkpt lat="46.69742" lon="-0.73834">
        <ele>179.42</ele>
        <time>2021-03-26T09:54:57Z</time>
      </trkpt>
      <trkpt lat="46.69742" lon="-0.73836">
        <ele>179.42</ele>
        <time>2021-03-26T09:54:58Z</time>
      </trkpt>
      <trkpt lat="46.69743" lon="-0.73853">
        <ele>179.9</ele>
        <time>2021-03-26T09:55:09Z</time>
      </trkpt>
      <trkpt lat="46.69744" lon="-0.73863">
        <ele>179.9</ele>
        <time>2021-03-26T09:55:17Z</time>
      </trkpt>
      <trkpt lat="46.69746" lon="-0.73873">
        <ele>179.9</ele>
        <time>2021-03-26T09:55:26Z</time>
      </trkpt>
      <trkpt lat="46.69746" lon="-0.73886">
        <ele>179.9</ele>
        <time>2021-03-26T09:55:33Z</time>
      </trkpt>
      <trkpt lat="46.69748" lon="-0.73907">
        <ele>179.9</ele>
        <time>2021-03-26T09:55:44Z</time>
      </trkpt>
      <trkpt lat="46.69751" lon="-0.73923">
        <ele>179.9</ele>
        <time>2021-03-26T09:55:53Z</time>
      </trkpt>
      <trkpt lat="46.69753" lon="-0.73942">
        <ele>179.9</ele>
        <time>2021-03-26T09:56:02Z</time>
      </trkpt>
      <trkpt lat="46.69758" lon="-0.73959">
        <ele>179.9</ele>
        <time>2021-03-26T09:56:11Z</time>
      </trkpt>
      <trkpt lat="46.69761" lon="-0.73976">
        <ele>179.9</ele>
        <time>2021-03-26T09:56:21Z</time>
      </trkpt>
      <trkpt lat="46.69761" lon="-0.73977">
        <ele>179.9</ele>
        <time>2021-03-26T09:56:22Z</time>
      </trkpt>
      <trkpt lat="46.69761" lon="-0.73978">
        <ele>179.9</ele>
        <time>2021-03-26T09:56:28Z</time>
      </trkpt>
      <trkpt lat="46.69761" lon="-0.73976">
        <ele>179.9</ele>
        <time>2021-03-26T09:56:35Z</time>
      </trkpt>
      <trkpt lat="46.69759" lon="-0.73975">
        <ele>179.9</ele>
        <time>2021-03-26T09:56:42Z</time>
      </trkpt>
      <trkpt lat="46.69759" lon="-0.73976">
        <ele>179.9</ele>
        <time>2021-03-26T09:56:59Z</time>
      </trkpt>
      <trkpt lat="46.6976" lon="-0.73978">
        <ele>179.9</ele>
        <time>2021-03-26T09:57:10Z</time>
      </trkpt>
      <trkpt lat="46.69761" lon="-0.73979">
        <ele>179.9</ele>
        <time>2021-03-26T09:57:22Z</time>
      </trkpt>
      <trkpt lat="46.6976" lon="-0.73978">
        <ele>179.9</ele>
        <time>2021-03-26T09:57:34Z</time>
      </trkpt>
      <trkpt lat="46.6976" lon="-0.73977">
        <ele>179.9</ele>
        <time>2021-03-26T09:57:50Z</time>
      </trkpt>
      <trkpt lat="46.69757" lon="-0.73978">
        <ele>179.9</ele>
        <time>2021-03-26T09:58:16Z</time>
      </trkpt>
      <trkpt lat="46.6976" lon="-0.73979">
        <ele>179.9</ele>
        <time>2021-03-26T09:58:35Z</time>
      </trkpt>
      <trkpt lat="46.69762" lon="-0.7399">
        <ele>179.9</ele>
        <time>2021-03-26T09:58:45Z</time>
      </trkpt>
      <trkpt lat="46.69763" lon="-0.73996">
        <ele>179.9</ele>
        <time>2021-03-26T09:58:49Z</time>
      </trkpt>
      <trkpt lat="46.69765" lon="-0.74005">
        <ele>179.9</ele>
        <time>2021-03-26T09:58:59Z</time>
      </trkpt>
      <trkpt lat="46.69764" lon="-0.74005">
        <ele>179.9</ele>
        <time>2021-03-26T09:59:08Z</time>
      </trkpt>
      <trkpt lat="46.69765" lon="-0.74005">
        <ele>179.9</ele>
        <time>2021-03-26T09:59:23Z</time>
      </trkpt>
      <trkpt lat="46.69768" lon="-0.74017">
        <ele>179.9</ele>
        <time>2021-03-26T09:59:31Z</time>
      </trkpt>
      <trkpt lat="46.69771" lon="-0.74034">
        <ele>179.9</ele>
        <time>2021-03-26T09:59:41Z</time>
      </trkpt>
      <trkpt lat="46.69773" lon="-0.74047">
        <ele>180.38</ele>
        <time>2021-03-26T09:59:49Z</time>
      </trkpt>
      <trkpt lat="46.69778" lon="-0.74058">
        <ele>180.87</ele>
        <time>2021-03-26T09:59:58Z</time>
      </trkpt>
      <trkpt lat="46.69782" lon="-0.74069">
        <ele>181.35</ele>
        <time>2021-03-26T10:00:06Z</time>
      </trkpt>
      <trkpt lat="46.69787" lon="-0.74081">
        <ele>181.83</ele>
        <time>2021-03-26T10:00:13Z</time>
      </trkpt>
      <trkpt lat="46.69788" lon="-0.74085">
        <ele>182.31</ele>
        <time>2021-03-26T10:00:16Z</time>
      </trkpt>
      <trkpt lat="46.6979" lon="-0.74102">
        <ele>183.75</ele>
        <time>2021-03-26T10:00:25Z</time>
      </trkpt>
      <trkpt lat="46.6979" lon="-0.74104">
        <ele>183.75</ele>
        <time>2021-03-26T10:00:31Z</time>
      </trkpt>
      <trkpt lat="46.6979" lon="-0.74103">
        <ele>183.75</ele>
        <time>2021-03-26T10:00:47Z</time>
      </trkpt>
      <trkpt lat="46.6979" lon="-0.74102">
        <ele>183.75</ele>
        <time>2021-03-26T10:00:57Z</time>
      </trkpt>
      <trkpt lat="46.69789" lon="-0.74103">
        <ele>183.75</ele>
        <time>2021-03-26T10:01:15Z</time>
      </trkpt>
      <trkpt lat="46.69791" lon="-0.74108">
        <ele>183.75</ele>
        <time>2021-03-26T10:01:18Z</time>
      </trkpt>
      <trkpt lat="46.69795" lon="-0.74117">
        <ele>184.23</ele>
        <time>2021-03-26T10:01:26Z</time>
      </trkpt>
      <trkpt lat="46.69795" lon="-0.7412">
        <ele>184.23</ele>
        <time>2021-03-26T10:01:37Z</time>
      </trkpt>
      <trkpt lat="46.69798" lon="-0.74119">
        <ele>184.71</ele>
        <time>2021-03-26T10:01:47Z</time>
      </trkpt>
      <trkpt lat="46.69806" lon="-0.74117">
        <ele>185.67</ele>
        <time>2021-03-26T10:01:55Z</time>
      </trkpt>
      <trkpt lat="46.69809" lon="-0.74117">
        <ele>185.67</ele>
        <time>2021-03-26T10:02:02Z</time>
      </trkpt>
      <trkpt lat="46.69812" lon="-0.74117">
        <ele>186.15</ele>
        <time>2021-03-26T10:02:11Z</time>
      </trkpt>
      <trkpt lat="46.69814" lon="-0.74117">
        <ele>186.15</ele>
        <time>2021-03-26T10:02:13Z</time>
      </trkpt>
      <trkpt lat="46.69822" lon="-0.74115">
        <ele>186.63</ele>
        <time>2021-03-26T10:02:22Z</time>
      </trkpt>
      <trkpt lat="46.69823" lon="-0.74115">
        <ele>186.63</ele>
        <time>2021-03-26T10:02:23Z</time>
      </trkpt>
      <trkpt lat="46.69838" lon="-0.74113">
        <ele>187.11</ele>
        <time>2021-03-26T10:02:36Z</time>
      </trkpt>
      <trkpt lat="46.69853" lon="-0.74116">
        <ele>187.59</ele>
        <time>2021-03-26T10:02:48Z</time>
      </trkpt>
      <trkpt lat="46.69864" lon="-0.74121">
        <ele>187.59</ele>
        <time>2021-03-26T10:02:58Z</time>
      </trkpt>
      <trkpt lat="46.69871" lon="-0.74126">
        <ele>187.59</ele>
        <time>2021-03-26T10:03:05Z</time>
      </trkpt>
      <trkpt lat="46.69888" lon="-0.74126">
        <ele>187.59</ele>
        <time>2021-03-26T10:03:18Z</time>
      </trkpt>
      <trkpt lat="46.69903" lon="-0.74122">
        <ele>187.59</ele>
        <time>2021-03-26T10:03:30Z</time>
      </trkpt>
      <trkpt lat="46.69915" lon="-0.74115">
        <ele>186.15</ele>
        <time>2021-03-26T10:03:40Z</time>
      </trkpt>
      <trkpt lat="46.6993" lon="-0.74103">
        <ele>186.15</ele>
        <time>2021-03-26T10:03:54Z</time>
      </trkpt>
      <trkpt lat="46.69945" lon="-0.74088">
        <ele>186.15</ele>
        <time>2021-03-26T10:04:08Z</time>
      </trkpt>
      <trkpt lat="46.69957" lon="-0.74077">
        <ele>186.15</ele>
        <time>2021-03-26T10:04:17Z</time>
      </trkpt>
      <trkpt lat="46.69975" lon="-0.7406">
        <ele>186.15</ele>
        <time>2021-03-26T10:04:32Z</time>
      </trkpt>
      <trkpt lat="46.69987" lon="-0.74046">
        <ele>188.08</ele>
        <time>2021-03-26T10:04:45Z</time>
      </trkpt>
      <trkpt lat="46.70004" lon="-0.7403">
        <ele>189.04</ele>
        <time>2021-03-26T10:05:00Z</time>
      </trkpt>
      <trkpt lat="46.7002" lon="-0.74017">
        <ele>189.52</ele>
        <time>2021-03-26T10:05:12Z</time>
      </trkpt>
      <trkpt lat="46.70034" lon="-0.74005">
        <ele>189.52</ele>
        <time>2021-03-26T10:05:23Z</time>
      </trkpt>
      <trkpt lat="46.70045" lon="-0.73989">
        <ele>188.56</ele>
        <time>2021-03-26T10:05:37Z</time>
      </trkpt>
      <trkpt lat="46.70056" lon="-0.73976">
        <ele>188.56</ele>
        <time>2021-03-26T10:05:47Z</time>
      </trkpt>
      <trkpt lat="46.70069" lon="-0.73956">
        <ele>188.08</ele>
        <time>2021-03-26T10:06:00Z</time>
      </trkpt>
      <trkpt lat="46.7008" lon="-0.73936">
        <ele>187.59</ele>
        <time>2021-03-26T10:06:15Z</time>
      </trkpt>
      <trkpt lat="46.70092" lon="-0.73922">
        <ele>187.59</ele>
        <time>2021-03-26T10:06:26Z</time>
      </trkpt>
      <trkpt lat="46.70106" lon="-0.73909">
        <ele>187.59</ele>
        <time>2021-03-26T10:06:38Z</time>
      </trkpt>
      <trkpt lat="46.70108" lon="-0.73908">
        <ele>187.59</ele>
        <time>2021-03-26T10:06:46Z</time>
      </trkpt>
      <trkpt lat="46.70106" lon="-0.73909">
        <ele>187.59</ele>
        <time>2021-03-26T10:06:57Z</time>
      </trkpt>
      <trkpt lat="46.70109" lon="-0.73905">
        <ele>187.59</ele>
        <time>2021-03-26T10:07:08Z</time>
      </trkpt>
      <trkpt lat="46.70119" lon="-0.73895">
        <ele>188.56</ele>
        <time>2021-03-26T10:07:18Z</time>
      </trkpt>
      <trkpt lat="46.70131" lon="-0.73882">
        <ele>188.56</ele>
        <time>2021-03-26T10:07:29Z</time>
      </trkpt>
      <trkpt lat="46.70148" lon="-0.73866">
        <ele>188.56</ele>
        <time>2021-03-26T10:07:43Z</time>
      </trkpt>
      <trkpt lat="46.70158" lon="-0.73856">
        <ele>189.52</ele>
        <time>2021-03-26T10:07:53Z</time>
      </trkpt>
      <trkpt lat="46.7017" lon="-0.73845">
        <ele>189.52</ele>
        <time>2021-03-26T10:08:04Z</time>
      </trkpt>
      <trkpt lat="46.70183" lon="-0.73835">
        <ele>190</ele>
        <time>2021-03-26T10:08:16Z</time>
      </trkpt>
      <trkpt lat="46.70194" lon="-0.73823">
        <ele>190.48</ele>
        <time>2021-03-26T10:08:27Z</time>
      </trkpt>
      <trkpt lat="46.70207" lon="-0.73809">
        <ele>190.48</ele>
        <time>2021-03-26T10:08:39Z</time>
      </trkpt>
      <trkpt lat="46.70223" lon="-0.7379">
        <ele>190.48</ele>
        <time>2021-03-26T10:08:52Z</time>
      </trkpt>
      <trkpt lat="46.70237" lon="-0.73774">
        <ele>190.96</ele>
        <time>2021-03-26T10:09:05Z</time>
      </trkpt>
      <trkpt lat="46.70251" lon="-0.73762">
        <ele>190.96</ele>
        <time>2021-03-26T10:09:19Z</time>
      </trkpt>
      <trkpt lat="46.70268" lon="-0.73745">
        <ele>191.44</ele>
        <time>2021-03-26T10:09:33Z</time>
      </trkpt>
      <trkpt lat="46.70287" lon="-0.73729">
        <ele>191.44</ele>
        <time>2021-03-26T10:09:48Z</time>
      </trkpt>
      <trkpt lat="46.70301" lon="-0.73722">
        <ele>192.4</ele>
        <time>2021-03-26T10:10:01Z</time>
      </trkpt>
      <trkpt lat="46.70317" lon="-0.73712">
        <ele>192.88</ele>
        <time>2021-03-26T10:10:13Z</time>
      </trkpt>
      <trkpt lat="46.70333" lon="-0.73701">
        <ele>193.36</ele>
        <time>2021-03-26T10:10:25Z</time>
      </trkpt>
      <trkpt lat="46.70343" lon="-0.73692">
        <ele>194.32</ele>
        <time>2021-03-26T10:10:35Z</time>
      </trkpt>
      <trkpt lat="46.70346" lon="-0.7369">
        <ele>194.8</ele>
        <time>2021-03-26T10:10:38Z</time>
      </trkpt>
      <trkpt lat="46.70348" lon="-0.7369">
        <ele>194.32</ele>
        <time>2021-03-26T10:10:39Z</time>
      </trkpt>
      <trkpt lat="46.70349" lon="-0.73689">
        <ele>195.28</ele>
        <time>2021-03-26T10:10:40Z</time>
      </trkpt>
      <trkpt lat="46.7035" lon="-0.73688">
        <ele>194.8</ele>
        <time>2021-03-26T10:10:41Z</time>
      </trkpt>
      <trkpt lat="46.70353" lon="-0.73687">
        <ele>196.25</ele>
        <time>2021-03-26T10:10:48Z</time>
      </trkpt>
      <trkpt lat="46.70353" lon="-0.73684">
        <ele>196.25</ele>
        <time>2021-03-26T10:10:59Z</time>
      </trkpt>
      <trkpt lat="46.70356" lon="-0.73683">
        <ele>196.25</ele>
        <time>2021-03-26T10:11:07Z</time>
      </trkpt>
      <trkpt lat="46.70357" lon="-0.73683">
        <ele>196.25</ele>
        <time>2021-03-26T10:11:08Z</time>
      </trkpt>
      <trkpt lat="46.70365" lon="-0.73681">
        <ele>195.77</ele>
        <time>2021-03-26T10:11:15Z</time>
      </trkpt>
      <trkpt lat="46.70369" lon="-0.7368">
        <ele>196.25</ele>
        <time>2021-03-26T10:11:21Z</time>
      </trkpt>
      <trkpt lat="46.7037" lon="-0.73679">
        <ele>196.25</ele>
        <time>2021-03-26T10:11:32Z</time>
      </trkpt>
      <trkpt lat="46.70376" lon="-0.73678">
        <ele>196.25</ele>
        <time>2021-03-26T10:11:38Z</time>
      </trkpt>
      <trkpt lat="46.70385" lon="-0.73676">
        <ele>196.25</ele>
        <time>2021-03-26T10:11:46Z</time>
      </trkpt>
      <trkpt lat="46.704" lon="-0.73674">
        <ele>196.25</ele>
        <time>2021-03-26T10:11:58Z</time>
      </trkpt>
      <trkpt lat="46.70408" lon="-0.73672">
        <ele>196.25</ele>
        <time>2021-03-26T10:12:06Z</time>
      </trkpt>
      <trkpt lat="46.70419" lon="-0.73671">
        <ele>196.25</ele>
        <time>2021-03-26T10:12:15Z</time>
      </trkpt>
      <trkpt lat="46.7043" lon="-0.73669">
        <ele>196.73</ele>
        <time>2021-03-26T10:12:24Z</time>
      </trkpt>
      <trkpt lat="46.70436" lon="-0.73667">
        <ele>196.73</ele>
        <time>2021-03-26T10:12:31Z</time>
      </trkpt>
      <trkpt lat="46.70445" lon="-0.73666">
        <ele>197.21</ele>
        <time>2021-03-26T10:12:40Z</time>
      </trkpt>
      <trkpt lat="46.7046" lon="-0.7366">
        <ele>197.69</ele>
        <time>2021-03-26T10:12:51Z</time>
      </trkpt>
      <trkpt lat="46.70473" lon="-0.73656">
        <ele>197.69</ele>
        <time>2021-03-26T10:13:01Z</time>
      </trkpt>
      <trkpt lat="46.70488" lon="-0.73653">
        <ele>198.17</ele>
        <time>2021-03-26T10:13:10Z</time>
      </trkpt>
      <trkpt lat="46.70493" lon="-0.73651">
        <ele>198.17</ele>
        <time>2021-03-26T10:13:17Z</time>
      </trkpt>
      <trkpt lat="46.70506" lon="-0.73649">
        <ele>198.65</ele>
        <time>2021-03-26T10:13:24Z</time>
      </trkpt>
      <trkpt lat="46.70512" lon="-0.73647">
        <ele>198.65</ele>
        <time>2021-03-26T10:13:32Z</time>
      </trkpt>
      <trkpt lat="46.70516" lon="-0.73647">
        <ele>199.13</ele>
        <time>2021-03-26T10:13:40Z</time>
      </trkpt>
      <trkpt lat="46.7052" lon="-0.73643">
        <ele>199.13</ele>
        <time>2021-03-26T10:13:48Z</time>
      </trkpt>
      <trkpt lat="46.70523" lon="-0.73642">
        <ele>199.13</ele>
        <time>2021-03-26T10:13:53Z</time>
      </trkpt>
      <trkpt lat="46.70534" lon="-0.73641">
        <ele>198.65</ele>
        <time>2021-03-26T10:14:01Z</time>
      </trkpt>
      <trkpt lat="46.70539" lon="-0.73638">
        <ele>198.65</ele>
        <time>2021-03-26T10:14:07Z</time>
      </trkpt>
      <trkpt lat="46.70549" lon="-0.73634">
        <ele>199.61</ele>
        <time>2021-03-26T10:14:14Z</time>
      </trkpt>
      <trkpt lat="46.70558" lon="-0.73629">
        <ele>199.61</ele>
        <time>2021-03-26T10:14:21Z</time>
      </trkpt>
      <trkpt lat="46.70565" lon="-0.73623">
        <ele>200.09</ele>
        <time>2021-03-26T10:14:28Z</time>
      </trkpt>
      <trkpt lat="46.7057" lon="-0.73616">
        <ele>200.09</ele>
        <time>2021-03-26T10:14:41Z</time>
      </trkpt>
      <trkpt lat="46.70572" lon="-0.73613">
        <ele>200.09</ele>
        <time>2021-03-26T10:14:45Z</time>
      </trkpt>
      <trkpt lat="46.70578" lon="-0.73602">
        <ele>200.09</ele>
        <time>2021-03-26T10:14:53Z</time>
      </trkpt>
      <trkpt lat="46.70583" lon="-0.7359">
        <ele>200.57</ele>
        <time>2021-03-26T10:15:01Z</time>
      </trkpt>
      <trkpt lat="46.70588" lon="-0.73582">
        <ele>201.05</ele>
        <time>2021-03-26T10:15:09Z</time>
      </trkpt>
      <trkpt lat="46.7059" lon="-0.73582">
        <ele>201.05</ele>
        <time>2021-03-26T10:15:19Z</time>
      </trkpt>
      <trkpt lat="46.70592" lon="-0.7358">
        <ele>201.05</ele>
        <time>2021-03-26T10:15:31Z</time>
      </trkpt>
      <trkpt lat="46.70592" lon="-0.7358">
        <ele>200.57</ele>
        <time>2021-03-26T10:15:48Z</time>
      </trkpt>
      <trkpt lat="46.70593" lon="-0.73581">
        <ele>201.53</ele>
        <time>2021-03-26T10:15:59Z</time>
      </trkpt>
      <trkpt lat="46.70594" lon="-0.73576">
        <ele>201.05</ele>
        <time>2021-03-26T10:16:10Z</time>
      </trkpt>
      <trkpt lat="46.70596" lon="-0.73568">
        <ele>201.05</ele>
        <time>2021-03-26T10:16:17Z</time>
      </trkpt>
      <trkpt lat="46.70599" lon="-0.73552">
        <ele>201.05</ele>
        <time>2021-03-26T10:16:25Z</time>
      </trkpt>
      <trkpt lat="46.706" lon="-0.73548">
        <ele>200.09</ele>
        <time>2021-03-26T10:16:28Z</time>
      </trkpt>
      <trkpt lat="46.70602" lon="-0.73532">
        <ele>199.13</ele>
        <time>2021-03-26T10:16:40Z</time>
      </trkpt>
      <trkpt lat="46.70605" lon="-0.73511">
        <ele>197.69</ele>
        <time>2021-03-26T10:16:48Z</time>
      </trkpt>
      <trkpt lat="46.70609" lon="-0.73501">
        <ele>196.73</ele>
        <time>2021-03-26T10:16:56Z</time>
      </trkpt>
      <trkpt lat="46.70611" lon="-0.73499">
        <ele>196.73</ele>
        <time>2021-03-26T10:17:04Z</time>
      </trkpt>
      <trkpt lat="46.70612" lon="-0.73497">
        <ele>196.73</ele>
        <time>2021-03-26T10:17:13Z</time>
      </trkpt>
      <trkpt lat="46.70612" lon="-0.73497">
        <ele>196.73</ele>
        <time>2021-03-26T10:17:26Z</time>
      </trkpt>
      <trkpt lat="46.70611" lon="-0.73497">
        <ele>196.25</ele>
        <time>2021-03-26T10:17:37Z</time>
      </trkpt>
      <trkpt lat="46.70611" lon="-0.73495">
        <ele>196.25</ele>
        <time>2021-03-26T10:17:50Z</time>
      </trkpt>
      <trkpt lat="46.70614" lon="-0.73497">
        <ele>195.77</ele>
        <time>2021-03-26T10:17:59Z</time>
      </trkpt>
      <trkpt lat="46.70613" lon="-0.73499">
        <ele>195.77</ele>
        <time>2021-03-26T10:18:27Z</time>
      </trkpt>
      <trkpt lat="46.70614" lon="-0.73499">
        <ele>195.77</ele>
        <time>2021-03-26T10:18:47Z</time>
      </trkpt>
      <trkpt lat="46.70612" lon="-0.73494">
        <ele>195.77</ele>
        <time>2021-03-26T10:18:56Z</time>
      </trkpt>
      <trkpt lat="46.70612" lon="-0.7349">
        <ele>195.77</ele>
        <time>2021-03-26T10:19:03Z</time>
      </trkpt>
      <trkpt lat="46.70613" lon="-0.73479">
        <ele>195.77</ele>
        <time>2021-03-26T10:19:11Z</time>
      </trkpt>
      <trkpt lat="46.70611" lon="-0.73472">
        <ele>195.77</ele>
        <time>2021-03-26T10:19:19Z</time>
      </trkpt>
      <trkpt lat="46.7061" lon="-0.73465">
        <ele>195.77</ele>
        <time>2021-03-26T10:19:25Z</time>
      </trkpt>
      <trkpt lat="46.70608" lon="-0.73455">
        <ele>195.77</ele>
        <time>2021-03-26T10:19:33Z</time>
      </trkpt>
      <trkpt lat="46.70607" lon="-0.73447">
        <ele>195.77</ele>
        <time>2021-03-26T10:19:39Z</time>
      </trkpt>
      <trkpt lat="46.70607" lon="-0.73435">
        <ele>195.28</ele>
        <time>2021-03-26T10:19:48Z</time>
      </trkpt>
      <trkpt lat="46.70608" lon="-0.73426">
        <ele>194.8</ele>
        <time>2021-03-26T10:19:57Z</time>
      </trkpt>
      <trkpt lat="46.70613" lon="-0.73416">
        <ele>194.32</ele>
        <time>2021-03-26T10:20:06Z</time>
      </trkpt>
      <trkpt lat="46.70615" lon="-0.73414">
        <ele>193.84</ele>
        <time>2021-03-26T10:20:13Z</time>
      </trkpt>
      <trkpt lat="46.70615" lon="-0.73413">
        <ele>193.84</ele>
        <time>2021-03-26T10:20:26Z</time>
      </trkpt>
      <trkpt lat="46.70613" lon="-0.73411">
        <ele>193.84</ele>
        <time>2021-03-26T10:20:31Z</time>
      </trkpt>
      <trkpt lat="46.70613" lon="-0.73404">
        <ele>193.84</ele>
        <time>2021-03-26T10:20:39Z</time>
      </trkpt>
      <trkpt lat="46.70611" lon="-0.73399">
        <ele>193.84</ele>
        <time>2021-03-26T10:20:55Z</time>
      </trkpt>
      <trkpt lat="46.70611" lon="-0.73398">
        <ele>193.84</ele>
        <time>2021-03-26T10:20:58Z</time>
      </trkpt>
      <trkpt lat="46.70612" lon="-0.73387">
        <ele>193.36</ele>
        <time>2021-03-26T10:21:07Z</time>
      </trkpt>
      <trkpt lat="46.70612" lon="-0.73385">
        <ele>193.36</ele>
        <time>2021-03-26T10:21:09Z</time>
      </trkpt>
      <trkpt lat="46.70613" lon="-0.73381">
        <ele>193.36</ele>
        <time>2021-03-26T10:21:12Z</time>
      </trkpt>
      <trkpt lat="46.70617" lon="-0.73359">
        <ele>192.88</ele>
        <time>2021-03-26T10:21:23Z</time>
      </trkpt>
      <trkpt lat="46.70621" lon="-0.73342">
        <ele>192.4</ele>
        <time>2021-03-26T10:21:30Z</time>
      </trkpt>
      <trkpt lat="46.70623" lon="-0.73323">
        <ele>191.92</ele>
        <time>2021-03-26T10:21:40Z</time>
      </trkpt>
      <trkpt lat="46.70626" lon="-0.73308">
        <ele>191.44</ele>
        <time>2021-03-26T10:21:52Z</time>
      </trkpt>
      <trkpt lat="46.70629" lon="-0.73292">
        <ele>191.44</ele>
        <time>2021-03-26T10:22:00Z</time>
      </trkpt>
      <trkpt lat="46.70633" lon="-0.73264">
        <ele>191.44</ele>
        <time>2021-03-26T10:22:10Z</time>
      </trkpt>
      <trkpt lat="46.70634" lon="-0.73255">
        <ele>192.4</ele>
        <time>2021-03-26T10:22:15Z</time>
      </trkpt>
      <trkpt lat="46.70637" lon="-0.73239">
        <ele>193.84</ele>
        <time>2021-03-26T10:22:25Z</time>
      </trkpt>
      <trkpt lat="46.70641" lon="-0.73222">
        <ele>195.28</ele>
        <time>2021-03-26T10:22:33Z</time>
      </trkpt>
      <trkpt lat="46.70645" lon="-0.73205">
        <ele>196.73</ele>
        <time>2021-03-26T10:22:43Z</time>
      </trkpt>
      <trkpt lat="46.70649" lon="-0.73194">
        <ele>197.21</ele>
        <time>2021-03-26T10:22:50Z</time>
      </trkpt>
      <trkpt lat="46.70653" lon="-0.73178">
        <ele>197.69</ele>
        <time>2021-03-26T10:22:58Z</time>
      </trkpt>
      <trkpt lat="46.70658" lon="-0.73167">
        <ele>197.69</ele>
        <time>2021-03-26T10:23:07Z</time>
      </trkpt>
      <trkpt lat="46.70666" lon="-0.73151">
        <ele>197.69</ele>
        <time>2021-03-26T10:23:15Z</time>
      </trkpt>
      <trkpt lat="46.70673" lon="-0.7314">
        <ele>197.69</ele>
        <time>2021-03-26T10:23:24Z</time>
      </trkpt>
      <trkpt lat="46.70677" lon="-0.73133">
        <ele>197.69</ele>
        <time>2021-03-26T10:23:31Z</time>
      </trkpt>
      <trkpt lat="46.70679" lon="-0.73132">
        <ele>197.69</ele>
        <time>2021-03-26T10:23:40Z</time>
      </trkpt>
      <trkpt lat="46.7068" lon="-0.73131">
        <ele>197.69</ele>
        <time>2021-03-26T10:23:42Z</time>
      </trkpt>
      <trkpt lat="46.70682" lon="-0.73129">
        <ele>197.69</ele>
        <time>2021-03-26T10:23:43Z</time>
      </trkpt>
      <trkpt lat="46.70683" lon="-0.73127">
        <ele>197.69</ele>
        <time>2021-03-26T10:23:44Z</time>
      </trkpt>
      <trkpt lat="46.70687" lon="-0.73121">
        <ele>197.69</ele>
        <time>2021-03-26T10:23:50Z</time>
      </trkpt>
      <trkpt lat="46.70688" lon="-0.7312">
        <ele>197.69</ele>
        <time>2021-03-26T10:23:51Z</time>
      </trkpt>
      <trkpt lat="46.70688" lon="-0.73117">
        <ele>197.69</ele>
        <time>2021-03-26T10:23:56Z</time>
      </trkpt>
      <trkpt lat="46.70689" lon="-0.73116">
        <ele>197.69</ele>
        <time>2021-03-26T10:23:57Z</time>
      </trkpt>
      <trkpt lat="46.7069" lon="-0.73115">
        <ele>197.69</ele>
        <time>2021-03-26T10:23:58Z</time>
      </trkpt>
      <trkpt lat="46.70692" lon="-0.73114">
        <ele>197.69</ele>
        <time>2021-03-26T10:23:59Z</time>
      </trkpt>
      <trkpt lat="46.70693" lon="-0.73113">
        <ele>197.69</ele>
        <time>2021-03-26T10:24:00Z</time>
      </trkpt>
      <trkpt lat="46.70694" lon="-0.73111">
        <ele>197.69</ele>
        <time>2021-03-26T10:24:01Z</time>
      </trkpt>
      <trkpt lat="46.70706" lon="-0.731">
        <ele>197.69</ele>
        <time>2021-03-26T10:24:09Z</time>
      </trkpt>
      <trkpt lat="46.70711" lon="-0.73093">
        <ele>197.69</ele>
        <time>2021-03-26T10:24:17Z</time>
      </trkpt>
      <trkpt lat="46.70721" lon="-0.73082">
        <ele>198.17</ele>
        <time>2021-03-26T10:24:25Z</time>
      </trkpt>
      <trkpt lat="46.70727" lon="-0.73077">
        <ele>198.65</ele>
        <time>2021-03-26T10:24:32Z</time>
      </trkpt>
      <trkpt lat="46.70738" lon="-0.73069">
        <ele>200.09</ele>
        <time>2021-03-26T10:24:42Z</time>
      </trkpt>
      <trkpt lat="46.70748" lon="-0.73062">
        <ele>200.09</ele>
        <time>2021-03-26T10:24:52Z</time>
      </trkpt>
      <trkpt lat="46.70754" lon="-0.73061">
        <ele>201.53</ele>
        <time>2021-03-26T10:24:58Z</time>
      </trkpt>
      <trkpt lat="46.70757" lon="-0.73059">
        <ele>201.05</ele>
        <time>2021-03-26T10:25:09Z</time>
      </trkpt>
      <trkpt lat="46.70766" lon="-0.73052">
        <ele>201.05</ele>
        <time>2021-03-26T10:25:16Z</time>
      </trkpt>
      <trkpt lat="46.7077" lon="-0.73049">
        <ele>200.09</ele>
        <time>2021-03-26T10:25:23Z</time>
      </trkpt>
      <trkpt lat="46.70779" lon="-0.73043">
        <ele>199.61</ele>
        <time>2021-03-26T10:25:29Z</time>
      </trkpt>
      <trkpt lat="46.70784" lon="-0.7304">
        <ele>199.61</ele>
        <time>2021-03-26T10:25:35Z</time>
      </trkpt>
      <trkpt lat="46.70796" lon="-0.73033">
        <ele>199.61</ele>
        <time>2021-03-26T10:25:41Z</time>
      </trkpt>
      <trkpt lat="46.708" lon="-0.73029">
        <ele>198.65</ele>
        <time>2021-03-26T10:25:48Z</time>
      </trkpt>
      <trkpt lat="46.70809" lon="-0.73024">
        <ele>198.17</ele>
        <time>2021-03-26T10:25:55Z</time>
      </trkpt>
      <trkpt lat="46.70815" lon="-0.73021">
        <ele>197.69</ele>
        <time>2021-03-26T10:25:58Z</time>
      </trkpt>
      <trkpt lat="46.70816" lon="-0.73019">
        <ele>197.69</ele>
        <time>2021-03-26T10:25:59Z</time>
      </trkpt>
      <trkpt lat="46.70817" lon="-0.73018">
        <ele>197.69</ele>
        <time>2021-03-26T10:26:00Z</time>
      </trkpt>
      <trkpt lat="46.70822" lon="-0.73013">
        <ele>197.69</ele>
        <time>2021-03-26T10:26:09Z</time>
      </trkpt>
      <trkpt lat="46.7083" lon="-0.73004">
        <ele>197.21</ele>
        <time>2021-03-26T10:26:16Z</time>
      </trkpt>
      <trkpt lat="46.70838" lon="-0.72992">
        <ele>196.73</ele>
        <time>2021-03-26T10:26:23Z</time>
      </trkpt>
      <trkpt lat="46.70842" lon="-0.72983">
        <ele>196.25</ele>
        <time>2021-03-26T10:26:32Z</time>
      </trkpt>
      <trkpt lat="46.7085" lon="-0.72971">
        <ele>195.28</ele>
        <time>2021-03-26T10:26:42Z</time>
      </trkpt>
      <trkpt lat="46.70854" lon="-0.72962">
        <ele>194.8</ele>
        <time>2021-03-26T10:26:47Z</time>
      </trkpt>
      <trkpt lat="46.70855" lon="-0.72961">
        <ele>194.8</ele>
        <time>2021-03-26T10:26:48Z</time>
      </trkpt>
      <trkpt lat="46.70856" lon="-0.72959">
        <ele>194.8</ele>
        <time>2021-03-26T10:26:49Z</time>
      </trkpt>
      <trkpt lat="46.70863" lon="-0.72943">
        <ele>194.8</ele>
        <time>2021-03-26T10:26:57Z</time>
      </trkpt>
      <trkpt lat="46.70868" lon="-0.72931">
        <ele>193.84</ele>
        <time>2021-03-26T10:27:07Z</time>
      </trkpt>
      <trkpt lat="46.70869" lon="-0.72927">
        <ele>193.36</ele>
        <time>2021-03-26T10:27:10Z</time>
      </trkpt>
      <trkpt lat="46.7087" lon="-0.72925">
        <ele>193.36</ele>
        <time>2021-03-26T10:27:11Z</time>
      </trkpt>
      <trkpt lat="46.70871" lon="-0.72923">
        <ele>193.36</ele>
        <time>2021-03-26T10:27:12Z</time>
      </trkpt>
      <trkpt lat="46.70879" lon="-0.72911">
        <ele>192.88</ele>
        <time>2021-03-26T10:27:19Z</time>
      </trkpt>
      <trkpt lat="46.7088" lon="-0.7291">
        <ele>192.88</ele>
        <time>2021-03-26T10:27:20Z</time>
      </trkpt>
      <trkpt lat="46.70885" lon="-0.72899">
        <ele>192.4</ele>
        <time>2021-03-26T10:27:28Z</time>
      </trkpt>
      <trkpt lat="46.70889" lon="-0.72894">
        <ele>192.4</ele>
        <time>2021-03-26T10:27:33Z</time>
      </trkpt>
      <trkpt lat="46.70894" lon="-0.72887">
        <ele>191.92</ele>
        <time>2021-03-26T10:27:38Z</time>
      </trkpt>
      <trkpt lat="46.70895" lon="-0.72886">
        <ele>191.92</ele>
        <time>2021-03-26T10:27:39Z</time>
      </trkpt>
      <trkpt lat="46.70896" lon="-0.72884">
        <ele>191.92</ele>
        <time>2021-03-26T10:27:40Z</time>
      </trkpt>
      <trkpt lat="46.70901" lon="-0.72878">
        <ele>191.92</ele>
        <time>2021-03-26T10:27:48Z</time>
      </trkpt>
      <trkpt lat="46.70909" lon="-0.72871">
        <ele>191.44</ele>
        <time>2021-03-26T10:27:57Z</time>
      </trkpt>
      <trkpt lat="46.70918" lon="-0.72864">
        <ele>191.44</ele>
        <time>2021-03-26T10:28:04Z</time>
      </trkpt>
      <trkpt lat="46.7093" lon="-0.72853">
        <ele>190.96</ele>
        <time>2021-03-26T10:28:14Z</time>
      </trkpt>
      <trkpt lat="46.7094" lon="-0.72845">
        <ele>190.48</ele>
        <time>2021-03-26T10:28:20Z</time>
      </trkpt>
      <trkpt lat="46.70948" lon="-0.72838">
        <ele>190.48</ele>
        <time>2021-03-26T10:28:28Z</time>
      </trkpt>
      <trkpt lat="46.70952" lon="-0.72836">
        <ele>190.48</ele>
        <time>2021-03-26T10:28:32Z</time>
      </trkpt>
      <trkpt lat="46.70954" lon="-0.72834">
        <ele>190.48</ele>
        <time>2021-03-26T10:28:33Z</time>
      </trkpt>
      <trkpt lat="46.70961" lon="-0.72831">
        <ele>190</ele>
        <time>2021-03-26T10:28:40Z</time>
      </trkpt>
      <trkpt lat="46.70967" lon="-0.72826">
        <ele>190</ele>
        <time>2021-03-26T10:28:46Z</time>
      </trkpt>
      <trkpt lat="46.70974" lon="-0.72822">
        <ele>190</ele>
        <time>2021-03-26T10:28:54Z</time>
      </trkpt>
      <trkpt lat="46.70983" lon="-0.72816">
        <ele>190</ele>
        <time>2021-03-26T10:29:03Z</time>
      </trkpt>
      <trkpt lat="46.70992" lon="-0.7281">
        <ele>190</ele>
        <time>2021-03-26T10:29:11Z</time>
      </trkpt>
      <trkpt lat="46.71002" lon="-0.72804">
        <ele>190</ele>
        <time>2021-03-26T10:29:18Z</time>
      </trkpt>
      <trkpt lat="46.7101" lon="-0.72797">
        <ele>190</ele>
        <time>2021-03-26T10:29:24Z</time>
      </trkpt>
      <trkpt lat="46.71014" lon="-0.72796">
        <ele>189.52</ele>
        <time>2021-03-26T10:29:28Z</time>
      </trkpt>
      <trkpt lat="46.71024" lon="-0.72788">
        <ele>189.52</ele>
        <time>2021-03-26T10:29:36Z</time>
      </trkpt>
      <trkpt lat="46.71029" lon="-0.72783">
        <ele>189.52</ele>
        <time>2021-03-26T10:29:43Z</time>
      </trkpt>
      <trkpt lat="46.71028" lon="-0.72784">
        <ele>190.96</ele>
        <time>2021-03-26T10:29:45Z</time>
      </trkpt>
      <trkpt lat="46.71027" lon="-0.72785">
        <ele>190.96</ele>
        <time>2021-03-26T10:29:48Z</time>
      </trkpt>
      <trkpt lat="46.71024" lon="-0.72788">
        <ele>190.96</ele>
        <time>2021-03-26T10:29:54Z</time>
      </trkpt>
      <trkpt lat="46.71022" lon="-0.72789">
        <ele>190.96</ele>
        <time>2021-03-26T10:30:02Z</time>
      </trkpt>
      <trkpt lat="46.71024" lon="-0.72789">
        <ele>190.96</ele>
        <time>2021-03-26T10:30:10Z</time>
      </trkpt>
      <trkpt lat="46.71025" lon="-0.72788">
        <ele>190.96</ele>
        <time>2021-03-26T10:30:11Z</time>
      </trkpt>
      <trkpt lat="46.71026" lon="-0.72788">
        <ele>190.96</ele>
        <time>2021-03-26T10:30:12Z</time>
      </trkpt>
      <trkpt lat="46.71027" lon="-0.72787">
        <ele>190.96</ele>
        <time>2021-03-26T10:30:13Z</time>
      </trkpt>
      <trkpt lat="46.71028" lon="-0.72785">
        <ele>190.96</ele>
        <time>2021-03-26T10:30:14Z</time>
      </trkpt>
      <trkpt lat="46.71029" lon="-0.72784">
        <ele>190.96</ele>
        <time>2021-03-26T10:30:15Z</time>
      </trkpt>
      <trkpt lat="46.7103" lon="-0.72783">
        <ele>190.96</ele>
        <time>2021-03-26T10:30:16Z</time>
      </trkpt>
      <trkpt lat="46.71031" lon="-0.72782">
        <ele>190.96</ele>
        <time>2021-03-26T10:30:17Z</time>
      </trkpt>
      <trkpt lat="46.71038" lon="-0.72776">
        <ele>190.96</ele>
        <time>2021-03-26T10:30:25Z</time>
      </trkpt>
      <trkpt lat="46.71038" lon="-0.72775">
        <ele>190.96</ele>
        <time>2021-03-26T10:30:26Z</time>
      </trkpt>
      <trkpt lat="46.7104" lon="-0.72766">
        <ele>190.96</ele>
        <time>2021-03-26T10:30:33Z</time>
      </trkpt>
      <trkpt lat="46.71037" lon="-0.72756">
        <ele>191.44</ele>
        <time>2021-03-26T10:30:40Z</time>
      </trkpt>
      <trkpt lat="46.71035" lon="-0.72753">
        <ele>191.44</ele>
        <time>2021-03-26T10:30:44Z</time>
      </trkpt>
      <trkpt lat="46.71035" lon="-0.72751">
        <ele>191.44</ele>
        <time>2021-03-26T10:30:45Z</time>
      </trkpt>
      <trkpt lat="46.71035" lon="-0.72748">
        <ele>191.44</ele>
        <time>2021-03-26T10:30:46Z</time>
      </trkpt>
      <trkpt lat="46.71036" lon="-0.72735">
        <ele>191.44</ele>
        <time>2021-03-26T10:30:53Z</time>
      </trkpt>
      <trkpt lat="46.71037" lon="-0.72733">
        <ele>191.44</ele>
        <time>2021-03-26T10:30:55Z</time>
      </trkpt>
      <trkpt lat="46.7104" lon="-0.72726">
        <ele>191.92</ele>
        <time>2021-03-26T10:31:00Z</time>
      </trkpt>
      <trkpt lat="46.71041" lon="-0.72724">
        <ele>192.4</ele>
        <time>2021-03-26T10:31:07Z</time>
      </trkpt>
      <trkpt lat="46.71043" lon="-0.72721">
        <ele>192.4</ele>
        <time>2021-03-26T10:31:10Z</time>
      </trkpt>
      <trkpt lat="46.71044" lon="-0.72718">
        <ele>192.4</ele>
        <time>2021-03-26T10:31:16Z</time>
      </trkpt>
      <trkpt lat="46.71045" lon="-0.72717">
        <ele>192.4</ele>
        <time>2021-03-26T10:31:17Z</time>
      </trkpt>
      <trkpt lat="46.71046" lon="-0.72716">
        <ele>192.4</ele>
        <time>2021-03-26T10:31:18Z</time>
      </trkpt>
      <trkpt lat="46.71047" lon="-0.72716">
        <ele>192.4</ele>
        <time>2021-03-26T10:31:23Z</time>
      </trkpt>
      <trkpt lat="46.71046" lon="-0.72718">
        <ele>192.4</ele>
        <time>2021-03-26T10:31:29Z</time>
      </trkpt>
      <trkpt lat="46.71051" lon="-0.72713">
        <ele>192.4</ele>
        <time>2021-03-26T10:31:37Z</time>
      </trkpt>
      <trkpt lat="46.71055" lon="-0.7271">
        <ele>192.4</ele>
        <time>2021-03-26T10:31:45Z</time>
      </trkpt>
      <trkpt lat="46.71065" lon="-0.72701">
        <ele>192.88</ele>
        <time>2021-03-26T10:31:54Z</time>
      </trkpt>
      <trkpt lat="46.71075" lon="-0.72697">
        <ele>192.88</ele>
        <time>2021-03-26T10:32:04Z</time>
      </trkpt>
      <trkpt lat="46.71085" lon="-0.72691">
        <ele>192.88</ele>
        <time>2021-03-26T10:32:13Z</time>
      </trkpt>
      <trkpt lat="46.71094" lon="-0.72685">
        <ele>192.88</ele>
        <time>2021-03-26T10:32:24Z</time>
      </trkpt>
      <trkpt lat="46.71095" lon="-0.72684">
        <ele>193.36</ele>
        <time>2021-03-26T10:32:29Z</time>
      </trkpt>
      <trkpt lat="46.711" lon="-0.72676">
        <ele>193.36</ele>
        <time>2021-03-26T10:32:37Z</time>
      </trkpt>
      <trkpt lat="46.71103" lon="-0.72673">
        <ele>193.36</ele>
        <time>2021-03-26T10:32:43Z</time>
      </trkpt>
      <trkpt lat="46.71103" lon="-0.72671">
        <ele>193.36</ele>
        <time>2021-03-26T10:32:53Z</time>
      </trkpt>
      <trkpt lat="46.71103" lon="-0.72671">
        <ele>193.36</ele>
        <time>2021-03-26T10:32:54Z</time>
      </trkpt>
      <trkpt lat="46.71103" lon="-0.72665">
        <ele>193.36</ele>
        <time>2021-03-26T10:33:00Z</time>
      </trkpt>
      <trkpt lat="46.71102" lon="-0.72662">
        <ele>193.36</ele>
        <time>2021-03-26T10:33:04Z</time>
      </trkpt>
      <trkpt lat="46.71096" lon="-0.72644">
        <ele>193.84</ele>
        <time>2021-03-26T10:33:15Z</time>
      </trkpt>
      <trkpt lat="46.71092" lon="-0.7263">
        <ele>194.32</ele>
        <time>2021-03-26T10:33:23Z</time>
      </trkpt>
      <trkpt lat="46.71089" lon="-0.72618">
        <ele>194.8</ele>
        <time>2021-03-26T10:33:32Z</time>
      </trkpt>
      <trkpt lat="46.71083" lon="-0.72602">
        <ele>195.28</ele>
        <time>2021-03-26T10:33:41Z</time>
      </trkpt>
      <trkpt lat="46.7108" lon="-0.72589">
        <ele>196.25</ele>
        <time>2021-03-26T10:33:51Z</time>
      </trkpt>
      <trkpt lat="46.71076" lon="-0.72571">
        <ele>196.73</ele>
        <time>2021-03-26T10:34:01Z</time>
      </trkpt>
      <trkpt lat="46.71067" lon="-0.72547">
        <ele>196.73</ele>
        <time>2021-03-26T10:34:10Z</time>
      </trkpt>
      <trkpt lat="46.71063" lon="-0.72535">
        <ele>197.21</ele>
        <time>2021-03-26T10:34:18Z</time>
      </trkpt>
      <trkpt lat="46.71061" lon="-0.72522">
        <ele>197.21</ele>
        <time>2021-03-26T10:34:28Z</time>
      </trkpt>
      <trkpt lat="46.71057" lon="-0.72514">
        <ele>197.21</ele>
        <time>2021-03-26T10:34:35Z</time>
      </trkpt>
      <trkpt lat="46.71055" lon="-0.7251">
        <ele>198.17</ele>
        <time>2021-03-26T10:34:50Z</time>
      </trkpt>
      <trkpt lat="46.71055" lon="-0.7251">
        <ele>198.17</ele>
        <time>2021-03-26T10:34:56Z</time>
      </trkpt>
      <trkpt lat="46.71054" lon="-0.7251">
        <ele>198.17</ele>
        <time>2021-03-26T10:34:58Z</time>
      </trkpt>
      <trkpt lat="46.71048" lon="-0.72513">
        <ele>198.17</ele>
        <time>2021-03-26T10:35:05Z</time>
      </trkpt>
      <trkpt lat="46.71045" lon="-0.72515">
        <ele>198.17</ele>
        <time>2021-03-26T10:35:09Z</time>
      </trkpt>
      <trkpt lat="46.71045" lon="-0.72515">
        <ele>198.17</ele>
        <time>2021-03-26T10:35:10Z</time>
      </trkpt>
      <trkpt lat="46.71043" lon="-0.72517">
        <ele>198.17</ele>
        <time>2021-03-26T10:35:17Z</time>
      </trkpt>
      <trkpt lat="46.71042" lon="-0.72519">
        <ele>198.17</ele>
        <time>2021-03-26T10:35:29Z</time>
      </trkpt>
      <trkpt lat="46.7104" lon="-0.72521">
        <ele>198.17</ele>
        <time>2021-03-26T10:35:38Z</time>
      </trkpt>
      <trkpt lat="46.71039" lon="-0.72522">
        <ele>198.17</ele>
        <time>2021-03-26T10:35:39Z</time>
      </trkpt>
      <trkpt lat="46.71037" lon="-0.72523">
        <ele>198.17</ele>
        <time>2021-03-26T10:35:40Z</time>
      </trkpt>
      <trkpt lat="46.71036" lon="-0.72524">
        <ele>198.17</ele>
        <time>2021-03-26T10:35:41Z</time>
      </trkpt>
      <trkpt lat="46.71035" lon="-0.72525">
        <ele>198.17</ele>
        <time>2021-03-26T10:35:42Z</time>
      </trkpt>
      <trkpt lat="46.71034" lon="-0.72527">
        <ele>198.65</ele>
        <time>2021-03-26T10:35:43Z</time>
      </trkpt>
      <trkpt lat="46.71033" lon="-0.72529">
        <ele>198.65</ele>
        <time>2021-03-26T10:35:44Z</time>
      </trkpt>
      <trkpt lat="46.71032" lon="-0.7253">
        <ele>198.65</ele>
        <time>2021-03-26T10:35:45Z</time>
      </trkpt>
      <trkpt lat="46.71031" lon="-0.72532">
        <ele>198.65</ele>
        <time>2021-03-26T10:35:46Z</time>
      </trkpt>
      <trkpt lat="46.71026" lon="-0.72537">
        <ele>198.65</ele>
        <time>2021-03-26T10:35:53Z</time>
      </trkpt>
      <trkpt lat="46.71017" lon="-0.72547">
        <ele>199.13</ele>
        <time>2021-03-26T10:36:01Z</time>
      </trkpt>
      <trkpt lat="46.7101" lon="-0.72553">
        <ele>199.61</ele>
        <time>2021-03-26T10:36:08Z</time>
      </trkpt>
      <trkpt lat="46.71" lon="-0.72558">
        <ele>199.61</ele>
        <time>2021-03-26T10:36:16Z</time>
      </trkpt>
      <trkpt lat="46.70995" lon="-0.7256">
        <ele>200.09</ele>
        <time>2021-03-26T10:36:21Z</time>
      </trkpt>
      <trkpt lat="46.70993" lon="-0.7256">
        <ele>200.09</ele>
        <time>2021-03-26T10:36:22Z</time>
      </trkpt>
      <trkpt lat="46.70992" lon="-0.7256">
        <ele>200.09</ele>
        <time>2021-03-26T10:36:23Z</time>
      </trkpt>
      <trkpt lat="46.7099" lon="-0.7256">
        <ele>200.09</ele>
        <time>2021-03-26T10:36:24Z</time>
      </trkpt>
      <trkpt lat="46.70988" lon="-0.72561">
        <ele>200.09</ele>
        <time>2021-03-26T10:36:25Z</time>
      </trkpt>
      <trkpt lat="46.70986" lon="-0.72561">
        <ele>200.09</ele>
        <time>2021-03-26T10:36:26Z</time>
      </trkpt>
      <trkpt lat="46.70977" lon="-0.72562">
        <ele>201.05</ele>
        <time>2021-03-26T10:36:34Z</time>
      </trkpt>
      <trkpt lat="46.7097" lon="-0.72558">
        <ele>201.53</ele>
        <time>2021-03-26T10:36:42Z</time>
      </trkpt>
      <trkpt lat="46.70968" lon="-0.72557">
        <ele>202.01</ele>
        <time>2021-03-26T10:36:51Z</time>
      </trkpt>
      <trkpt lat="46.70965" lon="-0.72555">
        <ele>202.01</ele>
        <time>2021-03-26T10:37:02Z</time>
      </trkpt>
      <trkpt lat="46.70961" lon="-0.72554">
        <ele>202.49</ele>
        <time>2021-03-26T10:37:09Z</time>
      </trkpt>
      <trkpt lat="46.7096" lon="-0.72553">
        <ele>202.49</ele>
        <time>2021-03-26T10:37:10Z</time>
      </trkpt>
      <trkpt lat="46.70958" lon="-0.72552">
        <ele>202.49</ele>
        <time>2021-03-26T10:37:12Z</time>
      </trkpt>
      <trkpt lat="46.70956" lon="-0.7255">
        <ele>202.49</ele>
        <time>2021-03-26T10:37:14Z</time>
      </trkpt>
      <trkpt lat="46.70955" lon="-0.7255">
        <ele>202.49</ele>
        <time>2021-03-26T10:37:15Z</time>
      </trkpt>
      <trkpt lat="46.70947" lon="-0.72544">
        <ele>203.46</ele>
        <time>2021-03-26T10:37:24Z</time>
      </trkpt>
      <trkpt lat="46.70938" lon="-0.72537">
        <ele>204.42</ele>
        <time>2021-03-26T10:37:32Z</time>
      </trkpt>
      <trkpt lat="46.7093" lon="-0.7253">
        <ele>204.9</ele>
        <time>2021-03-26T10:37:39Z</time>
      </trkpt>
      <trkpt lat="46.70923" lon="-0.72523">
        <ele>205.38</ele>
        <time>2021-03-26T10:37:47Z</time>
      </trkpt>
      <trkpt lat="46.70918" lon="-0.72518">
        <ele>205.86</ele>
        <time>2021-03-26T10:37:52Z</time>
      </trkpt>
      <trkpt lat="46.70916" lon="-0.72516">
        <ele>205.86</ele>
        <time>2021-03-26T10:37:53Z</time>
      </trkpt>
      <trkpt lat="46.70908" lon="-0.72512">
        <ele>206.34</ele>
        <time>2021-03-26T10:38:00Z</time>
      </trkpt>
      <trkpt lat="46.70901" lon="-0.7251">
        <ele>206.82</ele>
        <time>2021-03-26T10:38:07Z</time>
      </trkpt>
      <trkpt lat="46.70887" lon="-0.72508">
        <ele>207.3</ele>
        <time>2021-03-26T10:38:15Z</time>
      </trkpt>
      <trkpt lat="46.70878" lon="-0.72509">
        <ele>207.78</ele>
        <time>2021-03-26T10:38:23Z</time>
      </trkpt>
      <trkpt lat="46.7087" lon="-0.72512">
        <ele>208.74</ele>
        <time>2021-03-26T10:38:31Z</time>
      </trkpt>
      <trkpt lat="46.7086" lon="-0.72514">
        <ele>209.7</ele>
        <time>2021-03-26T10:38:39Z</time>
      </trkpt>
      <trkpt lat="46.70851" lon="-0.72517">
        <ele>211.15</ele>
        <time>2021-03-26T10:38:46Z</time>
      </trkpt>
      <trkpt lat="46.70844" lon="-0.72521">
        <ele>211.63</ele>
        <time>2021-03-26T10:38:54Z</time>
      </trkpt>
      <trkpt lat="46.70834" lon="-0.72526">
        <ele>211.15</ele>
        <time>2021-03-26T10:39:01Z</time>
      </trkpt>
      <trkpt lat="46.70827" lon="-0.7253">
        <ele>211.63</ele>
        <time>2021-03-26T10:39:10Z</time>
      </trkpt>
      <trkpt lat="46.70816" lon="-0.72537">
        <ele>212.59</ele>
        <time>2021-03-26T10:39:19Z</time>
      </trkpt>
      <trkpt lat="46.70809" lon="-0.72543">
        <ele>213.07</ele>
        <time>2021-03-26T10:39:28Z</time>
      </trkpt>
      <trkpt lat="46.70804" lon="-0.72546">
        <ele>213.07</ele>
        <time>2021-03-26T10:39:33Z</time>
      </trkpt>
      <trkpt lat="46.70792" lon="-0.72552">
        <ele>213.55</ele>
        <time>2021-03-26T10:39:41Z</time>
      </trkpt>
      <trkpt lat="46.70784" lon="-0.72555">
        <ele>214.03</ele>
        <time>2021-03-26T10:39:50Z</time>
      </trkpt>
      <trkpt lat="46.70776" lon="-0.72556">
        <ele>214.51</ele>
        <time>2021-03-26T10:39:57Z</time>
      </trkpt>
      <trkpt lat="46.70774" lon="-0.72555">
        <ele>214.51</ele>
        <time>2021-03-26T10:39:58Z</time>
      </trkpt>
      <trkpt lat="46.7076" lon="-0.72549">
        <ele>215.47</ele>
        <time>2021-03-26T10:40:08Z</time>
      </trkpt>
      <trkpt lat="46.70752" lon="-0.72542">
        <ele>215.95</ele>
        <time>2021-03-26T10:40:16Z</time>
      </trkpt>
      <trkpt lat="46.70743" lon="-0.72537">
        <ele>216.43</ele>
        <time>2021-03-26T10:40:24Z</time>
      </trkpt>
      <trkpt lat="46.70737" lon="-0.72532">
        <ele>216.43</ele>
        <time>2021-03-26T10:40:29Z</time>
      </trkpt>
      <trkpt lat="46.70736" lon="-0.72531">
        <ele>216.43</ele>
        <time>2021-03-26T10:40:30Z</time>
      </trkpt>
      <trkpt lat="46.70734" lon="-0.7253">
        <ele>216.91</ele>
        <time>2021-03-26T10:40:31Z</time>
      </trkpt>
      <trkpt lat="46.70733" lon="-0.72529">
        <ele>216.91</ele>
        <time>2021-03-26T10:40:32Z</time>
      </trkpt>
      <trkpt lat="46.70725" lon="-0.7252">
        <ele>217.4</ele>
        <time>2021-03-26T10:40:41Z</time>
      </trkpt>
      <trkpt lat="46.70718" lon="-0.72511">
        <ele>217.88</ele>
        <time>2021-03-26T10:40:49Z</time>
      </trkpt>
      <trkpt lat="46.70713" lon="-0.72503">
        <ele>218.36</ele>
        <time>2021-03-26T10:40:54Z</time>
      </trkpt>
      <trkpt lat="46.70712" lon="-0.72502">
        <ele>218.36</ele>
        <time>2021-03-26T10:40:55Z</time>
      </trkpt>
      <trkpt lat="46.70702" lon="-0.72494">
        <ele>218.36</ele>
        <time>2021-03-26T10:41:04Z</time>
      </trkpt>
      <trkpt lat="46.70699" lon="-0.72492">
        <ele>218.36</ele>
        <time>2021-03-26T10:41:06Z</time>
      </trkpt>
      <trkpt lat="46.70698" lon="-0.7249">
        <ele>218.36</ele>
        <time>2021-03-26T10:41:07Z</time>
      </trkpt>
      <trkpt lat="46.70696" lon="-0.72489">
        <ele>218.36</ele>
        <time>2021-03-26T10:41:08Z</time>
      </trkpt>
      <trkpt lat="46.70695" lon="-0.72488">
        <ele>218.36</ele>
        <time>2021-03-26T10:41:09Z</time>
      </trkpt>
      <trkpt lat="46.70694" lon="-0.72487">
        <ele>218.84</ele>
        <time>2021-03-26T10:41:10Z</time>
      </trkpt>
      <trkpt lat="46.70688" lon="-0.72479">
        <ele>218.84</ele>
        <time>2021-03-26T10:41:17Z</time>
      </trkpt>
      <trkpt lat="46.70678" lon="-0.72467">
        <ele>219.32</ele>
        <time>2021-03-26T10:41:25Z</time>
      </trkpt>
      <trkpt lat="46.70671" lon="-0.7246">
        <ele>219.32</ele>
        <time>2021-03-26T10:41:34Z</time>
      </trkpt>
      <trkpt lat="46.70662" lon="-0.72451">
        <ele>219.8</ele>
        <time>2021-03-26T10:41:42Z</time>
      </trkpt>
      <trkpt lat="46.70651" lon="-0.7244">
        <ele>219.8</ele>
        <time>2021-03-26T10:41:50Z</time>
      </trkpt>
      <trkpt lat="46.70644" lon="-0.72433">
        <ele>220.76</ele>
        <time>2021-03-26T10:41:58Z</time>
      </trkpt>
      <trkpt lat="46.70631" lon="-0.72425">
        <ele>221.24</ele>
        <time>2021-03-26T10:42:06Z</time>
      </trkpt>
      <trkpt lat="46.70624" lon="-0.72415">
        <ele>222.2</ele>
        <time>2021-03-26T10:42:15Z</time>
      </trkpt>
      <trkpt lat="46.70616" lon="-0.72407">
        <ele>222.68</ele>
        <time>2021-03-26T10:42:24Z</time>
      </trkpt>
      <trkpt lat="46.70608" lon="-0.72396">
        <ele>222.68</ele>
        <time>2021-03-26T10:42:32Z</time>
      </trkpt>
      <trkpt lat="46.706" lon="-0.72387">
        <ele>223.16</ele>
        <time>2021-03-26T10:42:39Z</time>
      </trkpt>
      <trkpt lat="46.70591" lon="-0.72378">
        <ele>223.64</ele>
        <time>2021-03-26T10:42:48Z</time>
      </trkpt>
      <trkpt lat="46.70583" lon="-0.72369">
        <ele>224.12</ele>
        <time>2021-03-26T10:42:55Z</time>
      </trkpt>
      <trkpt lat="46.70579" lon="-0.72361">
        <ele>224.61</ele>
        <time>2021-03-26T10:43:02Z</time>
      </trkpt>
      <trkpt lat="46.70578" lon="-0.72359">
        <ele>224.61</ele>
        <time>2021-03-26T10:43:03Z</time>
      </trkpt>
      <trkpt lat="46.70577" lon="-0.72357">
        <ele>224.61</ele>
        <time>2021-03-26T10:43:04Z</time>
      </trkpt>
      <trkpt lat="46.70576" lon="-0.72355">
        <ele>224.61</ele>
        <time>2021-03-26T10:43:05Z</time>
      </trkpt>
      <trkpt lat="46.70569" lon="-0.72345">
        <ele>225.09</ele>
        <time>2021-03-26T10:43:13Z</time>
      </trkpt>
      <trkpt lat="46.70561" lon="-0.72331">
        <ele>225.57</ele>
        <time>2021-03-26T10:43:21Z</time>
      </trkpt>
      <trkpt lat="46.70555" lon="-0.72322">
        <ele>225.57</ele>
        <time>2021-03-26T10:43:28Z</time>
      </trkpt>
      <trkpt lat="46.70548" lon="-0.72307">
        <ele>226.05</ele>
        <time>2021-03-26T10:43:36Z</time>
      </trkpt>
      <trkpt lat="46.70543" lon="-0.72299">
        <ele>226.05</ele>
        <time>2021-03-26T10:43:42Z</time>
      </trkpt>
      <trkpt lat="46.70537" lon="-0.72289">
        <ele>226.05</ele>
        <time>2021-03-26T10:43:51Z</time>
      </trkpt>
      <trkpt lat="46.70527" lon="-0.7228">
        <ele>226.05</ele>
        <time>2021-03-26T10:43:59Z</time>
      </trkpt>
      <trkpt lat="46.70523" lon="-0.72274">
        <ele>226.53</ele>
        <time>2021-03-26T10:44:05Z</time>
      </trkpt>
      <trkpt lat="46.70512" lon="-0.72263">
        <ele>226.53</ele>
        <time>2021-03-26T10:44:14Z</time>
      </trkpt>
      <trkpt lat="46.70505" lon="-0.72256">
        <ele>226.53</ele>
        <time>2021-03-26T10:44:23Z</time>
      </trkpt>
      <trkpt lat="46.70496" lon="-0.72248">
        <ele>227.01</ele>
        <time>2021-03-26T10:44:31Z</time>
      </trkpt>
      <trkpt lat="46.70486" lon="-0.7224">
        <ele>227.01</ele>
        <time>2021-03-26T10:44:40Z</time>
      </trkpt>
      <trkpt lat="46.70474" lon="-0.72231">
        <ele>227.01</ele>
        <time>2021-03-26T10:44:48Z</time>
      </trkpt>
      <trkpt lat="46.70465" lon="-0.72223">
        <ele>227.01</ele>
        <time>2021-03-26T10:44:56Z</time>
      </trkpt>
      <trkpt lat="46.7046" lon="-0.72214">
        <ele>227.01</ele>
        <time>2021-03-26T10:45:02Z</time>
      </trkpt>
      <trkpt lat="46.70452" lon="-0.722">
        <ele>227.01</ele>
        <time>2021-03-26T10:45:09Z</time>
      </trkpt>
      <trkpt lat="46.70446" lon="-0.72193">
        <ele>227.01</ele>
        <time>2021-03-26T10:45:15Z</time>
      </trkpt>
      <trkpt lat="46.7044" lon="-0.72181">
        <ele>227.01</ele>
        <time>2021-03-26T10:45:26Z</time>
      </trkpt>
      <trkpt lat="46.70438" lon="-0.72176">
        <ele>227.01</ele>
        <time>2021-03-26T10:45:29Z</time>
      </trkpt>
      <trkpt lat="46.70437" lon="-0.72174">
        <ele>227.01</ele>
        <time>2021-03-26T10:45:30Z</time>
      </trkpt>
      <trkpt lat="46.70436" lon="-0.72171">
        <ele>227.01</ele>
        <time>2021-03-26T10:45:31Z</time>
      </trkpt>
      <trkpt lat="46.7043" lon="-0.72162">
        <ele>227.49</ele>
        <time>2021-03-26T10:45:36Z</time>
      </trkpt>
      <trkpt lat="46.70423" lon="-0.7215">
        <ele>227.49</ele>
        <time>2021-03-26T10:45:45Z</time>
      </trkpt>
      <trkpt lat="46.70419" lon="-0.72143">
        <ele>227.49</ele>
        <time>2021-03-26T10:45:50Z</time>
      </trkpt>
      <trkpt lat="46.70418" lon="-0.7214">
        <ele>227.49</ele>
        <time>2021-03-26T10:45:51Z</time>
      </trkpt>
      <trkpt lat="46.70417" lon="-0.72138">
        <ele>227.49</ele>
        <time>2021-03-26T10:45:52Z</time>
      </trkpt>
      <trkpt lat="46.70416" lon="-0.72136">
        <ele>227.49</ele>
        <time>2021-03-26T10:45:53Z</time>
      </trkpt>
      <trkpt lat="46.70414" lon="-0.72134">
        <ele>227.49</ele>
        <time>2021-03-26T10:45:54Z</time>
      </trkpt>
      <trkpt lat="46.70408" lon="-0.72122">
        <ele>227.49</ele>
        <time>2021-03-26T10:46:01Z</time>
      </trkpt>
      <trkpt lat="46.70404" lon="-0.72113">
        <ele>227.49</ele>
        <time>2021-03-26T10:46:08Z</time>
      </trkpt>
      <trkpt lat="46.70403" lon="-0.72109">
        <ele>227.49</ele>
        <time>2021-03-26T10:46:10Z</time>
      </trkpt>
      <trkpt lat="46.70402" lon="-0.72107">
        <ele>227.49</ele>
        <time>2021-03-26T10:46:11Z</time>
      </trkpt>
      <trkpt lat="46.70395" lon="-0.72086">
        <ele>227.49</ele>
        <time>2021-03-26T10:46:18Z</time>
      </trkpt>
      <trkpt lat="46.70391" lon="-0.7207">
        <ele>227.49</ele>
        <time>2021-03-26T10:46:27Z</time>
      </trkpt>
      <trkpt lat="46.70389" lon="-0.72059">
        <ele>227.49</ele>
        <time>2021-03-26T10:46:35Z</time>
      </trkpt>
      <trkpt lat="46.70385" lon="-0.72041">
        <ele>227.49</ele>
        <time>2021-03-26T10:46:41Z</time>
      </trkpt>
      <trkpt lat="46.7038" lon="-0.7203">
        <ele>227.49</ele>
        <time>2021-03-26T10:46:48Z</time>
      </trkpt>
      <trkpt lat="46.70379" lon="-0.72023">
        <ele>227.49</ele>
        <time>2021-03-26T10:46:55Z</time>
      </trkpt>
      <trkpt lat="46.70378" lon="-0.72015">
        <ele>227.49</ele>
        <time>2021-03-26T10:47:03Z</time>
      </trkpt>
      <trkpt lat="46.70378" lon="-0.72012">
        <ele>227.49</ele>
        <time>2021-03-26T10:47:11Z</time>
      </trkpt>
      <trkpt lat="46.70376" lon="-0.7201">
        <ele>227.97</ele>
        <time>2021-03-26T10:47:20Z</time>
      </trkpt>
      <trkpt lat="46.70375" lon="-0.72009">
        <ele>227.97</ele>
        <time>2021-03-26T10:47:22Z</time>
      </trkpt>
      <trkpt lat="46.70371" lon="-0.72009">
        <ele>227.97</ele>
        <time>2021-03-26T10:47:29Z</time>
      </trkpt>
      <trkpt lat="46.70371" lon="-0.72009">
        <ele>227.97</ele>
        <time>2021-03-26T10:47:39Z</time>
      </trkpt>
      <trkpt lat="46.7037" lon="-0.7201">
        <ele>227.97</ele>
        <time>2021-03-26T10:47:50Z</time>
      </trkpt>
      <trkpt lat="46.7037" lon="-0.72012">
        <ele>227.97</ele>
        <time>2021-03-26T10:48:09Z</time>
      </trkpt>
      <trkpt lat="46.70369" lon="-0.72013">
        <ele>227.97</ele>
        <time>2021-03-26T10:48:25Z</time>
      </trkpt>
      <trkpt lat="46.70365" lon="-0.72012">
        <ele>227.97</ele>
        <time>2021-03-26T10:48:33Z</time>
      </trkpt>
      <trkpt lat="46.70362" lon="-0.72013">
        <ele>227.97</ele>
        <time>2021-03-26T10:48:36Z</time>
      </trkpt>
      <trkpt lat="46.70354" lon="-0.72013">
        <ele>227.97</ele>
        <time>2021-03-26T10:48:44Z</time>
      </trkpt>
      <trkpt lat="46.70352" lon="-0.72013">
        <ele>227.97</ele>
        <time>2021-03-26T10:48:51Z</time>
      </trkpt>
      <trkpt lat="46.70349" lon="-0.72013">
        <ele>227.97</ele>
        <time>2021-03-26T10:48:58Z</time>
      </trkpt>
      <trkpt lat="46.70343" lon="-0.72013">
        <ele>227.97</ele>
        <time>2021-03-26T10:49:04Z</time>
      </trkpt>
      <trkpt lat="46.70337" lon="-0.72014">
        <ele>227.97</ele>
        <time>2021-03-26T10:49:11Z</time>
      </trkpt>
      <trkpt lat="46.70328" lon="-0.72017">
        <ele>227.97</ele>
        <time>2021-03-26T10:49:20Z</time>
      </trkpt>
      <trkpt lat="46.70315" lon="-0.72018">
        <ele>227.49</ele>
        <time>2021-03-26T10:49:29Z</time>
      </trkpt>
      <trkpt lat="46.70298" lon="-0.72016">
        <ele>227.49</ele>
        <time>2021-03-26T10:49:39Z</time>
      </trkpt>
      <trkpt lat="46.70287" lon="-0.72013">
        <ele>227.49</ele>
        <time>2021-03-26T10:49:47Z</time>
      </trkpt>
      <trkpt lat="46.70274" lon="-0.72014">
        <ele>227.49</ele>
        <time>2021-03-26T10:49:54Z</time>
      </trkpt>
      <trkpt lat="46.7026" lon="-0.72015">
        <ele>227.49</ele>
        <time>2021-03-26T10:50:02Z</time>
      </trkpt>
      <trkpt lat="46.70253" lon="-0.72016">
        <ele>227.49</ele>
        <time>2021-03-26T10:50:10Z</time>
      </trkpt>
      <trkpt lat="46.70248" lon="-0.72017">
        <ele>227.49</ele>
        <time>2021-03-26T10:50:17Z</time>
      </trkpt>
      <trkpt lat="46.70235" lon="-0.72022">
        <ele>226.05</ele>
        <time>2021-03-26T10:50:23Z</time>
      </trkpt>
      <trkpt lat="46.70232" lon="-0.72022">
        <ele>226.05</ele>
        <time>2021-03-26T10:50:24Z</time>
      </trkpt>
      <trkpt lat="46.70221" lon="-0.72025">
        <ele>226.05</ele>
        <time>2021-03-26T10:50:32Z</time>
      </trkpt>
      <trkpt lat="46.70215" lon="-0.72027">
        <ele>225.57</ele>
        <time>2021-03-26T10:50:41Z</time>
      </trkpt>
      <trkpt lat="46.70214" lon="-0.72027">
        <ele>225.57</ele>
        <time>2021-03-26T10:50:42Z</time>
      </trkpt>
      <trkpt lat="46.70205" lon="-0.72032">
        <ele>225.09</ele>
        <time>2021-03-26T10:50:49Z</time>
      </trkpt>
      <trkpt lat="46.70194" lon="-0.72037">
        <ele>225.09</ele>
        <time>2021-03-26T10:50:57Z</time>
      </trkpt>
      <trkpt lat="46.70188" lon="-0.7204">
        <ele>224.12</ele>
        <time>2021-03-26T10:51:05Z</time>
      </trkpt>
      <trkpt lat="46.70179" lon="-0.72046">
        <ele>223.64</ele>
        <time>2021-03-26T10:51:11Z</time>
      </trkpt>
      <trkpt lat="46.70165" lon="-0.72055">
        <ele>223.64</ele>
        <time>2021-03-26T10:51:19Z</time>
      </trkpt>
      <trkpt lat="46.70151" lon="-0.7207">
        <ele>223.64</ele>
        <time>2021-03-26T10:51:27Z</time>
      </trkpt>
      <trkpt lat="46.70146" lon="-0.72077">
        <ele>223.16</ele>
        <time>2021-03-26T10:51:34Z</time>
      </trkpt>
      <trkpt lat="46.70143" lon="-0.72079">
        <ele>223.16</ele>
        <time>2021-03-26T10:51:40Z</time>
      </trkpt>
      <trkpt lat="46.70135" lon="-0.7209">
        <ele>222.2</ele>
        <time>2021-03-26T10:51:48Z</time>
      </trkpt>
      <trkpt lat="46.70126" lon="-0.72102">
        <ele>222.2</ele>
        <time>2021-03-26T10:51:54Z</time>
      </trkpt>
      <trkpt lat="46.70117" lon="-0.72118">
        <ele>221.24</ele>
        <time>2021-03-26T10:52:02Z</time>
      </trkpt>
      <trkpt lat="46.70112" lon="-0.72124">
        <ele>221.24</ele>
        <time>2021-03-26T10:52:10Z</time>
      </trkpt>
      <trkpt lat="46.70105" lon="-0.72131">
        <ele>220.28</ele>
        <time>2021-03-26T10:52:20Z</time>
      </trkpt>
      <trkpt lat="46.70094" lon="-0.72143">
        <ele>220.28</ele>
        <time>2021-03-26T10:52:28Z</time>
      </trkpt>
      <trkpt lat="46.70083" lon="-0.72156">
        <ele>220.28</ele>
        <time>2021-03-26T10:52:36Z</time>
      </trkpt>
      <trkpt lat="46.70075" lon="-0.72164">
        <ele>220.28</ele>
        <time>2021-03-26T10:52:44Z</time>
      </trkpt>
      <trkpt lat="46.70065" lon="-0.72173">
        <ele>219.8</ele>
        <time>2021-03-26T10:52:55Z</time>
      </trkpt>
      <trkpt lat="46.70053" lon="-0.72183">
        <ele>218.84</ele>
        <time>2021-03-26T10:53:04Z</time>
      </trkpt>
      <trkpt lat="46.70039" lon="-0.72194">
        <ele>218.84</ele>
        <time>2021-03-26T10:53:12Z</time>
      </trkpt>
      <trkpt lat="46.70027" lon="-0.72201">
        <ele>218.84</ele>
        <time>2021-03-26T10:53:22Z</time>
      </trkpt>
      <trkpt lat="46.7002" lon="-0.72208">
        <ele>218.84</ele>
        <time>2021-03-26T10:53:32Z</time>
      </trkpt>
      <trkpt lat="46.70009" lon="-0.72218">
        <ele>217.88</ele>
        <time>2021-03-26T10:53:39Z</time>
      </trkpt>
      <trkpt lat="46.69998" lon="-0.7223">
        <ele>217.88</ele>
        <time>2021-03-26T10:53:47Z</time>
      </trkpt>
      <trkpt lat="46.69987" lon="-0.72241">
        <ele>217.88</ele>
        <time>2021-03-26T10:53:54Z</time>
      </trkpt>
      <trkpt lat="46.69982" lon="-0.72246">
        <ele>217.4</ele>
        <time>2021-03-26T10:54:01Z</time>
      </trkpt>
      <trkpt lat="46.69975" lon="-0.72253">
        <ele>217.4</ele>
        <time>2021-03-26T10:54:11Z</time>
      </trkpt>
      <trkpt lat="46.69966" lon="-0.72266">
        <ele>216.43</ele>
        <time>2021-03-26T10:54:17Z</time>
      </trkpt>
      <trkpt lat="46.69952" lon="-0.72284">
        <ele>216.43</ele>
        <time>2021-03-26T10:54:25Z</time>
      </trkpt>
      <trkpt lat="46.69946" lon="-0.72292">
        <ele>215.95</ele>
        <time>2021-03-26T10:54:33Z</time>
      </trkpt>
      <trkpt lat="46.69946" lon="-0.72293">
        <ele>215.95</ele>
        <time>2021-03-26T10:54:34Z</time>
      </trkpt>
      <trkpt lat="46.69943" lon="-0.72298">
        <ele>215.95</ele>
        <time>2021-03-26T10:54:41Z</time>
      </trkpt>
      <trkpt lat="46.69942" lon="-0.72298">
        <ele>215.95</ele>
        <time>2021-03-26T10:54:55Z</time>
      </trkpt>
      <trkpt lat="46.69942" lon="-0.723">
        <ele>215.95</ele>
        <time>2021-03-26T10:55:01Z</time>
      </trkpt>
      <trkpt lat="46.69942" lon="-0.723">
        <ele>215.95</ele>
        <time>2021-03-26T10:55:18Z</time>
      </trkpt>
      <trkpt lat="46.69943" lon="-0.72301">
        <ele>215.47</ele>
        <time>2021-03-26T10:55:29Z</time>
      </trkpt>
      <trkpt lat="46.69942" lon="-0.72304">
        <ele>215.47</ele>
        <time>2021-03-26T10:55:36Z</time>
      </trkpt>
      <trkpt lat="46.69942" lon="-0.72305">
        <ele>215.47</ele>
        <time>2021-03-26T10:55:37Z</time>
      </trkpt>
      <trkpt lat="46.69943" lon="-0.72309">
        <ele>215.47</ele>
        <time>2021-03-26T10:55:44Z</time>
      </trkpt>
      <trkpt lat="46.69946" lon="-0.72318">
        <ele>215.47</ele>
        <time>2021-03-26T10:55:50Z</time>
      </trkpt>
      <trkpt lat="46.69951" lon="-0.7233">
        <ele>215.47</ele>
        <time>2021-03-26T10:55:57Z</time>
      </trkpt>
      <trkpt lat="46.69951" lon="-0.72332">
        <ele>215.47</ele>
        <time>2021-03-26T10:55:59Z</time>
      </trkpt>
      <trkpt lat="46.69955" lon="-0.72349">
        <ele>215.47</ele>
        <time>2021-03-26T10:56:10Z</time>
      </trkpt>
      <trkpt lat="46.69957" lon="-0.72354">
        <ele>215.47</ele>
        <time>2021-03-26T10:56:16Z</time>
      </trkpt>
      <trkpt lat="46.69961" lon="-0.72371">
        <ele>215.47</ele>
        <time>2021-03-26T10:56:24Z</time>
      </trkpt>
      <trkpt lat="46.69964" lon="-0.72387">
        <ele>215.47</ele>
        <time>2021-03-26T10:56:31Z</time>
      </trkpt>
      <trkpt lat="46.69966" lon="-0.72393">
        <ele>215.47</ele>
        <time>2021-03-26T10:56:38Z</time>
      </trkpt>
      <trkpt lat="46.69966" lon="-0.72395">
        <ele>216.91</ele>
        <time>2021-03-26T10:56:40Z</time>
      </trkpt>
      <trkpt lat="46.69971" lon="-0.72414">
        <ele>216.91</ele>
        <time>2021-03-26T10:56:48Z</time>
      </trkpt>
      <trkpt lat="46.69975" lon="-0.72426">
        <ele>216.91</ele>
        <time>2021-03-26T10:56:55Z</time>
      </trkpt>
      <trkpt lat="46.69975" lon="-0.72427">
        <ele>215.47</ele>
        <time>2021-03-26T10:56:59Z</time>
      </trkpt>
      <trkpt lat="46.69975" lon="-0.72428">
        <ele>216.43</ele>
        <time>2021-03-26T10:57:00Z</time>
      </trkpt>
      <trkpt lat="46.69976" lon="-0.7243">
        <ele>216.91</ele>
        <time>2021-03-26T10:57:01Z</time>
      </trkpt>
      <trkpt lat="46.69976" lon="-0.72431">
        <ele>216.91</ele>
        <time>2021-03-26T10:57:02Z</time>
      </trkpt>
      <trkpt lat="46.69977" lon="-0.72433">
        <ele>216.91</ele>
        <time>2021-03-26T10:57:03Z</time>
      </trkpt>
      <trkpt lat="46.69978" lon="-0.72434">
        <ele>216.91</ele>
        <time>2021-03-26T10:57:04Z</time>
      </trkpt>
      <trkpt lat="46.69979" lon="-0.72436">
        <ele>216.91</ele>
        <time>2021-03-26T10:57:05Z</time>
      </trkpt>
      <trkpt lat="46.69979" lon="-0.72437">
        <ele>216.91</ele>
        <time>2021-03-26T10:57:06Z</time>
      </trkpt>
      <trkpt lat="46.6998" lon="-0.72439">
        <ele>216.91</ele>
        <time>2021-03-26T10:57:07Z</time>
      </trkpt>
      <trkpt lat="46.6998" lon="-0.7244">
        <ele>216.91</ele>
        <time>2021-03-26T10:57:08Z</time>
      </trkpt>
      <trkpt lat="46.69981" lon="-0.72441">
        <ele>216.91</ele>
        <time>2021-03-26T10:57:09Z</time>
      </trkpt>
      <trkpt lat="46.69985" lon="-0.72457">
        <ele>216.91</ele>
        <time>2021-03-26T10:57:18Z</time>
      </trkpt>
      <trkpt lat="46.69987" lon="-0.72462">
        <ele>216.91</ele>
        <time>2021-03-26T10:57:21Z</time>
      </trkpt>
      <trkpt lat="46.69987" lon="-0.72464">
        <ele>216.91</ele>
        <time>2021-03-26T10:57:22Z</time>
      </trkpt>
      <trkpt lat="46.69988" lon="-0.72466">
        <ele>216.91</ele>
        <time>2021-03-26T10:57:23Z</time>
      </trkpt>
      <trkpt lat="46.69993" lon="-0.72479">
        <ele>216.91</ele>
        <time>2021-03-26T10:57:31Z</time>
      </trkpt>
      <trkpt lat="46.69996" lon="-0.72489">
        <ele>215.95</ele>
        <time>2021-03-26T10:57:40Z</time>
      </trkpt>
      <trkpt lat="46.7" lon="-0.72496">
        <ele>215.95</ele>
        <time>2021-03-26T10:57:46Z</time>
      </trkpt>
      <trkpt lat="46.70006" lon="-0.72511">
        <ele>215.95</ele>
        <time>2021-03-26T10:57:53Z</time>
      </trkpt>
      <trkpt lat="46.70014" lon="-0.72525">
        <ele>215.47</ele>
        <time>2021-03-26T10:58:02Z</time>
      </trkpt>
      <trkpt lat="46.70017" lon="-0.7253">
        <ele>214.99</ele>
        <time>2021-03-26T10:58:11Z</time>
      </trkpt>
      <trkpt lat="46.70019" lon="-0.72534">
        <ele>214.99</ele>
        <time>2021-03-26T10:58:16Z</time>
      </trkpt>
      <trkpt lat="46.70028" lon="-0.72551">
        <ele>214.51</ele>
        <time>2021-03-26T10:58:24Z</time>
      </trkpt>
      <trkpt lat="46.70034" lon="-0.72561">
        <ele>214.51</ele>
        <time>2021-03-26T10:58:31Z</time>
      </trkpt>
      <trkpt lat="46.70032" lon="-0.72567">
        <ele>214.51</ele>
        <time>2021-03-26T10:58:38Z</time>
      </trkpt>
      <trkpt lat="46.7003" lon="-0.72569">
        <ele>214.03</ele>
        <time>2021-03-26T10:58:39Z</time>
      </trkpt>
      <trkpt lat="46.7003" lon="-0.72572">
        <ele>214.03</ele>
        <time>2021-03-26T10:58:40Z</time>
      </trkpt>
      <trkpt lat="46.70024" lon="-0.72587">
        <ele>214.03</ele>
        <time>2021-03-26T10:58:48Z</time>
      </trkpt>
      <trkpt lat="46.70019" lon="-0.72597">
        <ele>214.03</ele>
        <time>2021-03-26T10:58:56Z</time>
      </trkpt>
      <trkpt lat="46.70018" lon="-0.72602">
        <ele>214.03</ele>
        <time>2021-03-26T10:59:00Z</time>
      </trkpt>
      <trkpt lat="46.70017" lon="-0.72604">
        <ele>214.03</ele>
        <time>2021-03-26T10:59:01Z</time>
      </trkpt>
      <trkpt lat="46.70017" lon="-0.72607">
        <ele>214.03</ele>
        <time>2021-03-26T10:59:02Z</time>
      </trkpt>
      <trkpt lat="46.70016" lon="-0.7261">
        <ele>214.03</ele>
        <time>2021-03-26T10:59:03Z</time>
      </trkpt>
      <trkpt lat="46.70015" lon="-0.72612">
        <ele>214.03</ele>
        <time>2021-03-26T10:59:04Z</time>
      </trkpt>
      <trkpt lat="46.70012" lon="-0.72618">
        <ele>214.03</ele>
        <time>2021-03-26T10:59:11Z</time>
      </trkpt>
      <trkpt lat="46.7001" lon="-0.7262">
        <ele>215.47</ele>
        <time>2021-03-26T10:59:13Z</time>
      </trkpt>
      <trkpt lat="46.70004" lon="-0.72629">
        <ele>214.03</ele>
        <time>2021-03-26T10:59:19Z</time>
      </trkpt>
      <trkpt lat="46.69995" lon="-0.72648">
        <ele>214.03</ele>
        <time>2021-03-26T10:59:28Z</time>
      </trkpt>
      <trkpt lat="46.69993" lon="-0.72651">
        <ele>213.07</ele>
        <time>2021-03-26T10:59:34Z</time>
      </trkpt>
      <trkpt lat="46.69987" lon="-0.72655">
        <ele>213.07</ele>
        <time>2021-03-26T10:59:42Z</time>
      </trkpt>
      <trkpt lat="46.69985" lon="-0.72653">
        <ele>213.07</ele>
        <time>2021-03-26T10:59:45Z</time>
      </trkpt>
      <trkpt lat="46.69983" lon="-0.72652">
        <ele>213.07</ele>
        <time>2021-03-26T10:59:46Z</time>
      </trkpt>
      <trkpt lat="46.69978" lon="-0.72647">
        <ele>213.07</ele>
        <time>2021-03-26T10:59:52Z</time>
      </trkpt>
      <trkpt lat="46.69977" lon="-0.72646">
        <ele>213.07</ele>
        <time>2021-03-26T10:59:53Z</time>
      </trkpt>
      <trkpt lat="46.69976" lon="-0.72643">
        <ele>213.07</ele>
        <time>2021-03-26T10:59:59Z</time>
      </trkpt>
      <trkpt lat="46.69974" lon="-0.7264">
        <ele>213.07</ele>
        <time>2021-03-26T11:00:03Z</time>
      </trkpt>
      <trkpt lat="46.69972" lon="-0.72635">
        <ele>213.07</ele>
        <time>2021-03-26T11:00:08Z</time>
      </trkpt>
      <trkpt lat="46.69971" lon="-0.72633">
        <ele>213.07</ele>
        <time>2021-03-26T11:00:09Z</time>
      </trkpt>
      <trkpt lat="46.69969" lon="-0.72629">
        <ele>213.07</ele>
        <time>2021-03-26T11:00:14Z</time>
      </trkpt>
      <trkpt lat="46.69965" lon="-0.72625">
        <ele>214.51</ele>
        <time>2021-03-26T11:00:23Z</time>
      </trkpt>
      <trkpt lat="46.69965" lon="-0.72623">
        <ele>213.55</ele>
        <time>2021-03-26T11:00:30Z</time>
      </trkpt>
      <trkpt lat="46.69964" lon="-0.72621">
        <ele>213.55</ele>
        <time>2021-03-26T11:00:34Z</time>
      </trkpt>
      <trkpt lat="46.69964" lon="-0.72619">
        <ele>213.55</ele>
        <time>2021-03-26T11:00:35Z</time>
      </trkpt>
      <trkpt lat="46.69963" lon="-0.72616">
        <ele>213.55</ele>
        <time>2021-03-26T11:00:36Z</time>
      </trkpt>
      <trkpt lat="46.69962" lon="-0.72614">
        <ele>214.99</ele>
        <time>2021-03-26T11:00:38Z</time>
      </trkpt>
      <trkpt lat="46.6996" lon="-0.72611">
        <ele>214.51</ele>
        <time>2021-03-26T11:00:43Z</time>
      </trkpt>
      <trkpt lat="46.69959" lon="-0.72608">
        <ele>214.99</ele>
        <time>2021-03-26T11:00:46Z</time>
      </trkpt>
      <trkpt lat="46.69958" lon="-0.72604">
        <ele>214.99</ele>
        <time>2021-03-26T11:00:48Z</time>
      </trkpt>
      <trkpt lat="46.69956" lon="-0.72599">
        <ele>214.51</ele>
        <time>2021-03-26T11:00:53Z</time>
      </trkpt>
      <trkpt lat="46.69951" lon="-0.72596">
        <ele>214.51</ele>
        <time>2021-03-26T11:00:59Z</time>
      </trkpt>
      <trkpt lat="46.6995" lon="-0.72596">
        <ele>214.51</ele>
        <time>2021-03-26T11:01:00Z</time>
      </trkpt>
      <trkpt lat="46.69942" lon="-0.726">
        <ele>214.99</ele>
        <time>2021-03-26T11:01:09Z</time>
      </trkpt>
      <trkpt lat="46.69929" lon="-0.72602">
        <ele>214.99</ele>
        <time>2021-03-26T11:01:20Z</time>
      </trkpt>
      <trkpt lat="46.69925" lon="-0.72604">
        <ele>213.55</ele>
        <time>2021-03-26T11:01:28Z</time>
      </trkpt>
      <trkpt lat="46.69925" lon="-0.72604">
        <ele>213.55</ele>
        <time>2021-03-26T11:01:29Z</time>
      </trkpt>
      <trkpt lat="46.69925" lon="-0.72604">
        <ele>214.99</ele>
        <time>2021-03-26T11:01:31Z</time>
      </trkpt>
      <trkpt lat="46.69924" lon="-0.72604">
        <ele>214.99</ele>
        <time>2021-03-26T11:01:34Z</time>
      </trkpt>
      <trkpt lat="46.69917" lon="-0.72609">
        <ele>213.07</ele>
        <time>2021-03-26T11:01:41Z</time>
      </trkpt>
      <trkpt lat="46.69915" lon="-0.7261">
        <ele>213.07</ele>
        <time>2021-03-26T11:01:44Z</time>
      </trkpt>
      <trkpt lat="46.69908" lon="-0.72613">
        <ele>212.59</ele>
        <time>2021-03-26T11:01:49Z</time>
      </trkpt>
      <trkpt lat="46.69905" lon="-0.72613">
        <ele>212.11</ele>
        <time>2021-03-26T11:01:56Z</time>
      </trkpt>
      <trkpt lat="46.699" lon="-0.72618">
        <ele>212.11</ele>
        <time>2021-03-26T11:02:02Z</time>
      </trkpt>
      <trkpt lat="46.6989" lon="-0.72625">
        <ele>211.63</ele>
        <time>2021-03-26T11:02:08Z</time>
      </trkpt>
      <trkpt lat="46.69882" lon="-0.72628">
        <ele>210.67</ele>
        <time>2021-03-26T11:02:13Z</time>
      </trkpt>
      <trkpt lat="46.69876" lon="-0.72625">
        <ele>209.22</ele>
        <time>2021-03-26T11:02:22Z</time>
      </trkpt>
      <trkpt lat="46.69874" lon="-0.72623">
        <ele>208.26</ele>
        <time>2021-03-26T11:02:25Z</time>
      </trkpt>
      <trkpt lat="46.69863" lon="-0.72605">
        <ele>207.78</ele>
        <time>2021-03-26T11:02:34Z</time>
      </trkpt>
      <trkpt lat="46.69859" lon="-0.726">
        <ele>207.3</ele>
        <time>2021-03-26T11:02:39Z</time>
      </trkpt>
      <trkpt lat="46.69857" lon="-0.72596">
        <ele>207.3</ele>
        <time>2021-03-26T11:02:44Z</time>
      </trkpt>
      <trkpt lat="46.69848" lon="-0.72577">
        <ele>207.3</ele>
        <time>2021-03-26T11:02:53Z</time>
      </trkpt>
      <trkpt lat="46.69845" lon="-0.72568">
        <ele>207.3</ele>
        <time>2021-03-26T11:03:01Z</time>
      </trkpt>
      <trkpt lat="46.69842" lon="-0.72553">
        <ele>206.82</ele>
        <time>2021-03-26T11:03:08Z</time>
      </trkpt>
      <trkpt lat="46.69841" lon="-0.7254">
        <ele>206.82</ele>
        <time>2021-03-26T11:03:15Z</time>
      </trkpt>
      <trkpt lat="46.6984" lon="-0.72534">
        <ele>206.82</ele>
        <time>2021-03-26T11:03:19Z</time>
      </trkpt>
      <trkpt lat="46.69841" lon="-0.72529">
        <ele>206.82</ele>
        <time>2021-03-26T11:03:24Z</time>
      </trkpt>
      <trkpt lat="46.6984" lon="-0.72524">
        <ele>206.82</ele>
        <time>2021-03-26T11:03:37Z</time>
      </trkpt>
      <trkpt lat="46.6984" lon="-0.72521">
        <ele>206.82</ele>
        <time>2021-03-26T11:03:39Z</time>
      </trkpt>
      <trkpt lat="46.69838" lon="-0.72503">
        <ele>206.82</ele>
        <time>2021-03-26T11:03:47Z</time>
      </trkpt>
      <trkpt lat="46.69839" lon="-0.72493">
        <ele>207.78</ele>
        <time>2021-03-26T11:03:55Z</time>
      </trkpt>
      <trkpt lat="46.69839" lon="-0.72489">
        <ele>207.78</ele>
        <time>2021-03-26T11:03:57Z</time>
      </trkpt>
      <trkpt lat="46.69837" lon="-0.72467">
        <ele>207.78</ele>
        <time>2021-03-26T11:04:06Z</time>
      </trkpt>
      <trkpt lat="46.69835" lon="-0.72456">
        <ele>207.78</ele>
        <time>2021-03-26T11:04:13Z</time>
      </trkpt>
      <trkpt lat="46.69834" lon="-0.72443">
        <ele>205.86</ele>
        <time>2021-03-26T11:04:21Z</time>
      </trkpt>
      <trkpt lat="46.69832" lon="-0.72426">
        <ele>204.9</ele>
        <time>2021-03-26T11:04:30Z</time>
      </trkpt>
      <trkpt lat="46.69832" lon="-0.72426">
        <ele>204.9</ele>
        <time>2021-03-26T11:04:31Z</time>
      </trkpt>
      <trkpt lat="46.69829" lon="-0.7241">
        <ele>204.9</ele>
        <time>2021-03-26T11:04:39Z</time>
      </trkpt>
      <trkpt lat="46.69828" lon="-0.72402">
        <ele>204.42</ele>
        <time>2021-03-26T11:04:45Z</time>
      </trkpt>
      <trkpt lat="46.69825" lon="-0.72388">
        <ele>204.42</ele>
        <time>2021-03-26T11:04:53Z</time>
      </trkpt>
      <trkpt lat="46.69823" lon="-0.72372">
        <ele>203.46</ele>
        <time>2021-03-26T11:05:02Z</time>
      </trkpt>
      <trkpt lat="46.69821" lon="-0.72363">
        <ele>202.98</ele>
        <time>2021-03-26T11:05:09Z</time>
      </trkpt>
      <trkpt lat="46.69813" lon="-0.72354">
        <ele>201.53</ele>
        <time>2021-03-26T11:05:16Z</time>
      </trkpt>
      <trkpt lat="46.69807" lon="-0.72351">
        <ele>201.05</ele>
        <time>2021-03-26T11:05:23Z</time>
      </trkpt>
      <trkpt lat="46.69805" lon="-0.7235">
        <ele>201.05</ele>
        <time>2021-03-26T11:05:29Z</time>
      </trkpt>
      <trkpt lat="46.69802" lon="-0.72349">
        <ele>201.05</ele>
        <time>2021-03-26T11:05:36Z</time>
      </trkpt>
      <trkpt lat="46.698" lon="-0.72348">
        <ele>200.57</ele>
        <time>2021-03-26T11:05:42Z</time>
      </trkpt>
      <trkpt lat="46.69798" lon="-0.72349">
        <ele>200.57</ele>
        <time>2021-03-26T11:05:48Z</time>
      </trkpt>
      <trkpt lat="46.69797" lon="-0.7235">
        <ele>200.57</ele>
        <time>2021-03-26T11:05:58Z</time>
      </trkpt>
      <trkpt lat="46.69797" lon="-0.72349">
        <ele>200.57</ele>
        <time>2021-03-26T11:06:10Z</time>
      </trkpt>
      <trkpt lat="46.69797" lon="-0.72347">
        <ele>200.57</ele>
        <time>2021-03-26T11:06:26Z</time>
      </trkpt>
      <trkpt lat="46.69796" lon="-0.72348">
        <ele>200.57</ele>
        <time>2021-03-26T11:06:45Z</time>
      </trkpt>
      <trkpt lat="46.69797" lon="-0.72349">
        <ele>200.57</ele>
        <time>2021-03-26T11:06:58Z</time>
      </trkpt>
      <trkpt lat="46.69797" lon="-0.72349">
        <ele>200.09</ele>
        <time>2021-03-26T11:07:15Z</time>
      </trkpt>
      <trkpt lat="46.69796" lon="-0.72348">
        <ele>200.09</ele>
        <time>2021-03-26T11:07:30Z</time>
      </trkpt>
      <trkpt lat="46.69795" lon="-0.72348">
        <ele>200.09</ele>
        <time>2021-03-26T11:07:45Z</time>
      </trkpt>
      <trkpt lat="46.69796" lon="-0.72348">
        <ele>201.05</ele>
        <time>2021-03-26T11:07:54Z</time>
      </trkpt>
      <trkpt lat="46.69797" lon="-0.72347">
        <ele>201.05</ele>
        <time>2021-03-26T11:08:04Z</time>
      </trkpt>
      <trkpt lat="46.69797" lon="-0.72349">
        <ele>201.05</ele>
        <time>2021-03-26T11:08:17Z</time>
      </trkpt>
      <trkpt lat="46.69797" lon="-0.72349">
        <ele>201.05</ele>
        <time>2021-03-26T11:08:29Z</time>
      </trkpt>
      <trkpt lat="46.69795" lon="-0.72347">
        <ele>201.05</ele>
        <time>2021-03-26T11:08:36Z</time>
      </trkpt>
      <trkpt lat="46.69793" lon="-0.72346">
        <ele>201.05</ele>
        <time>2021-03-26T11:08:42Z</time>
      </trkpt>
      <trkpt lat="46.69792" lon="-0.72347">
        <ele>201.05</ele>
        <time>2021-03-26T11:08:43Z</time>
      </trkpt>
      <trkpt lat="46.69788" lon="-0.72347">
        <ele>199.61</ele>
        <time>2021-03-26T11:08:47Z</time>
      </trkpt>
      <trkpt lat="46.6978" lon="-0.72346">
        <ele>198.65</ele>
        <time>2021-03-26T11:08:56Z</time>
      </trkpt>
      <trkpt lat="46.69775" lon="-0.72348">
        <ele>197.21</ele>
        <time>2021-03-26T11:09:05Z</time>
      </trkpt>
      <trkpt lat="46.69764" lon="-0.72348">
        <ele>196.73</ele>
        <time>2021-03-26T11:09:11Z</time>
      </trkpt>
      <trkpt lat="46.69759" lon="-0.72347">
        <ele>196.73</ele>
        <time>2021-03-26T11:09:16Z</time>
      </trkpt>
      <trkpt lat="46.69757" lon="-0.72347">
        <ele>196.25</ele>
        <time>2021-03-26T11:09:33Z</time>
      </trkpt>
      <trkpt lat="46.69751" lon="-0.72346">
        <ele>195.77</ele>
        <time>2021-03-26T11:09:39Z</time>
      </trkpt>
      <trkpt lat="46.69742" lon="-0.72345">
        <ele>195.77</ele>
        <time>2021-03-26T11:09:46Z</time>
      </trkpt>
      <trkpt lat="46.69737" lon="-0.72343">
        <ele>195.77</ele>
        <time>2021-03-26T11:09:53Z</time>
      </trkpt>
      <trkpt lat="46.69726" lon="-0.72339">
        <ele>194.8</ele>
        <time>2021-03-26T11:10:01Z</time>
      </trkpt>
      <trkpt lat="46.69722" lon="-0.72338">
        <ele>194.8</ele>
        <time>2021-03-26T11:10:07Z</time>
      </trkpt>
      <trkpt lat="46.69714" lon="-0.72336">
        <ele>194.32</ele>
        <time>2021-03-26T11:10:13Z</time>
      </trkpt>
      <trkpt lat="46.69707" lon="-0.72332">
        <ele>193.84</ele>
        <time>2021-03-26T11:10:19Z</time>
      </trkpt>
      <trkpt lat="46.69702" lon="-0.72326">
        <ele>193.36</ele>
        <time>2021-03-26T11:10:28Z</time>
      </trkpt>
      <trkpt lat="46.69691" lon="-0.72317">
        <ele>193.36</ele>
        <time>2021-03-26T11:10:35Z</time>
      </trkpt>
      <trkpt lat="46.69684" lon="-0.72312">
        <ele>193.36</ele>
        <time>2021-03-26T11:10:41Z</time>
      </trkpt>
      <trkpt lat="46.69675" lon="-0.72307">
        <ele>193.36</ele>
        <time>2021-03-26T11:10:48Z</time>
      </trkpt>
      <trkpt lat="46.69664" lon="-0.723">
        <ele>193.36</ele>
        <time>2021-03-26T11:10:57Z</time>
      </trkpt>
      <trkpt lat="46.6966" lon="-0.72296">
        <ele>192.88</ele>
        <time>2021-03-26T11:11:05Z</time>
      </trkpt>
      <trkpt lat="46.69654" lon="-0.72293">
        <ele>192.88</ele>
        <time>2021-03-26T11:11:22Z</time>
      </trkpt>
      <trkpt lat="46.69649" lon="-0.72291">
        <ele>192.88</ele>
        <time>2021-03-26T11:11:33Z</time>
      </trkpt>
      <trkpt lat="46.69644" lon="-0.72289">
        <ele>192.88</ele>
        <time>2021-03-26T11:11:42Z</time>
      </trkpt>
      <trkpt lat="46.69634" lon="-0.72285">
        <ele>193.84</ele>
        <time>2021-03-26T11:11:50Z</time>
      </trkpt>
      <trkpt lat="46.6962" lon="-0.72278">
        <ele>194.8</ele>
        <time>2021-03-26T11:11:58Z</time>
      </trkpt>
      <trkpt lat="46.69611" lon="-0.72275">
        <ele>195.28</ele>
        <time>2021-03-26T11:12:05Z</time>
      </trkpt>
      <trkpt lat="46.69604" lon="-0.72272">
        <ele>196.25</ele>
        <time>2021-03-26T11:12:13Z</time>
      </trkpt>
      <trkpt lat="46.69596" lon="-0.72269">
        <ele>196.73</ele>
        <time>2021-03-26T11:12:21Z</time>
      </trkpt>
      <trkpt lat="46.6959" lon="-0.72266">
        <ele>198.17</ele>
        <time>2021-03-26T11:12:28Z</time>
      </trkpt>
      <trkpt lat="46.69584" lon="-0.72261">
        <ele>199.13</ele>
        <time>2021-03-26T11:12:36Z</time>
      </trkpt>
      <trkpt lat="46.69579" lon="-0.72257">
        <ele>200.57</ele>
        <time>2021-03-26T11:12:44Z</time>
      </trkpt>
      <trkpt lat="46.69574" lon="-0.72254">
        <ele>202.01</ele>
        <time>2021-03-26T11:12:52Z</time>
      </trkpt>
      <trkpt lat="46.69568" lon="-0.72251">
        <ele>203.46</ele>
        <time>2021-03-26T11:13:00Z</time>
      </trkpt>
      <trkpt lat="46.69558" lon="-0.72245">
        <ele>205.38</ele>
        <time>2021-03-26T11:13:10Z</time>
      </trkpt>
      <trkpt lat="46.69553" lon="-0.72243">
        <ele>206.34</ele>
        <time>2021-03-26T11:13:15Z</time>
      </trkpt>
      <trkpt lat="46.69543" lon="-0.72243">
        <ele>208.26</ele>
        <time>2021-03-26T11:13:24Z</time>
      </trkpt>
      <trkpt lat="46.69536" lon="-0.72243">
        <ele>209.22</ele>
        <time>2021-03-26T11:13:31Z</time>
      </trkpt>
      <trkpt lat="46.69526" lon="-0.72243">
        <ele>210.19</ele>
        <time>2021-03-26T11:13:40Z</time>
      </trkpt>
      <trkpt lat="46.69518" lon="-0.72244">
        <ele>212.11</ele>
        <time>2021-03-26T11:13:48Z</time>
      </trkpt>
      <trkpt lat="46.6951" lon="-0.72244">
        <ele>213.07</ele>
        <time>2021-03-26T11:13:55Z</time>
      </trkpt>
      <trkpt lat="46.69502" lon="-0.72244">
        <ele>213.55</ele>
        <time>2021-03-26T11:14:03Z</time>
      </trkpt>
      <trkpt lat="46.69494" lon="-0.72243">
        <ele>214.51</ele>
        <time>2021-03-26T11:14:11Z</time>
      </trkpt>
      <trkpt lat="46.6948" lon="-0.7224">
        <ele>215.47</ele>
        <time>2021-03-26T11:14:20Z</time>
      </trkpt>
      <trkpt lat="46.69478" lon="-0.72239">
        <ele>215.95</ele>
        <time>2021-03-26T11:14:22Z</time>
      </trkpt>
      <trkpt lat="46.69467" lon="-0.72235">
        <ele>217.4</ele>
        <time>2021-03-26T11:14:31Z</time>
      </trkpt>
      <trkpt lat="46.69459" lon="-0.72232">
        <ele>218.36</ele>
        <time>2021-03-26T11:14:39Z</time>
      </trkpt>
      <trkpt lat="46.69448" lon="-0.72226">
        <ele>219.32</ele>
        <time>2021-03-26T11:14:46Z</time>
      </trkpt>
      <trkpt lat="46.69439" lon="-0.7222">
        <ele>220.28</ele>
        <time>2021-03-26T11:14:53Z</time>
      </trkpt>
      <trkpt lat="46.69433" lon="-0.72217">
        <ele>221.24</ele>
        <time>2021-03-26T11:15:00Z</time>
      </trkpt>
      <trkpt lat="46.69428" lon="-0.72216">
        <ele>221.72</ele>
        <time>2021-03-26T11:15:08Z</time>
      </trkpt>
      <trkpt lat="46.69417" lon="-0.72213">
        <ele>223.64</ele>
        <time>2021-03-26T11:15:16Z</time>
      </trkpt>
      <trkpt lat="46.69407" lon="-0.72208">
        <ele>225.09</ele>
        <time>2021-03-26T11:15:24Z</time>
      </trkpt>
      <trkpt lat="46.69398" lon="-0.72203">
        <ele>226.53</ele>
        <time>2021-03-26T11:15:32Z</time>
      </trkpt>
      <trkpt lat="46.69385" lon="-0.72195">
        <ele>227.01</ele>
        <time>2021-03-26T11:15:41Z</time>
      </trkpt>
      <trkpt lat="46.69384" lon="-0.72194">
        <ele>227.49</ele>
        <time>2021-03-26T11:15:48Z</time>
      </trkpt>
      <trkpt lat="46.69378" lon="-0.72192">
        <ele>227.49</ele>
        <time>2021-03-26T11:15:54Z</time>
      </trkpt>
      <trkpt lat="46.6937" lon="-0.7219">
        <ele>227.49</ele>
        <time>2021-03-26T11:16:03Z</time>
      </trkpt>
      <trkpt lat="46.69357" lon="-0.72185">
        <ele>227.49</ele>
        <time>2021-03-26T11:16:10Z</time>
      </trkpt>
      <trkpt lat="46.69351" lon="-0.72182">
        <ele>227.49</ele>
        <time>2021-03-26T11:16:17Z</time>
      </trkpt>
      <trkpt lat="46.69344" lon="-0.72177">
        <ele>227.49</ele>
        <time>2021-03-26T11:16:22Z</time>
      </trkpt>
      <trkpt lat="46.69339" lon="-0.72174">
        <ele>227.49</ele>
        <time>2021-03-26T11:16:28Z</time>
      </trkpt>
      <trkpt lat="46.69336" lon="-0.72172">
        <ele>227.49</ele>
        <time>2021-03-26T11:16:34Z</time>
      </trkpt>
      <trkpt lat="46.69334" lon="-0.7217">
        <ele>227.49</ele>
        <time>2021-03-26T11:16:40Z</time>
      </trkpt>
      <trkpt lat="46.69331" lon="-0.72168">
        <ele>227.49</ele>
        <time>2021-03-26T11:16:52Z</time>
      </trkpt>
      <trkpt lat="46.69328" lon="-0.72168">
        <ele>227.49</ele>
        <time>2021-03-26T11:16:56Z</time>
      </trkpt>
      <trkpt lat="46.69323" lon="-0.7216">
        <ele>227.49</ele>
        <time>2021-03-26T11:17:03Z</time>
      </trkpt>
      <trkpt lat="46.69322" lon="-0.72158">
        <ele>227.49</ele>
        <time>2021-03-26T11:17:08Z</time>
      </trkpt>
      <trkpt lat="46.69318" lon="-0.72147">
        <ele>227.97</ele>
        <time>2021-03-26T11:17:16Z</time>
      </trkpt>
      <trkpt lat="46.69313" lon="-0.72136">
        <ele>227.97</ele>
        <time>2021-03-26T11:17:26Z</time>
      </trkpt>
      <trkpt lat="46.69304" lon="-0.72116">
        <ele>228.93</ele>
        <time>2021-03-26T11:17:35Z</time>
      </trkpt>
      <trkpt lat="46.69291" lon="-0.72091">
        <ele>229.41</ele>
        <time>2021-03-26T11:17:47Z</time>
      </trkpt>
      <trkpt lat="46.69284" lon="-0.72077">
        <ele>228.93</ele>
        <time>2021-03-26T11:17:57Z</time>
      </trkpt>
      <trkpt lat="46.69278" lon="-0.72064">
        <ele>229.89</ele>
        <time>2021-03-26T11:18:08Z</time>
      </trkpt>
      <trkpt lat="46.69271" lon="-0.72047">
        <ele>229.89</ele>
        <time>2021-03-26T11:18:18Z</time>
      </trkpt>
      <trkpt lat="46.69265" lon="-0.72031">
        <ele>230.37</ele>
        <time>2021-03-26T11:18:28Z</time>
      </trkpt>
      <trkpt lat="46.69259" lon="-0.72017">
        <ele>231.33</ele>
        <time>2021-03-26T11:18:36Z</time>
      </trkpt>
      <trkpt lat="46.69259" lon="-0.72012">
        <ele>231.81</ele>
        <time>2021-03-26T11:18:44Z</time>
      </trkpt>
      <trkpt lat="46.69259" lon="-0.7201">
        <ele>231.81</ele>
        <time>2021-03-26T11:18:56Z</time>
      </trkpt>
      <trkpt lat="46.69256" lon="-0.72005">
        <ele>231.81</ele>
        <time>2021-03-26T11:19:05Z</time>
      </trkpt>
      <trkpt lat="46.69253" lon="-0.71999">
        <ele>231.81</ele>
        <time>2021-03-26T11:19:13Z</time>
      </trkpt>
      <trkpt lat="46.6925" lon="-0.71996">
        <ele>231.81</ele>
        <time>2021-03-26T11:19:27Z</time>
      </trkpt>
      <trkpt lat="46.69249" lon="-0.71995">
        <ele>231.81</ele>
        <time>2021-03-26T11:19:28Z</time>
      </trkpt>
      <trkpt lat="46.69244" lon="-0.71982">
        <ele>231.81</ele>
        <time>2021-03-26T11:19:37Z</time>
      </trkpt>
      <trkpt lat="46.69239" lon="-0.7197">
        <ele>231.81</ele>
        <time>2021-03-26T11:19:46Z</time>
      </trkpt>
      <trkpt lat="46.69234" lon="-0.71958">
        <ele>231.81</ele>
        <time>2021-03-26T11:19:53Z</time>
      </trkpt>
      <trkpt lat="46.69228" lon="-0.71947">
        <ele>231.81</ele>
        <time>2021-03-26T11:20:02Z</time>
      </trkpt>
      <trkpt lat="46.69223" lon="-0.7193">
        <ele>232.3</ele>
        <time>2021-03-26T11:20:12Z</time>
      </trkpt>
      <trkpt lat="46.69217" lon="-0.71909">
        <ele>232.78</ele>
        <time>2021-03-26T11:20:21Z</time>
      </trkpt>
      <trkpt lat="46.69211" lon="-0.71894">
        <ele>232.78</ele>
        <time>2021-03-26T11:20:30Z</time>
      </trkpt>
      <trkpt lat="46.69207" lon="-0.71873">
        <ele>232.3</ele>
        <time>2021-03-26T11:20:43Z</time>
      </trkpt>
      <trkpt lat="46.69204" lon="-0.71851">
        <ele>233.26</ele>
        <time>2021-03-26T11:20:53Z</time>
      </trkpt>
      <trkpt lat="46.69203" lon="-0.71838">
        <ele>233.74</ele>
        <time>2021-03-26T11:21:02Z</time>
      </trkpt>
      <trkpt lat="46.69201" lon="-0.71817">
        <ele>233.26</ele>
        <time>2021-03-26T11:21:11Z</time>
      </trkpt>
      <trkpt lat="46.69199" lon="-0.71804">
        <ele>234.7</ele>
        <time>2021-03-26T11:21:18Z</time>
      </trkpt>
      <trkpt lat="46.69198" lon="-0.7179">
        <ele>234.7</ele>
        <time>2021-03-26T11:21:27Z</time>
      </trkpt>
      <trkpt lat="46.69197" lon="-0.71777">
        <ele>235.18</ele>
        <time>2021-03-26T11:21:35Z</time>
      </trkpt>
      <trkpt lat="46.69195" lon="-0.71766">
        <ele>236.14</ele>
        <time>2021-03-26T11:21:41Z</time>
      </trkpt>
      <trkpt lat="46.69193" lon="-0.71748">
        <ele>236.14</ele>
        <time>2021-03-26T11:21:49Z</time>
      </trkpt>
      <trkpt lat="46.6919" lon="-0.71738">
        <ele>234.7</ele>
        <time>2021-03-26T11:21:57Z</time>
      </trkpt>
      <trkpt lat="46.69185" lon="-0.71718">
        <ele>234.7</ele>
        <time>2021-03-26T11:22:09Z</time>
      </trkpt>
      <trkpt lat="46.69177" lon="-0.71695">
        <ele>234.7</ele>
        <time>2021-03-26T11:22:19Z</time>
      </trkpt>
      <trkpt lat="46.69169" lon="-0.71679">
        <ele>233.74</ele>
        <time>2021-03-26T11:22:28Z</time>
      </trkpt>
      <trkpt lat="46.69167" lon="-0.71668">
        <ele>232.78</ele>
        <time>2021-03-26T11:22:38Z</time>
      </trkpt>
      <trkpt lat="46.69165" lon="-0.71654">
        <ele>232.78</ele>
        <time>2021-03-26T11:22:45Z</time>
      </trkpt>
      <trkpt lat="46.6916" lon="-0.71634">
        <ele>232.3</ele>
        <time>2021-03-26T11:22:55Z</time>
      </trkpt>
      <trkpt lat="46.69158" lon="-0.71623">
        <ele>232.78</ele>
        <time>2021-03-26T11:23:02Z</time>
      </trkpt>
      <trkpt lat="46.69158" lon="-0.71621">
        <ele>232.78</ele>
        <time>2021-03-26T11:23:03Z</time>
      </trkpt>
      <trkpt lat="46.69157" lon="-0.71619">
        <ele>232.78</ele>
        <time>2021-03-26T11:23:04Z</time>
      </trkpt>
      <trkpt lat="46.69157" lon="-0.71616">
        <ele>232.78</ele>
        <time>2021-03-26T11:23:05Z</time>
      </trkpt>
      <trkpt lat="46.69157" lon="-0.71614">
        <ele>232.78</ele>
        <time>2021-03-26T11:23:06Z</time>
      </trkpt>
      <trkpt lat="46.69158" lon="-0.71603">
        <ele>233.74</ele>
        <time>2021-03-26T11:23:13Z</time>
      </trkpt>
      <trkpt lat="46.69158" lon="-0.716">
        <ele>234.22</ele>
        <time>2021-03-26T11:23:20Z</time>
      </trkpt>
      <trkpt lat="46.6916" lon="-0.71598">
        <ele>234.22</ele>
        <time>2021-03-26T11:23:27Z</time>
      </trkpt>
      <trkpt lat="46.69164" lon="-0.71595">
        <ele>234.22</ele>
        <time>2021-03-26T11:23:34Z</time>
      </trkpt>
      <trkpt lat="46.69167" lon="-0.71593">
        <ele>233.26</ele>
        <time>2021-03-26T11:23:39Z</time>
      </trkpt>
      <trkpt lat="46.69175" lon="-0.71589">
        <ele>233.26</ele>
        <time>2021-03-26T11:23:46Z</time>
      </trkpt>
      <trkpt lat="46.69184" lon="-0.71584">
        <ele>232.78</ele>
        <time>2021-03-26T11:23:54Z</time>
      </trkpt>
      <trkpt lat="46.69189" lon="-0.7158">
        <ele>232.78</ele>
        <time>2021-03-26T11:24:00Z</time>
      </trkpt>
      <trkpt lat="46.69191" lon="-0.71578">
        <ele>232.78</ele>
        <time>2021-03-26T11:24:01Z</time>
      </trkpt>
      <trkpt lat="46.69196" lon="-0.71572">
        <ele>232.78</ele>
        <time>2021-03-26T11:24:07Z</time>
      </trkpt>
      <trkpt lat="46.692" lon="-0.71564">
        <ele>232.78</ele>
        <time>2021-03-26T11:24:14Z</time>
      </trkpt>
      <trkpt lat="46.69202" lon="-0.71561">
        <ele>232.78</ele>
        <time>2021-03-26T11:24:20Z</time>
      </trkpt>
      <trkpt lat="46.69203" lon="-0.71547">
        <ele>231.81</ele>
        <time>2021-03-26T11:24:29Z</time>
      </trkpt>
      <trkpt lat="46.69205" lon="-0.7154">
        <ele>231.81</ele>
        <time>2021-03-26T11:24:34Z</time>
      </trkpt>
      <trkpt lat="46.69205" lon="-0.71542">
        <ele>231.81</ele>
        <time>2021-03-26T11:24:44Z</time>
      </trkpt>
      <trkpt lat="46.69205" lon="-0.7154">
        <ele>231.81</ele>
        <time>2021-03-26T11:24:53Z</time>
      </trkpt>
      <trkpt lat="46.69207" lon="-0.7153">
        <ele>231.81</ele>
        <time>2021-03-26T11:25:02Z</time>
      </trkpt>
      <trkpt lat="46.69209" lon="-0.71515">
        <ele>230.85</ele>
        <time>2021-03-26T11:25:09Z</time>
      </trkpt>
      <trkpt lat="46.6921" lon="-0.71503">
        <ele>230.37</ele>
        <time>2021-03-26T11:25:15Z</time>
      </trkpt>
      <trkpt lat="46.6921" lon="-0.71498">
        <ele>229.41</ele>
        <time>2021-03-26T11:25:22Z</time>
      </trkpt>
      <trkpt lat="46.69214" lon="-0.71483">
        <ele>229.41</ele>
        <time>2021-03-26T11:25:30Z</time>
      </trkpt>
      <trkpt lat="46.69215" lon="-0.7147">
        <ele>228.45</ele>
        <time>2021-03-26T11:25:36Z</time>
      </trkpt>
      <trkpt lat="46.69215" lon="-0.71468">
        <ele>228.45</ele>
        <time>2021-03-26T11:25:42Z</time>
      </trkpt>
      <trkpt lat="46.69215" lon="-0.71463">
        <ele>227.97</ele>
        <time>2021-03-26T11:25:48Z</time>
      </trkpt>
      <trkpt lat="46.69215" lon="-0.71461">
        <ele>227.97</ele>
        <time>2021-03-26T11:25:49Z</time>
      </trkpt>
      <trkpt lat="46.69216" lon="-0.7145">
        <ele>227.49</ele>
        <time>2021-03-26T11:25:54Z</time>
      </trkpt>
      <trkpt lat="46.69217" lon="-0.71434">
        <ele>226.53</ele>
        <time>2021-03-26T11:26:03Z</time>
      </trkpt>
      <trkpt lat="46.69217" lon="-0.71423">
        <ele>226.05</ele>
        <time>2021-03-26T11:26:11Z</time>
      </trkpt>
      <trkpt lat="46.69219" lon="-0.71407">
        <ele>225.57</ele>
        <time>2021-03-26T11:26:18Z</time>
      </trkpt>
      <trkpt lat="46.69221" lon="-0.71394">
        <ele>224.61</ele>
        <time>2021-03-26T11:26:27Z</time>
      </trkpt>
      <trkpt lat="46.69221" lon="-0.71377">
        <ele>224.12</ele>
        <time>2021-03-26T11:26:35Z</time>
      </trkpt>
      <trkpt lat="46.69221" lon="-0.71363">
        <ele>223.64</ele>
        <time>2021-03-26T11:26:45Z</time>
      </trkpt>
      <trkpt lat="46.6922" lon="-0.71354">
        <ele>223.64</ele>
        <time>2021-03-26T11:26:50Z</time>
      </trkpt>
      <trkpt lat="46.69217" lon="-0.71339">
        <ele>222.68</ele>
        <time>2021-03-26T11:27:00Z</time>
      </trkpt>
      <trkpt lat="46.69216" lon="-0.71329">
        <ele>222.68</ele>
        <time>2021-03-26T11:27:05Z</time>
      </trkpt>
      <trkpt lat="46.69214" lon="-0.71319">
        <ele>222.68</ele>
        <time>2021-03-26T11:27:10Z</time>
      </trkpt>
      <trkpt lat="46.69213" lon="-0.71312">
        <ele>222.2</ele>
        <time>2021-03-26T11:27:16Z</time>
      </trkpt>
      <trkpt lat="46.69212" lon="-0.713">
        <ele>222.2</ele>
        <time>2021-03-26T11:27:21Z</time>
      </trkpt>
      <trkpt lat="46.6921" lon="-0.71287">
        <ele>221.72</ele>
        <time>2021-03-26T11:27:30Z</time>
      </trkpt>
      <trkpt lat="46.69207" lon="-0.71271">
        <ele>221.72</ele>
        <time>2021-03-26T11:27:39Z</time>
      </trkpt>
      <trkpt lat="46.69203" lon="-0.71259">
        <ele>221.72</ele>
        <time>2021-03-26T11:27:46Z</time>
      </trkpt>
      <trkpt lat="46.692" lon="-0.71243">
        <ele>221.72</ele>
        <time>2021-03-26T11:27:53Z</time>
      </trkpt>
      <trkpt lat="46.69199" lon="-0.71232">
        <ele>221.72</ele>
        <time>2021-03-26T11:28:01Z</time>
      </trkpt>
      <trkpt lat="46.69199" lon="-0.71225">
        <ele>221.24</ele>
        <time>2021-03-26T11:28:06Z</time>
      </trkpt>
      <trkpt lat="46.69198" lon="-0.71218">
        <ele>221.24</ele>
        <time>2021-03-26T11:28:10Z</time>
      </trkpt>
      <trkpt lat="46.69195" lon="-0.71201">
        <ele>221.24</ele>
        <time>2021-03-26T11:28:19Z</time>
      </trkpt>
      <trkpt lat="46.69193" lon="-0.71194">
        <ele>221.24</ele>
        <time>2021-03-26T11:28:23Z</time>
      </trkpt>
      <trkpt lat="46.69192" lon="-0.71186">
        <ele>220.76</ele>
        <time>2021-03-26T11:28:27Z</time>
      </trkpt>
      <trkpt lat="46.69189" lon="-0.71171">
        <ele>220.28</ele>
        <time>2021-03-26T11:28:37Z</time>
      </trkpt>
      <trkpt lat="46.69191" lon="-0.7116">
        <ele>220.28</ele>
        <time>2021-03-26T11:28:42Z</time>
      </trkpt>
      <trkpt lat="46.6919" lon="-0.71141">
        <ele>220.28</ele>
        <time>2021-03-26T11:28:51Z</time>
      </trkpt>
      <trkpt lat="46.69192" lon="-0.71131">
        <ele>219.8</ele>
        <time>2021-03-26T11:28:58Z</time>
      </trkpt>
      <trkpt lat="46.692" lon="-0.71106">
        <ele>219.8</ele>
        <time>2021-03-26T11:29:07Z</time>
      </trkpt>
      <trkpt lat="46.69201" lon="-0.71104">
        <ele>219.8</ele>
        <time>2021-03-26T11:29:08Z</time>
      </trkpt>
      <trkpt lat="46.69204" lon="-0.71094">
        <ele>219.32</ele>
        <time>2021-03-26T11:29:16Z</time>
      </trkpt>
      <trkpt lat="46.69205" lon="-0.71092">
        <ele>219.32</ele>
        <time>2021-03-26T11:29:18Z</time>
      </trkpt>
      <trkpt lat="46.6921" lon="-0.7108">
        <ele>218.84</ele>
        <time>2021-03-26T11:29:24Z</time>
      </trkpt>
      <trkpt lat="46.69216" lon="-0.71064">
        <ele>218.36</ele>
        <time>2021-03-26T11:29:32Z</time>
      </trkpt>
      <trkpt lat="46.69222" lon="-0.71053">
        <ele>218.36</ele>
        <time>2021-03-26T11:29:41Z</time>
      </trkpt>
      <trkpt lat="46.69228" lon="-0.71042">
        <ele>217.88</ele>
        <time>2021-03-26T11:29:46Z</time>
      </trkpt>
      <trkpt lat="46.69232" lon="-0.71029">
        <ele>217.88</ele>
        <time>2021-03-26T11:29:55Z</time>
      </trkpt>
      <trkpt lat="46.69237" lon="-0.7102">
        <ele>217.88</ele>
        <time>2021-03-26T11:30:01Z</time>
      </trkpt>
      <trkpt lat="46.69241" lon="-0.71009">
        <ele>217.88</ele>
        <time>2021-03-26T11:30:06Z</time>
      </trkpt>
      <trkpt lat="46.69246" lon="-0.70999">
        <ele>217.88</ele>
        <time>2021-03-26T11:30:15Z</time>
      </trkpt>
      <trkpt lat="46.69251" lon="-0.70988">
        <ele>217.88</ele>
        <time>2021-03-26T11:30:21Z</time>
      </trkpt>
      <trkpt lat="46.69255" lon="-0.70975">
        <ele>217.88</ele>
        <time>2021-03-26T11:30:30Z</time>
      </trkpt>
      <trkpt lat="46.69259" lon="-0.70961">
        <ele>217.88</ele>
        <time>2021-03-26T11:30:37Z</time>
      </trkpt>
      <trkpt lat="46.69262" lon="-0.7095">
        <ele>217.88</ele>
        <time>2021-03-26T11:30:44Z</time>
      </trkpt>
      <trkpt lat="46.69266" lon="-0.70935">
        <ele>217.88</ele>
        <time>2021-03-26T11:30:51Z</time>
      </trkpt>
      <trkpt lat="46.69269" lon="-0.70927">
        <ele>217.88</ele>
        <time>2021-03-26T11:30:58Z</time>
      </trkpt>
      <trkpt lat="46.69272" lon="-0.7092">
        <ele>217.88</ele>
        <time>2021-03-26T11:31:03Z</time>
      </trkpt>
      <trkpt lat="46.69276" lon="-0.70905">
        <ele>217.88</ele>
        <time>2021-03-26T11:31:11Z</time>
      </trkpt>
      <trkpt lat="46.6928" lon="-0.70895">
        <ele>217.88</ele>
        <time>2021-03-26T11:31:17Z</time>
      </trkpt>
      <trkpt lat="46.69282" lon="-0.70892">
        <ele>218.84</ele>
        <time>2021-03-26T11:31:21Z</time>
      </trkpt>
      <trkpt lat="46.69286" lon="-0.70881">
        <ele>218.84</ele>
        <time>2021-03-26T11:31:28Z</time>
      </trkpt>
      <trkpt lat="46.69287" lon="-0.70877">
        <ele>219.32</ele>
        <time>2021-03-26T11:31:35Z</time>
      </trkpt>
      <trkpt lat="46.69289" lon="-0.70875">
        <ele>219.32</ele>
        <time>2021-03-26T11:31:44Z</time>
      </trkpt>
      <trkpt lat="46.69289" lon="-0.70873">
        <ele>219.32</ele>
        <time>2021-03-26T11:31:57Z</time>
      </trkpt>
      <trkpt lat="46.6929" lon="-0.70865">
        <ele>219.8</ele>
        <time>2021-03-26T11:32:05Z</time>
      </trkpt>
      <trkpt lat="46.6929" lon="-0.70852">
        <ele>219.8</ele>
        <time>2021-03-26T11:32:12Z</time>
      </trkpt>
      <trkpt lat="46.6929" lon="-0.70847">
        <ele>219.8</ele>
        <time>2021-03-26T11:32:18Z</time>
      </trkpt>
      <trkpt lat="46.69291" lon="-0.70845">
        <ele>221.24</ele>
        <time>2021-03-26T11:32:21Z</time>
      </trkpt>
      <trkpt lat="46.69292" lon="-0.70837">
        <ele>219.8</ele>
        <time>2021-03-26T11:32:26Z</time>
      </trkpt>
      <trkpt lat="46.69294" lon="-0.70824">
        <ele>219.8</ele>
        <time>2021-03-26T11:32:34Z</time>
      </trkpt>
      <trkpt lat="46.69295" lon="-0.70819">
        <ele>219.8</ele>
        <time>2021-03-26T11:32:44Z</time>
      </trkpt>
      <trkpt lat="46.69295" lon="-0.70818">
        <ele>219.8</ele>
        <time>2021-03-26T11:32:46Z</time>
      </trkpt>
      <trkpt lat="46.69296" lon="-0.70807">
        <ele>219.8</ele>
        <time>2021-03-26T11:32:54Z</time>
      </trkpt>
      <trkpt lat="46.693" lon="-0.70798">
        <ele>220.76</ele>
        <time>2021-03-26T11:33:03Z</time>
      </trkpt>
      <trkpt lat="46.69301" lon="-0.70792">
        <ele>220.28</ele>
        <time>2021-03-26T11:33:10Z</time>
      </trkpt>
      <trkpt lat="46.69301" lon="-0.7079">
        <ele>220.28</ele>
        <time>2021-03-26T11:33:16Z</time>
      </trkpt>
      <trkpt lat="46.69303" lon="-0.70787">
        <ele>220.28</ele>
        <time>2021-03-26T11:33:20Z</time>
      </trkpt>
      <trkpt lat="46.69303" lon="-0.7078">
        <ele>220.28</ele>
        <time>2021-03-26T11:33:24Z</time>
      </trkpt>
      <trkpt lat="46.69303" lon="-0.70769">
        <ele>220.28</ele>
        <time>2021-03-26T11:33:30Z</time>
      </trkpt>
      <trkpt lat="46.69303" lon="-0.70767">
        <ele>220.28</ele>
        <time>2021-03-26T11:33:31Z</time>
      </trkpt>
      <trkpt lat="46.69306" lon="-0.70751">
        <ele>220.28</ele>
        <time>2021-03-26T11:33:39Z</time>
      </trkpt>
      <trkpt lat="46.69308" lon="-0.70739">
        <ele>220.28</ele>
        <time>2021-03-26T11:33:47Z</time>
      </trkpt>
      <trkpt lat="46.69308" lon="-0.70736">
        <ele>220.28</ele>
        <time>2021-03-26T11:33:49Z</time>
      </trkpt>
      <trkpt lat="46.6931" lon="-0.70726">
        <ele>220.28</ele>
        <time>2021-03-26T11:33:54Z</time>
      </trkpt>
      <trkpt lat="46.69313" lon="-0.70711">
        <ele>220.28</ele>
        <time>2021-03-26T11:34:03Z</time>
      </trkpt>
      <trkpt lat="46.69317" lon="-0.70698">
        <ele>221.72</ele>
        <time>2021-03-26T11:34:10Z</time>
      </trkpt>
      <trkpt lat="46.69321" lon="-0.70691">
        <ele>221.72</ele>
        <time>2021-03-26T11:34:17Z</time>
      </trkpt>
      <trkpt lat="46.69323" lon="-0.70687">
        <ele>221.72</ele>
        <time>2021-03-26T11:34:24Z</time>
      </trkpt>
      <trkpt lat="46.69323" lon="-0.70686">
        <ele>221.72</ele>
        <time>2021-03-26T11:34:26Z</time>
      </trkpt>
      <trkpt lat="46.69325" lon="-0.70681">
        <ele>222.2</ele>
        <time>2021-03-26T11:34:32Z</time>
      </trkpt>
      <trkpt lat="46.69328" lon="-0.70674">
        <ele>222.68</ele>
        <time>2021-03-26T11:34:37Z</time>
      </trkpt>
      <trkpt lat="46.69331" lon="-0.70668">
        <ele>222.68</ele>
        <time>2021-03-26T11:34:44Z</time>
      </trkpt>
      <trkpt lat="46.69337" lon="-0.70654">
        <ele>222.68</ele>
        <time>2021-03-26T11:34:51Z</time>
      </trkpt>
      <trkpt lat="46.69341" lon="-0.70647">
        <ele>222.68</ele>
        <time>2021-03-26T11:34:58Z</time>
      </trkpt>
      <trkpt lat="46.69344" lon="-0.70634">
        <ele>222.68</ele>
        <time>2021-03-26T11:35:06Z</time>
      </trkpt>
      <trkpt lat="46.69346" lon="-0.70621">
        <ele>222.68</ele>
        <time>2021-03-26T11:35:14Z</time>
      </trkpt>
      <trkpt lat="46.69347" lon="-0.70605">
        <ele>223.16</ele>
        <time>2021-03-26T11:35:21Z</time>
      </trkpt>
      <trkpt lat="46.69349" lon="-0.70596">
        <ele>223.16</ele>
        <time>2021-03-26T11:35:28Z</time>
      </trkpt>
      <trkpt lat="46.69349" lon="-0.70578">
        <ele>223.64</ele>
        <time>2021-03-26T11:35:35Z</time>
      </trkpt>
      <trkpt lat="46.69349" lon="-0.70568">
        <ele>223.64</ele>
        <time>2021-03-26T11:35:43Z</time>
      </trkpt>
      <trkpt lat="46.6935" lon="-0.70554">
        <ele>223.64</ele>
        <time>2021-03-26T11:35:50Z</time>
      </trkpt>
      <trkpt lat="46.69351" lon="-0.70538">
        <ele>223.64</ele>
        <time>2021-03-26T11:35:58Z</time>
      </trkpt>
      <trkpt lat="46.69352" lon="-0.70535">
        <ele>224.12</ele>
        <time>2021-03-26T11:36:02Z</time>
      </trkpt>
      <trkpt lat="46.69352" lon="-0.70533">
        <ele>224.12</ele>
        <time>2021-03-26T11:36:03Z</time>
      </trkpt>
      <trkpt lat="46.69352" lon="-0.70523">
        <ele>225.09</ele>
        <time>2021-03-26T11:36:09Z</time>
      </trkpt>
      <trkpt lat="46.69352" lon="-0.70506">
        <ele>225.09</ele>
        <time>2021-03-26T11:36:16Z</time>
      </trkpt>
      <trkpt lat="46.69352" lon="-0.70491">
        <ele>225.09</ele>
        <time>2021-03-26T11:36:26Z</time>
      </trkpt>
      <trkpt lat="46.69353" lon="-0.70469">
        <ele>225.09</ele>
        <time>2021-03-26T11:36:36Z</time>
      </trkpt>
      <trkpt lat="46.69354" lon="-0.70453">
        <ele>226.05</ele>
        <time>2021-03-26T11:36:46Z</time>
      </trkpt>
      <trkpt lat="46.69354" lon="-0.70451">
        <ele>226.05</ele>
        <time>2021-03-26T11:36:47Z</time>
      </trkpt>
      <trkpt lat="46.69355" lon="-0.7043">
        <ele>226.05</ele>
        <time>2021-03-26T11:36:56Z</time>
      </trkpt>
      <trkpt lat="46.69355" lon="-0.7042">
        <ele>226.05</ele>
        <time>2021-03-26T11:37:05Z</time>
      </trkpt>
      <trkpt lat="46.69356" lon="-0.70406">
        <ele>226.53</ele>
        <time>2021-03-26T11:37:12Z</time>
      </trkpt>
      <trkpt lat="46.69355" lon="-0.70396">
        <ele>227.01</ele>
        <time>2021-03-26T11:37:19Z</time>
      </trkpt>
      <trkpt lat="46.69356" lon="-0.70377">
        <ele>227.01</ele>
        <time>2021-03-26T11:37:27Z</time>
      </trkpt>
      <trkpt lat="46.69356" lon="-0.70367">
        <ele>227.01</ele>
        <time>2021-03-26T11:37:35Z</time>
      </trkpt>
      <trkpt lat="46.69356" lon="-0.70362">
        <ele>227.49</ele>
        <time>2021-03-26T11:37:42Z</time>
      </trkpt>
      <trkpt lat="46.69355" lon="-0.70356">
        <ele>227.49</ele>
        <time>2021-03-26T11:37:58Z</time>
      </trkpt>
      <trkpt lat="46.69357" lon="-0.70352">
        <ele>227.97</ele>
        <time>2021-03-26T11:38:05Z</time>
      </trkpt>
      <trkpt lat="46.69359" lon="-0.70349">
        <ele>227.97</ele>
        <time>2021-03-26T11:38:11Z</time>
      </trkpt>
      <trkpt lat="46.6936" lon="-0.70348">
        <ele>227.97</ele>
        <time>2021-03-26T11:38:13Z</time>
      </trkpt>
      <trkpt lat="46.69365" lon="-0.70343">
        <ele>227.97</ele>
        <time>2021-03-26T11:38:18Z</time>
      </trkpt>
      <trkpt lat="46.69371" lon="-0.70337">
        <ele>227.97</ele>
        <time>2021-03-26T11:38:26Z</time>
      </trkpt>
      <trkpt lat="46.69379" lon="-0.70331">
        <ele>227.97</ele>
        <time>2021-03-26T11:38:33Z</time>
      </trkpt>
      <trkpt lat="46.69389" lon="-0.70323">
        <ele>227.97</ele>
        <time>2021-03-26T11:38:41Z</time>
      </trkpt>
      <trkpt lat="46.69394" lon="-0.70318">
        <ele>227.97</ele>
        <time>2021-03-26T11:38:48Z</time>
      </trkpt>
      <trkpt lat="46.69403" lon="-0.70313">
        <ele>228.45</ele>
        <time>2021-03-26T11:38:55Z</time>
      </trkpt>
      <trkpt lat="46.69408" lon="-0.70308">
        <ele>228.45</ele>
        <time>2021-03-26T11:39:01Z</time>
      </trkpt>
      <trkpt lat="46.69408" lon="-0.70307">
        <ele>228.45</ele>
        <time>2021-03-26T11:39:02Z</time>
      </trkpt>
      <trkpt lat="46.69408" lon="-0.70305">
        <ele>228.45</ele>
        <time>2021-03-26T11:39:03Z</time>
      </trkpt>
      <trkpt lat="46.6941" lon="-0.70297">
        <ele>228.93</ele>
        <time>2021-03-26T11:39:09Z</time>
      </trkpt>
      <trkpt lat="46.6941" lon="-0.70295">
        <ele>228.93</ele>
        <time>2021-03-26T11:39:10Z</time>
      </trkpt>
      <trkpt lat="46.6941" lon="-0.70293">
        <ele>228.93</ele>
        <time>2021-03-26T11:39:11Z</time>
      </trkpt>
      <trkpt lat="46.69409" lon="-0.70291">
        <ele>228.93</ele>
        <time>2021-03-26T11:39:12Z</time>
      </trkpt>
      <trkpt lat="46.6941" lon="-0.70286">
        <ele>228.93</ele>
        <time>2021-03-26T11:39:17Z</time>
      </trkpt>
      <trkpt lat="46.69411" lon="-0.70283">
        <ele>228.93</ele>
        <time>2021-03-26T11:39:18Z</time>
      </trkpt>
      <trkpt lat="46.69416" lon="-0.70275">
        <ele>228.93</ele>
        <time>2021-03-26T11:39:24Z</time>
      </trkpt>
      <trkpt lat="46.69418" lon="-0.70272">
        <ele>228.93</ele>
        <time>2021-03-26T11:39:31Z</time>
      </trkpt>
      <trkpt lat="46.69418" lon="-0.7027">
        <ele>228.93</ele>
        <time>2021-03-26T11:39:44Z</time>
      </trkpt>
      <trkpt lat="46.6942" lon="-0.7027">
        <ele>228.93</ele>
        <time>2021-03-26T11:39:57Z</time>
      </trkpt>
    </trkseg>
  </trk>
</gpx>